Date StartTime U_cm/s V_cm/s W_cm/s Ustd_cm/s Vstd_cm/s Wstd_cm/s Uvar_(cm/s)^2 Vvar_(cm/s)^2 Wvar_(cm/s)^2 KE_(m/s)^2 TurbulentKE_(m/s)^2 HorizWindSpeed_cm/s FrictionSpeec_cm/s DragCoef SpeedOfSound_m/s SonicTemperature_C Pressure_mb 
12/01/2013  00:00:00      -65.575      -14.588      -12.899        8.081       10.634        9.683       65.303      113.082       93.765        0.248        0.014       67.178        6.587        0.010      332.602        1.371      869.990
12/01/2013  00:01:00      -58.300      -29.778       -7.513       11.587       14.982       11.656      134.251      224.463      135.863        0.242        0.025       65.465        7.293        0.012      332.692        1.522      870.005
12/01/2013  00:02:00      -44.834      -26.351       -7.458       17.518       19.745       12.640      306.874      389.848      159.777        0.181        0.043       52.005        7.386        0.020      332.664        1.474      870.013
12/01/2013  00:03:00      -56.588      -28.583       -5.894       18.150       15.169       11.374      329.415      230.093      129.363        0.237        0.034       63.397        8.193        0.017      332.590        1.351      870.007
12/01/2013  00:04:00      -58.178      -13.394       -8.833       13.984        9.858        8.807      195.552       97.171       77.566        0.201        0.019       59.700        8.225        0.019      332.829        1.745      869.997
12/01/2013  00:05:00      -68.413      -17.692       -9.484        9.493        9.122        7.564       90.123       83.211       57.209        0.266        0.012       70.664        4.266        0.004      332.780        1.666      869.986
12/01/2013  00:06:00      -70.235       -7.090      -15.682       11.587        9.207        7.409      134.253       84.770       54.900        0.275        0.014       70.592        5.630        0.006      332.543        1.274      869.988
12/01/2013  00:07:00      -64.523       -7.307      -10.604       20.074       11.647        9.306      402.977      135.661       86.595        0.248        0.031       64.935        7.480        0.013      332.454        1.126      869.983
12/01/2013  00:08:00      -42.007      -10.348      -11.096       14.721        9.548       11.255      216.695       91.163      126.672        0.121        0.022       43.263        9.182        0.045      332.627        1.412      869.980
12/01/2013  00:09:00      -51.843      -21.793       -8.772       23.040       18.637       11.479      530.842      347.339      131.773        0.212        0.050       56.238       12.369        0.048      332.727        1.579      869.968
12/01/2013  00:10:00      -55.289      -26.088       -6.572       13.912       13.887       14.121      193.533      192.852      199.400        0.218        0.029       61.135        8.053        0.017      332.649        1.447      869.957
12/01/2013  00:11:00      -65.307       -7.896      -12.642       10.085        8.791        6.094      101.698       77.279       37.139        0.235        0.011       65.782        4.219        0.004      332.485        1.178      869.963
12/01/2013  00:12:00      -57.443      -19.041      -12.122        5.912        8.287        5.897       34.956       68.683       34.776        0.197        0.007       60.517        2.351        0.002      332.501        1.205      869.967
12/01/2013  00:13:00      -59.960      -24.971       -9.349       11.818       10.129        9.336      139.671      102.606       87.167        0.232        0.016       64.951        8.291        0.016      332.515        1.227      869.966
12/01/2013  00:14:00      -76.626      -35.669      -12.540       12.206        8.237       11.192      148.989       67.849      125.257        0.382        0.017       84.521        8.691        0.011      332.501        1.204      869.957
12/01/2013  00:15:00     -109.858      -22.395      -20.466       11.148        6.813        6.735      124.271       46.412       45.361        0.660        0.011      112.117        4.091        0.001      332.517        1.230      869.948
12/01/2013  00:16:00     -119.327      -22.323      -13.978       16.752       11.386        8.837      280.624      129.648       78.091        0.771        0.024      121.397        7.500        0.004      332.536        1.261      869.934
12/01/2013  00:17:00     -103.716      -23.110      -11.251       13.823       13.096       10.689      191.079      171.492      114.244        0.595        0.024      106.260        6.791        0.004      332.526        1.246      869.927
12/01/2013  00:18:00     -101.968      -26.784      -13.149       12.214       14.759        9.083      149.187      217.837       82.501        0.587        0.022      105.427        5.237        0.002      332.603        1.372      869.937
12/01/2013  00:19:00     -103.871      -31.895      -12.082       16.007       14.226       11.046      256.226      202.384      122.024        0.627        0.029      108.657        6.704        0.004      332.603        1.374      869.943
12/01/2013  00:20:00     -105.382      -44.457       -0.767       20.493       16.283       15.407      419.961      265.151      237.362        0.700        0.046      114.376       12.481        0.012      332.513        1.224      869.955
12/01/2013  00:21:00     -102.432      -57.633       -8.951       17.572       17.325       14.880      308.776      300.145      221.413        0.736        0.042      117.533        8.172        0.005      332.499        1.200      869.967
12/01/2013  00:22:00     -113.187      -26.471      -14.158       20.848       11.459       11.717      434.633      131.299      137.289        0.721        0.035      116.241       11.441        0.010      332.513        1.224      869.981
12/01/2013  00:23:00     -126.902      -42.078       -6.084       16.621       17.344       12.116      276.270      300.825      146.797        0.932        0.036      133.697       10.676        0.006      332.497        1.196      869.996
12/01/2013  00:24:00      -90.204      -29.450        2.427       32.234       23.031       18.377     1039.008      530.417      337.710        0.546        0.095       94.890       15.776        0.028      332.336        0.931      870.013
12/01/2013  00:25:00     -128.799      -49.256       -2.778       25.414       29.254       16.497      645.881      855.769      272.157        1.040        0.089      137.896       14.951        0.012      332.395        1.029      870.025
12/01/2013  00:26:00     -100.356      -48.228        3.734       39.391       35.653       19.459     1551.664     1271.134      378.640        0.781        0.160      111.343       21.434        0.037      332.381        1.005      870.027
12/01/2013  00:27:00     -124.550      -48.186       -5.953       37.199       31.418       25.035     1383.779      987.087      626.739        1.043        0.150      133.546       24.306        0.033      332.461        1.138      870.028
12/01/2013  00:28:00     -144.150      -58.847       -9.860       32.458       25.419       15.796     1053.494      646.149      249.519        1.314        0.097      155.699       13.115        0.007      332.532        1.253      870.027
12/01/2013  00:29:00     -136.945      -50.050       -4.448       32.181       22.672       19.255     1035.609      514.030      370.755        1.160        0.096      145.805       19.699        0.018      332.466        1.145      870.035
12/01/2013  00:30:00     -134.336      -58.156       -3.572       29.720       27.209       15.303      883.258      740.334      234.189        1.165        0.093      146.385       17.151        0.014      332.504        1.208      870.046
12/01/2013  00:31:00     -140.194      -45.183       -2.370       27.415       19.299       15.564      751.571      372.458      242.252        1.153        0.068      147.295       15.026        0.010      332.508        1.215      870.044
12/01/2013  00:32:00     -123.296      -46.400        1.408       26.987       24.439       16.232      728.277      597.277      263.486        0.947        0.079      131.738       14.137        0.012      332.480        1.171      870.034
12/01/2013  00:33:00     -123.996      -54.781       -0.434       27.375       20.508       18.730      749.380      420.561      350.797        0.995        0.076      135.558       18.360        0.018      332.461        1.138      870.032
12/01/2013  00:34:00     -113.242      -54.668       -0.680       26.784       19.482       16.360      717.386      379.565      267.663        0.859        0.068      125.747       15.469        0.015      332.439        1.101      870.037
12/01/2013  00:35:00     -116.828      -40.418      -10.053       14.171       12.801       10.311      200.813      163.874      106.318        0.793        0.024      123.622        7.777        0.004      332.448        1.116      870.052
12/01/2013  00:36:00     -123.442      -39.435      -11.794       16.199       13.907       11.072      262.408      193.407      122.592        0.876        0.029      129.588        8.369        0.004      332.435        1.097      870.069
12/01/2013  00:37:00     -112.527      -43.680      -14.170       10.855       12.988        9.625      117.839      168.684       92.632        0.758        0.019      120.707        7.625        0.004      332.383        1.010      870.071
12/01/2013  00:38:00     -100.311      -43.024      -11.297       15.864       15.730       10.239      251.652      247.444      104.837        0.632        0.030      109.148        7.098        0.004      332.339        0.936      870.070
12/01/2013  00:39:00      -94.795      -45.172      -10.397       14.526       12.962        9.258      211.002      168.003       85.704        0.580        0.023      105.008        4.957        0.002      332.345        0.945      870.060
12/01/2013  00:40:00      -96.012      -37.495      -12.819       15.662        8.178        9.333      245.298       66.874       87.099        0.559        0.020      103.074        2.523        0.001      332.364        0.977      870.055
12/01/2013  00:41:00      -96.166      -37.304      -11.144       17.967       18.158       10.655      322.797      329.711      113.527        0.576        0.038      103.148        7.229        0.005      332.398        1.033      870.040
12/01/2013  00:42:00     -103.181      -14.609      -11.601       21.709       19.807       13.060      471.267      392.303      170.575        0.601        0.052      104.210       13.641        0.017      332.400        1.038      870.038
12/01/2013  00:43:00     -112.785      -29.699      -22.573       18.563       19.387       13.106      344.586      375.862      171.777        0.750        0.045      116.629       10.013        0.007      332.382        1.007      870.044
12/01/2013  00:44:00     -101.922      -20.081      -13.840       19.045       18.298       13.654      362.708      334.828      186.440        0.593        0.044      103.881       12.821        0.015      332.348        0.951      870.051
12/01/2013  00:45:00      -84.853      -27.575      -10.902       21.438       22.816       13.257      459.584      520.549      175.746        0.462        0.058       89.221        7.322        0.007      332.320        0.906      870.062
12/01/2013  00:46:00      -71.213      -39.082       -8.938       20.133       25.795       15.980      405.339      665.407      255.349        0.400        0.066       81.232       13.388        0.027      332.323        0.910      870.066
12/01/2013  00:47:00      -73.886      -26.636       -1.779       27.692       17.554       11.336      766.822      308.126      128.506        0.369        0.060       78.540        6.921        0.008      332.365        0.980      870.065
12/01/2013  00:48:00      -77.135      -34.602       -9.342       21.299       23.375       17.564      453.663      546.377      308.491        0.427        0.065       84.541       11.818        0.020      332.304        0.880      870.064
12/01/2013  00:49:00      -52.627      -22.633      -15.722       32.955       20.668       16.994     1086.031      427.153      288.804        0.267        0.090       57.288        8.353        0.021      332.311        0.890      870.069
12/01/2013  00:50:00      -54.726      -38.017       -5.863       25.773       21.011       15.360      664.222      441.469      235.931        0.291        0.067       66.635       14.981        0.051      332.302        0.876      870.092
12/01/2013  00:51:00      -88.746      -27.643      -13.500       17.368       23.281       17.820      301.653      542.010      317.562        0.499        0.058       92.951       11.260        0.015      332.321        0.907      870.114
12/01/2013  00:52:00      -88.233      -14.052      -11.015       20.787       15.399       15.327      432.087      237.116      234.931        0.450        0.045       89.345        6.880        0.006      332.298        0.869      870.117
12/01/2013  00:53:00     -104.719      -13.061      -13.628       17.282       18.043       15.656      298.678      325.542      245.114        0.610        0.043      105.531       12.022        0.013      332.307        0.885      870.115
12/01/2013  00:54:00     -108.829       -9.981      -16.945       20.873       18.838       13.001      435.677      354.874      169.028        0.659        0.048      109.285       11.568        0.011      332.283        0.845      870.120
12/01/2013  00:55:00      -79.791      -34.004      -13.792       19.032       17.104       14.653      362.203      292.539      214.708        0.429        0.043       86.735       11.202        0.017      332.251        0.792      870.126
12/01/2013  00:56:00      -93.211      -17.369      -18.670       22.772       19.401       14.003      518.582      376.398      196.090        0.521        0.055       94.815       12.725        0.018      332.258        0.803      870.126
12/01/2013  00:57:00      -72.330      -30.080      -15.338       17.635       23.156       16.868      310.989      536.203      284.545        0.375        0.057       78.335       15.067        0.037      332.284        0.847      870.123
12/01/2013  00:58:00      -94.156      -17.256      -14.935       26.761       21.301       17.924      716.155      453.744      321.260        0.544        0.075       95.724       13.574        0.020      332.253        0.797      870.113
12/01/2013  00:59:00     -103.068      -21.264      -13.313       25.847       21.921       15.903      668.061      480.538      252.915        0.633        0.070      105.239       11.769        0.013      332.283        0.847      870.107
12/01/2013  01:00:00      -73.801      -13.672       -8.951       22.548       20.612       13.175      508.413      424.865      173.593        0.341        0.055       75.056        7.850        0.011      332.206        0.719      870.102
12/01/2013  01:01:00      -70.470      -12.082       -7.160       31.200       19.955       15.455      973.415      398.190      238.868        0.339        0.081       71.498       15.130        0.045      332.264        0.813      870.111
12/01/2013  01:02:00      -81.204       -2.878       -6.854       33.214       22.789       19.675     1103.137      519.329      387.098        0.433        0.100       81.255       16.962        0.044      332.245        0.782      870.123
12/01/2013  01:03:00      -82.393       -7.801       -6.541       31.944       21.421       15.222     1020.407      458.847      231.724        0.430        0.086       82.762       13.544        0.027      332.186        0.685      870.135
12/01/2013  01:04:00      -74.603      -23.531       -7.192       28.159       23.280       16.091      792.931      541.980      258.905        0.388        0.080       78.226        9.154        0.014      332.236        0.769      870.141
12/01/2013  01:05:00      -77.745      -25.206       -3.180       46.566       29.579       17.819     2168.372      874.913      317.505        0.502        0.168       81.729       11.725        0.021      332.227        0.753      870.148
12/01/2013  01:06:00      -84.382      -13.228      -11.857       35.743       29.523       21.289     1277.587      871.586      453.212        0.502        0.130       85.412       16.195        0.036      332.207        0.719      870.157
12/01/2013  01:07:00     -114.441      -28.080       -5.130       34.571       33.735       17.777     1195.167     1138.021      316.028        0.828        0.132      117.836        9.394        0.006      332.171        0.659      870.172
12/01/2013  01:08:00      -95.521      -32.212       -4.235       42.598       32.695       25.644     1814.586     1068.968      657.637        0.686        0.177      100.806       22.203        0.049      332.181        0.677      870.176
12/01/2013  01:09:00      -67.618      -44.248        1.671       46.199       31.100       22.403     2134.359      967.192      501.878        0.507        0.180       80.809       21.662        0.072      332.220        0.742      870.176
12/01/2013  01:10:00     -103.661      -18.713       -0.148       43.990       28.097       19.270     1935.114      789.448      371.342        0.710        0.155      105.337       20.561        0.038      332.197        0.703      870.178
12/01/2013  01:11:00      -79.470      -21.685        2.428       44.706       32.647       22.539     1998.595     1065.838      507.989        0.518        0.179       82.375       26.375        0.103      332.161        0.644      870.173
12/01/2013  01:12:00      -92.915      -15.066       -5.274       24.829       28.786       17.750      616.484      828.640      315.063        0.532        0.088       94.128       15.803        0.028      332.226        0.752      870.183
12/01/2013  01:13:00      -65.306      -26.606      -10.407       20.361       18.016        7.815      414.590      324.573       61.073        0.294        0.040       70.518        6.986        0.010      332.298        0.870      870.205
12/01/2013  01:14:00      -57.382      -34.865       -9.340       15.246       17.891       11.996      232.452      320.088      143.908        0.265        0.035       67.143        8.073        0.014      332.331        0.923      870.241
12/01/2013  01:15:00      -81.171      -19.745      -14.556        7.226       10.649        8.970       52.212      113.411       80.457        0.372        0.012       83.538        3.904        0.002      332.359        0.970      870.268
12/01/2013  01:16:00      -71.953      -31.015       -8.544       12.221       13.508       11.174      149.361      182.477      124.864        0.333        0.023       78.353        5.945        0.006      332.382        1.009      870.289
12/01/2013  01:17:00      -68.394      -29.607      -13.934        8.390        7.531        6.340       70.400       56.713       40.190        0.296        0.008       74.528        4.986        0.004      332.430        1.087      870.309
12/01/2013  01:18:00      -74.538      -18.918      -12.187        8.724        7.606        7.288       76.110       57.845       53.122        0.312        0.009       76.902        3.552        0.002      332.447        1.117      870.320
12/01/2013  01:19:00      -42.504      -25.595       -2.615       37.495        6.767        8.206     1405.880       45.791       67.334        0.199        0.076       49.616       11.001        0.049      332.537        1.263      870.334
12/01/2013  01:20:00       -9.986      -25.823       -1.642       16.768        9.993        7.089      281.161       99.863       50.256        0.060        0.022       27.687        7.821        0.080      332.590        1.353      870.358
12/01/2013  01:21:00      -20.705      -21.122        6.347       12.818        7.427        9.213      164.300       55.167       84.878        0.061        0.015       29.577        4.059        0.019      332.631        1.420      870.374
12/01/2013  01:22:00      -51.148      -23.613       -4.289       20.834       11.070        8.776      434.041      122.550       77.022        0.191        0.032       56.336        8.061        0.020      332.645        1.443      870.379
12/01/2013  01:23:00      -49.352      -24.109       -6.831       12.805       11.195        8.185      163.979      125.335       66.996        0.171        0.018       54.926        5.916        0.012      332.492        1.188      870.385
12/01/2013  01:24:00      -36.906      -27.054       -2.847       17.451        8.411        6.646      304.554       70.748       44.166        0.126        0.021       45.760        3.768        0.007      332.506        1.212      870.387
12/01/2013  01:25:00      -17.153      -11.773       -0.912       15.651        7.981        5.670      244.967       63.690       32.153        0.039        0.017       20.805        3.660        0.031      332.509        1.216      870.380
12/01/2013  01:26:00      -21.332      -10.361       -0.802       17.119        9.016        8.579      293.063       81.283       73.606        0.051        0.022       23.715        6.853        0.084      332.491        1.187      870.365
12/01/2013  01:27:00      -44.993      -16.354       -0.480        9.606       13.670       10.294       92.285      186.871      105.964        0.134        0.019       47.873        6.753        0.020      332.500        1.202      870.352
12/01/2013  01:28:00      -32.948      -10.037        2.327       23.302       14.634       11.531      542.964      214.157      132.954        0.104        0.045       34.443       14.430        0.176      332.421        1.073      870.339
12/01/2013  01:29:00      -68.800      -21.023       -8.323       11.859       16.544        7.219      140.628      273.706       52.119        0.286        0.023       71.940        5.971        0.007      332.403        1.043      870.334
12/01/2013  01:30:00      -75.186      -37.634       -7.068        9.915       16.165        8.408       98.316      261.318       70.693        0.377        0.022       84.079        7.326        0.008      332.355        0.965      870.340
12/01/2013  01:31:00      -93.009      -37.256      -12.272       12.101       16.962       10.635      146.437      287.718      113.105        0.537        0.027      100.193        4.482        0.002      332.369        0.986      870.339
12/01/2013  01:32:00      -84.091      -33.836       -7.840       13.132       11.608        8.043      172.440      134.746       64.695        0.432        0.019       90.643        3.337        0.001      332.361        0.973      870.341
12/01/2013  01:33:00      -71.154      -21.668       -7.840       17.529       16.801       10.688      307.249      282.274      114.235        0.315        0.035       74.380       10.630        0.020      332.329        0.920      870.346
12/01/2013  01:34:00      -89.272      -18.812       -9.587       16.340       11.095        8.260      267.010      123.098       68.228        0.444        0.023       91.232        6.172        0.005      332.346        0.948      870.349
12/01/2013  01:35:00      -90.078      -21.497      -10.457       18.840       13.792       11.377      354.961      190.215      129.434        0.468        0.034       92.608       11.060        0.014      332.317        0.898      870.352
12/01/2013  01:36:00      -95.919      -30.568       -8.442       27.238       17.756       11.914      741.887      315.267      141.952        0.570        0.060      100.672       10.468        0.011      332.240        0.774      870.354
12/01/2013  01:37:00      -81.333      -22.705        4.966       30.055       22.754       16.683      903.318      517.757      278.314        0.443        0.085       84.442       12.000        0.020      332.156        0.636      870.357
12/01/2013  01:38:00      -74.407      -38.493        6.105       43.096       23.092       20.165     1857.274      533.227      406.623        0.493        0.140       83.774       20.629        0.061      332.180        0.676      870.367
12/01/2013  01:39:00      -86.731      -22.821        7.072       37.636       26.750       19.543     1416.500      715.568      381.910        0.530        0.126       89.683       19.809        0.049      332.130        0.593      870.375
12/01/2013  01:40:00      -62.710      -22.686        5.351       36.598       28.022       16.986     1339.426      785.254      288.509        0.344        0.121       66.687       19.672        0.087      332.170        0.658      870.387
12/01/2013  01:41:00      -73.801      -29.225        6.556       35.049       23.031       15.789     1228.399      530.432      249.284        0.418        0.100       79.377       15.604        0.039      332.200        0.707      870.400
12/01/2013  01:42:00      -85.920      -30.148        1.918       42.171       26.410       18.119     1778.382      697.484      328.282        0.555        0.140       91.055       16.701        0.034      332.245        0.783      870.416
12/01/2013  01:43:00     -105.866      -29.181       -0.065       21.691       23.231       14.580      470.521      539.701      212.566        0.664        0.061      109.814        9.305        0.007      332.198        0.704      870.432
12/01/2013  01:44:00     -101.694      -32.033        1.783       25.376       17.751       12.119      643.939      315.100      146.875        0.624        0.055      106.620        8.593        0.006      332.218        0.739      870.452
12/01/2013  01:45:00      -96.159      -36.773       -1.504       22.689       18.972       11.738      514.779      359.930      137.785        0.581        0.051      102.951        8.279        0.006      332.272        0.826      870.466
12/01/2013  01:46:00      -88.964      -37.334       -0.293       31.527       20.648       16.938      993.921      426.323      286.885        0.551        0.085       96.480       16.246        0.028      332.249        0.790      870.467
12/01/2013  01:47:00      -96.963      -35.931        3.752       42.587       25.732       18.602     1813.640      662.134      346.021        0.676        0.141      103.406       17.557        0.029      332.204        0.715      870.467
12/01/2013  01:48:00     -107.534      -57.641        3.439       33.258       23.792       16.254     1106.087      566.072      264.206        0.842        0.097      122.009       15.951        0.017      332.239        0.771      870.468
12/01/2013  01:49:00     -111.590      -39.555        1.016       27.616       25.817       14.695      762.660      666.493      215.946        0.783        0.082      118.393       11.233        0.009      332.235        0.765      870.477
12/01/2013  01:50:00     -106.469      -37.393        2.861       34.738       31.179       17.116     1206.762      972.101      292.950        0.761        0.124      112.845       16.366        0.021      332.204        0.716      870.474
12/01/2013  01:51:00     -124.074      -55.348        4.737       29.194       26.098       18.777      852.284      681.126      352.577        1.018        0.094      135.859       15.828        0.014      332.215        0.734      870.466
12/01/2013  01:52:00     -135.916      -28.694       -2.142       26.347       25.899       15.183      694.167      670.742      230.529        1.045        0.080      138.912       13.928        0.010      332.197        0.705      870.463
12/01/2013  01:53:00     -128.335      -47.565      -11.183       14.366       15.702       11.466      206.375      246.541      131.474        0.972        0.029      136.866        7.533        0.003      332.202        0.714      870.453
12/01/2013  01:54:00      -89.531      -52.224      -17.296       29.359       16.745       15.057      861.945      280.383      226.698        0.621        0.068      103.649        6.514        0.004      332.189        0.692      870.450
12/01/2013  01:55:00      -62.081      -42.918      -13.452       25.737       21.249       13.700      662.407      451.532      187.697        0.359        0.065       75.472       12.735        0.028      332.177        0.672      870.450
12/01/2013  01:56:00      -95.403      -72.680       -7.217       24.559       26.443       14.976      603.164      699.258      224.278        0.798        0.076      119.934       11.822        0.010      332.048        0.456      870.447
12/01/2013  01:57:00     -104.949      -62.350       -6.494       23.495       21.651       17.185      552.002      468.785      295.319        0.813        0.066      122.073       12.342        0.010      331.989        0.359      870.443
12/01/2013  01:58:00     -103.679      -35.722      -12.294       22.065       24.646       16.945      486.862      607.410      287.126        0.678        0.069      109.660       10.976        0.010      331.903        0.218      870.436
12/01/2013  01:59:00     -112.854      -48.077      -13.750       19.120       12.655       11.925      365.559      160.156      142.206        0.795        0.033      122.668        5.619        0.002      331.868        0.161      870.436
12/01/2013  02:00:00      -92.202      -23.605       -4.235       36.480       28.273       15.364     1330.786      799.354      236.044        0.572        0.118       95.176       12.776        0.018      331.823        0.086      870.425
12/01/2013  02:01:00      -80.393      -27.236       -1.604       37.564       25.066       17.824     1411.051      628.318      317.713        0.478        0.118       84.881       16.240        0.037      331.861        0.150      870.408
12/01/2013  02:02:00      -56.227       -2.081       -1.940       30.751       24.749       14.693      945.594      612.518      215.890        0.247        0.089       56.266       13.259        0.056      331.874        0.170      870.396
12/01/2013  02:03:00      -78.023      -25.461       -9.594       20.918       18.493       12.856      437.555      341.989      165.272        0.389        0.047       82.073       11.699        0.020      331.885        0.189      870.379
12/01/2013  02:04:00      -77.980      -37.218       -5.347       29.255       26.508       17.310      855.880      702.663      299.639        0.468        0.093       86.406       10.463        0.015      331.933        0.267      870.367
12/01/2013  02:05:00      -70.225      -28.959       -2.001       20.592       21.761       16.544      424.037      473.551      273.690        0.347        0.059       75.962       10.230        0.018      331.910        0.229      870.359
12/01/2013  02:06:00      -64.351      -10.385       -7.940       22.629       23.177       15.304      512.063      537.163      234.227        0.280        0.064       65.184        9.002        0.019      331.956        0.307      870.334
12/01/2013  02:07:00      -62.267       -9.486      -15.485       19.563       15.273       10.868      382.710      233.257      118.118        0.247        0.037       62.986        3.936        0.004      331.967        0.324      870.318
12/01/2013  02:08:00      -50.859       -4.152      -13.274       12.647       15.097        8.457      159.939      227.918       71.524        0.162        0.023       51.028        6.545        0.016      332.206        0.719      870.302
12/01/2013  02:09:00      -55.711       -5.295       -9.579       14.289       15.952        9.763      204.182      254.481       95.320        0.189        0.028       55.962        8.534        0.023      332.351        0.958      870.297
12/01/2013  02:10:00      -66.526      -25.598       -8.978       10.985       26.150       11.472      120.669      683.801      131.616        0.305        0.047       71.281        9.097        0.016      332.305        0.881      870.289
12/01/2013  02:11:00      -79.109      -34.702      -15.289       20.900       17.658       12.901      436.820      311.799      166.448        0.431        0.046       86.386        8.540        0.010      332.058        0.473      870.283
12/01/2013  02:12:00      -96.447      -32.332      -11.858       27.499       19.742       16.416      756.220      389.736      269.484        0.595        0.071      101.722       11.729        0.013      331.886        0.192      870.275
12/01/2013  02:13:00     -103.120      -31.336      -12.323       20.973       18.823       15.060      439.888      354.306      226.790        0.639        0.051      107.776       10.208        0.009      331.877        0.176      870.265
12/01/2013  02:14:00      -93.148      -40.437       -5.930       28.631       24.063       19.454      819.759      579.027      378.459        0.606        0.089      101.547       16.891        0.028      331.884        0.188      870.275
12/01/2013  02:15:00     -107.282      -32.777      -24.484       21.711       22.956       16.876      471.384      526.974      284.788        0.723        0.064      112.177       13.978        0.016      331.917        0.241      870.287
12/01/2013  02:16:00     -127.269      -44.852      -15.237       26.791       20.923       13.511      717.747      437.772      182.538        0.989        0.067      134.941        6.654        0.002      331.935        0.270      870.303
12/01/2013  02:17:00      -90.955      -22.859       -9.618       38.087       23.093       14.526     1450.624      533.298      210.993        0.554        0.110       93.784       14.696        0.025      331.875        0.172      870.321
12/01/2013  02:18:00      -85.981      -39.180       -3.318       28.041       21.337       18.601      786.276      455.265      346.013        0.526        0.079       94.487       15.638        0.027      331.897        0.207      870.331
12/01/2013  02:19:00      -58.241       -9.120        1.047       34.541       32.387       18.074     1193.112     1048.894      326.668        0.302        0.128       58.951       16.672        0.080      331.994        0.369      870.343
12/01/2013  02:20:00      -54.072      -16.120       -3.471       28.483       24.366       15.562      811.287      593.688      242.161        0.242        0.082       56.423       14.328        0.064      332.073        0.500      870.349
12/01/2013  02:21:00      -85.630      -59.185       -3.717       26.103       25.151       13.846      681.364      632.550      191.710        0.618        0.075      104.093       11.663        0.013      332.093        0.533      870.349
12/01/2013  02:22:00     -100.554      -67.970      -12.163       17.308       16.974       13.770      299.554      288.109      189.600        0.783        0.039      121.372        7.850        0.004      332.045        0.453      870.344
12/01/2013  02:23:00      -89.020      -54.411      -11.686       16.329       16.069       11.606      266.647      258.214      134.708        0.584        0.033      104.332        7.523        0.005      332.006        0.387      870.343
12/01/2013  02:24:00     -100.088      -23.053      -15.628       10.588       11.252        8.133      112.102      126.613       66.141        0.555        0.015      102.709        4.742        0.002      332.063        0.483      870.345
12/01/2013  02:25:00      -91.255      -23.777      -10.976        9.976       13.117        9.310       99.512      172.048       86.677        0.469        0.018       94.302        4.023        0.002      332.140        0.610      870.348
12/01/2013  02:26:00      -77.900      -39.202       -8.512       12.580        7.846       11.627      158.266       61.552      135.197        0.402        0.018       87.208        7.732        0.008      332.256        0.799      870.358
12/01/2013  02:27:00      -71.079      -41.625       -2.521        8.970        8.776        5.346       80.460       77.010       28.583        0.349        0.009       82.371        4.637        0.003      332.240        0.774      870.360
12/01/2013  02:28:00      -49.513      -47.406        3.546       22.965       15.896       14.539      527.398      252.686      211.378        0.285        0.050       68.549       11.406        0.028      332.254        0.799      870.360
12/01/2013  02:29:00      -62.027      -57.193        0.625       26.618       26.138       13.687      708.501      683.179      187.343        0.435        0.079       84.371       15.764        0.035      332.366        0.981      870.354
12/01/2013  02:30:00      -37.088      -29.135        7.487       22.716       16.910       15.355      516.036      285.952      235.771        0.166        0.052       47.163       14.705        0.097      332.357        0.967      870.351
12/01/2013  02:31:00      -49.368      -20.031        2.053       14.616       12.677        9.737      213.639      160.698       94.819        0.166        0.023       53.277        4.139        0.006      332.292        0.859      870.330
12/01/2013  02:32:00      -28.912      -20.698       -2.744       19.902       23.238       12.440      396.077      539.998      154.744        0.118        0.055       35.557       14.802        0.173      332.392        1.024      870.309
12/01/2013  02:33:00      -37.300      -11.779        3.651       29.779       19.956       17.463      886.813      398.251      304.950        0.157        0.080       39.116       12.809        0.107      332.315        0.898      870.293
12/01/2013  02:34:00      -15.543        0.136        4.407       20.629       20.237       12.983      425.560      409.524      168.548        0.063        0.050       15.543        7.117        0.210      332.321        0.907      870.283
12/01/2013  02:35:00      -43.292      -39.335        1.770       31.914       31.919       15.990     1018.495     1018.801      255.665        0.286        0.115       58.493       12.495        0.046      332.391        1.023      870.280
12/01/2013  02:36:00      -40.079      -46.730        8.667       47.857       37.580       20.694     2290.291     1412.235      428.254        0.400        0.207       61.564       21.935        0.127      332.492        1.190      870.272
12/01/2013  02:37:00      -19.764      -54.868       11.648       37.984       34.668       21.739     1442.802     1201.863      472.600        0.333        0.156       58.319       20.908        0.129      332.551        1.287      870.269
12/01/2013  02:38:00      -43.616      -40.430        4.736       38.528       30.312       24.265     1484.393      918.799      588.781        0.328        0.150       59.472       13.911        0.055      332.499        1.201      870.257
12/01/2013  02:39:00      -66.288      -49.574        7.965       55.813       34.060       19.830     3115.141     1160.070      393.217        0.579        0.233       82.775       16.391        0.039      332.511        1.221      870.245
12/01/2013  02:40:00      -52.484      -47.189        2.994       51.367       34.856       21.940     2638.537     1214.962      481.372        0.466        0.217       70.579       27.696        0.154      332.478        1.166      870.247
12/01/2013  02:41:00      -68.114      -56.806       -1.823       50.228       32.091       19.567     2522.840     1029.809      382.855        0.590        0.197       88.693       16.254        0.034      332.463        1.141      870.251
12/01/2013  02:42:00      -93.140      -54.119        0.003       40.148       24.820       19.937     1611.862      616.026      397.503        0.711        0.131      107.722       17.748        0.027      332.435        1.095      870.251
12/01/2013  02:43:00     -130.113      -14.852       -9.116       27.215       21.401       15.812      740.633      458.013      250.016        0.934        0.072      130.958       12.050        0.008      332.228        0.756      870.254
12/01/2013  02:44:00     -135.363      -15.133       -5.397       30.232       20.531       16.210      913.968      421.533      262.752        1.009        0.080      136.207       15.358        0.013      331.901        0.215      870.263
12/01/2013  02:45:00      -93.996       -6.938       -0.206       39.402       25.819       21.225     1552.551      666.632      450.504        0.578        0.133       94.252       20.454        0.047      331.817        0.076      870.261
12/01/2013  02:46:00      -98.310      -20.046       -3.607       36.333       30.721       17.959     1320.079      943.755      322.508        0.633        0.129      100.333       13.856        0.019      331.870        0.164      870.264
12/01/2013  02:47:00     -123.286      -21.471       -1.324       40.693       24.936       21.234     1655.885      621.794      450.864        0.919        0.136      125.142       20.681        0.027      331.809        0.065      870.262
12/01/2013  02:48:00     -128.177      -25.582       -4.993       25.060       23.169       18.122      628.023      536.792      328.402        0.930        0.075      130.705        9.140        0.005      331.816        0.075      870.261
12/01/2013  02:49:00      -93.055       -7.770        0.771       33.523       24.242       17.010     1123.801      587.696      289.324        0.536        0.100       93.378       15.474        0.027      331.740       -0.048      870.257
12/01/2013  02:50:00      -92.583       -3.934        0.661       47.851       30.876       25.314     2289.727      953.320      640.789        0.623        0.194       92.666       29.570        0.102      331.778        0.012      870.251
12/01/2013  02:51:00      -93.202      -19.630       -2.425       33.201       26.984       18.412     1102.312      728.144      339.013        0.562        0.108       95.246       17.940        0.035      331.794        0.040      870.244
12/01/2013  02:52:00      -89.805      -22.944       -0.396       35.628       24.489       18.273     1269.325      599.723      333.888        0.540        0.110       92.690       19.336        0.044      331.809        0.064      870.239
12/01/2013  02:53:00     -116.343      -23.329      -12.943       24.766       23.278       22.267      613.355      541.859      495.824        0.795        0.083      118.659       17.645        0.022      331.821        0.082      870.232
12/01/2013  02:54:00      -92.327      -38.536       -2.632       16.407       25.792       16.200      269.202      665.212      262.434        0.561        0.060      100.047        9.317        0.009      331.758       -0.020      870.227
12/01/2013  02:55:00      -94.810      -56.557      -12.124       19.325       17.674       12.202      373.468      312.354      148.888        0.658        0.042      110.398        6.071        0.003      331.760       -0.018      870.229
12/01/2013  02:56:00      -76.547      -51.779       -0.738       24.295       19.190       16.146      590.234      368.248      260.696        0.488        0.061       92.415       14.371        0.024      331.717       -0.086      870.223
12/01/2013  02:57:00      -63.353      -40.895       -9.973       34.232       21.094       19.690     1171.862      444.957      387.685        0.389        0.100       75.405       20.728        0.076      331.742       -0.047      870.219
12/01/2013  02:58:00      -92.521      -48.085      -14.657       29.891       20.124       18.042      893.445      404.958      325.506        0.636        0.081      104.270       10.696        0.011      331.674       -0.157      870.210
12/01/2013  02:59:00     -122.976      -27.813      -14.027       21.962       21.368       13.904      482.323      456.574      193.332        0.861        0.057      126.082        5.735        0.002      331.566       -0.338      870.206
12/01/2013  03:00:00     -106.788      -10.081       -6.000       25.382       21.595       16.087      644.257      466.359      258.793        0.646        0.068      107.263       10.836        0.010      331.568       -0.333      870.198
12/01/2013  03:01:00     -110.297       -9.978       -3.767       30.007       14.809       13.951      900.411      219.319      194.631        0.680        0.066      110.747       14.652        0.018      331.593       -0.292      870.196
12/01/2013  03:02:00     -104.367      -12.182      -10.666       16.698       13.707        9.843      278.819      187.883       96.883        0.586        0.028      105.076        7.127        0.005      331.606       -0.270      870.191
12/01/2013  03:03:00     -109.951      -14.459      -11.136       15.506       11.495       11.895      240.422      132.144      141.486        0.647        0.026      110.898        9.958        0.008      331.573       -0.324      870.186
12/01/2013  03:04:00      -89.197      -24.927      -14.317       17.228       12.493        9.320      296.787      156.074       86.870        0.466        0.027       92.615        6.102        0.004      331.631       -0.230      870.183
12/01/2013  03:05:00      -91.197       -9.811      -16.312        8.621        8.343        7.595       74.324       69.601       57.681        0.444        0.010       91.723        3.970        0.002      331.675       -0.157      870.172
12/01/2013  03:06:00      -83.865       -8.654      -15.805       15.430       16.450       13.721      238.095      270.596      188.274        0.403        0.035       84.310        9.202        0.012      331.771        0.001      870.157
12/01/2013  03:07:00      -79.001        5.048      -13.987       18.856       13.057       12.011      355.541      170.481      144.258        0.357        0.034       79.162       12.321        0.024      331.865        0.157      870.147
12/01/2013  03:08:00      -76.290      -21.846       -8.478       22.224       13.063        8.737      493.892      170.631       76.344        0.355        0.037       79.356        9.603        0.015      331.735       -0.058      870.135
12/01/2013  03:09:00      -85.714      -37.530      -11.562       19.510       14.402       12.683      380.648      207.427      160.868        0.482        0.037       93.570        7.524        0.006      331.678       -0.151      870.137
12/01/2013  03:10:00     -101.333      -27.695      -15.047       24.183       23.587       12.873      584.812      556.366      165.721        0.628        0.065      105.049        5.872        0.003      331.654       -0.191      870.127
12/01/2013  03:11:00      -95.154      -19.768      -11.218       20.773       18.372        8.676      431.499      337.518       75.278        0.521        0.042       97.185        6.082        0.004      331.540       -0.378      870.117
12/01/2013  03:12:00     -113.601      -28.329      -12.216       22.751       12.253       14.039      517.614      150.135      197.087        0.736        0.043      117.080        6.680        0.003      331.649       -0.198      870.104
12/01/2013  03:13:00      -85.921       -6.098      -11.186       25.349        9.612       11.231      642.559       92.396      126.134        0.420        0.043       86.137       13.493        0.025      331.545       -0.371      870.102
12/01/2013  03:14:00     -100.981      -22.682      -15.116       17.927       16.068       11.925      321.374      258.173      142.204        0.583        0.036      103.497       10.117        0.010      331.619       -0.249      870.104
12/01/2013  03:15:00      -92.462      -43.725       -7.036       19.972       26.817       18.453      398.870      719.169      340.501        0.598        0.073      102.280       11.765        0.013      331.633       -0.226      870.116
12/01/2013  03:16:00      -62.052       -4.517       -7.400       27.821       30.161       17.402      774.031      909.711      302.821        0.296        0.099       62.216       10.546        0.029      331.687       -0.139      870.128
12/01/2013  03:17:00      -62.283       -8.863       -6.866       44.683       45.384       26.102     1996.528     2059.748      681.291        0.437        0.237       62.911       21.938        0.122      331.737       -0.053      870.119
12/01/2013  03:18:00     -147.092       22.059      -10.566       78.965       35.586       26.498     6235.469     1266.361      702.165        1.522        0.410      148.736       33.587        0.051      331.794        0.039      870.112
12/01/2013  03:19:00      -94.259       -6.564       -2.901       61.522       34.582       34.172     3784.955     1195.919     1167.737        0.754        0.307       94.487       36.522        0.149      331.589       -0.300      870.096
12/01/2013  03:20:00     -129.734      -45.690      -14.364       35.487       50.988       24.270     1259.319     2599.785      589.012        1.179        0.222      137.545       21.726        0.025      331.493       -0.457      870.080
12/01/2013  03:21:00     -152.592        4.407       -6.781       52.253       49.255       25.738     2730.394     2426.009      662.461        1.458        0.291      152.655       28.133        0.034      331.467       -0.501      870.071
12/01/2013  03:22:00     -168.058       29.185      -12.031       42.030       37.282       25.893     1766.556     1389.926      670.433        1.653        0.191      170.574       23.565        0.019      331.438       -0.547      870.065
12/01/2013  03:23:00     -185.659       15.283      -19.717       24.054       19.202       15.756      578.604      368.723      248.257        1.814        0.060      186.287       14.112        0.006      331.443       -0.539      870.057
12/01/2013  03:24:00     -168.067       -7.737      -20.347       40.144       28.369       20.567     1611.537      804.819      423.008        1.578        0.142      168.245       19.440        0.013      331.440       -0.543      870.046
12/01/2013  03:25:00     -148.356       -4.182      -15.016       42.732       26.687       27.009     1826.006      712.204      729.510        1.276        0.163      148.414       26.843        0.033      331.426       -0.567      870.034
12/01/2013  03:26:00     -141.752        6.806      -16.283       41.287       33.444       23.896     1704.617     1118.482      571.002        1.190        0.170      141.916       22.648        0.025      331.474       -0.489      870.023
12/01/2013  03:27:00     -130.253       -7.847      -11.314       49.488       31.583       26.712     2449.037      997.482      713.507        1.066        0.208      130.489       26.066        0.040      331.551       -0.360      870.019
12/01/2013  03:28:00      -79.761      -25.135        4.162       47.366       28.331       24.700     2243.494      802.637      610.095        0.533        0.183       83.628       23.729        0.081      331.592       -0.294      870.001
12/01/2013  03:29:00     -130.394      -25.618       -7.563       38.733       43.203       21.276     1500.231     1866.534      452.667        1.077        0.191      132.887       16.666        0.016      331.541       -0.377      869.988
12/01/2013  03:30:00     -105.895      -27.558       -2.525       32.686       26.440       19.350     1068.349      699.065      374.433        0.706        0.107      109.422       17.209        0.025      331.521       -0.410      869.989
12/01/2013  03:31:00     -116.404      -37.554       -7.788       28.266       17.285       18.304      798.985      298.774      335.028        0.823        0.072      122.312       19.294        0.025      331.556       -0.352      869.981
12/01/2013  03:32:00      -88.979      -46.020      -12.919       25.116       22.848       14.913      630.828      522.028      222.400        0.579        0.069      100.175       14.749        0.022      331.541       -0.379      869.981
12/01/2013  03:33:00      -79.270      -53.290       -4.414       29.355       24.565       20.811      861.736      603.426      433.117        0.552        0.095       95.518       12.576        0.017      331.574       -0.323      869.991
12/01/2013  03:34:00     -106.641      -14.631      -16.182       35.652       31.925       19.341     1271.085     1019.178      374.088        0.726        0.133      107.640       13.531        0.016      331.581       -0.312      870.013
12/01/2013  03:35:00     -133.695       -2.614      -10.947       37.423       32.087       17.890     1400.468     1029.577      320.042        1.037        0.138      133.720       16.825        0.016      331.601       -0.279      870.025
12/01/2013  03:36:00      -89.810       -5.440       -1.899       44.025       28.908       23.713     1938.208      835.668      562.285        0.572        0.167       89.974       19.589        0.047      331.537       -0.385      870.030
12/01/2013  03:37:00      -37.891        4.077      -16.337       22.258       28.246        9.635      495.419      797.843       92.824        0.155        0.069       38.109        6.104        0.026      331.520       -0.414      870.026
12/01/2013  03:38:00      -85.436      -10.913      -19.552       35.621       31.301       18.927     1268.848      979.757      358.214        0.520        0.130       86.130        9.495        0.012      331.617       -0.253      870.010
12/01/2013  03:39:00      -93.991      -22.102      -12.169       23.327       27.051       16.928      544.170      731.766      286.541        0.552        0.078       96.555        9.012        0.009      331.639       -0.216      869.989
12/01/2013  03:40:00      -99.922      -25.854      -14.278       27.730       23.696       17.872      768.941      561.506      319.392        0.625        0.082      103.212       11.993        0.014      331.521       -0.409      869.963
12/01/2013  03:41:00      -98.271      -28.844      -11.902       28.377       22.537       15.137      805.256      507.901      229.121        0.609        0.077      102.417       10.504        0.011      331.553       -0.358      869.939
12/01/2013  03:42:00      -79.647      -34.689       -9.360       17.901       18.927       12.856      320.451      358.232      165.289        0.424        0.042       86.873        6.906        0.006      331.553       -0.357      869.928
12/01/2013  03:43:00      -73.020      -19.026       -5.607       18.162       15.363        8.725      329.841      236.029       76.119        0.318        0.032       75.458        4.254        0.003      331.571       -0.328      869.922
12/01/2013  03:44:00     -103.009       -3.055       -9.274       14.776       15.943       15.162      218.316      254.167      229.894        0.570        0.035      103.055        9.461        0.008      331.554       -0.357      869.912
12/01/2013  03:45:00     -100.832      -26.734      -13.145       21.715       20.865       16.601      471.545      435.329      275.588        0.612        0.059      104.316       14.467        0.019      331.521       -0.411      869.902
12/01/2013  03:46:00      -94.385      -46.801      -13.647       15.748       18.879       12.978      247.995      356.410      168.418        0.603        0.039      105.351        9.347        0.008      331.563       -0.342      869.886
12/01/2013  03:47:00      -86.435      -48.780       -9.609       17.467       19.156       15.193      305.082      366.951      230.833        0.542        0.045       99.250       10.643        0.011      331.626       -0.237      869.880
12/01/2013  03:48:00     -104.521      -52.540      -12.332       11.081       14.176       10.718      122.795      200.971      114.880        0.714        0.022      116.984        6.190        0.003      331.668       -0.168      869.875
12/01/2013  03:49:00     -110.529      -43.642      -12.732       10.567       11.964        8.115      111.651      143.147       65.855        0.730        0.016      118.833        4.624        0.002      331.716       -0.087      869.868
12/01/2013  03:50:00     -103.635      -43.314      -12.273       13.618       17.059       12.191      185.450      291.001      148.628        0.670        0.031      112.322        7.785        0.005      331.741       -0.047      869.867
12/01/2013  03:51:00      -99.116      -26.310      -10.677       14.688       11.554       10.224      215.731      133.502      104.524        0.554        0.023      102.548        6.478        0.004      331.734       -0.061      869.871
12/01/2013  03:52:00     -112.419      -25.631      -17.023       13.737        9.890        8.352      188.708       97.804       69.753        0.697        0.018      115.304        4.955        0.002      331.688       -0.133      869.871
12/01/2013  03:53:00     -100.301      -24.961      -13.340       19.878       15.963       11.320      395.122      254.815      128.137        0.582        0.039      103.360        8.484        0.007      331.714       -0.092      869.886
12/01/2013  03:54:00     -132.228      -25.652      -21.328       14.152       10.930        8.947      200.286      119.475       80.045        0.950        0.020      134.693        6.184        0.002      331.675       -0.157      869.898
12/01/2013  03:55:00     -121.900      -49.020      -10.284       15.026       12.784       11.905      225.772      163.438      141.722        0.895        0.027      131.387        5.996        0.002      331.781        0.019      869.920
12/01/2013  03:56:00     -113.182      -44.520      -11.107       14.338       17.886       11.210      205.570      319.893      125.655        0.778        0.033      121.623        8.506        0.005      331.807        0.060      869.942
12/01/2013  03:57:00      -98.352      -34.682       -4.493       16.028       18.234        8.969      256.890      332.476       80.436        0.578        0.033      104.288        8.767        0.007      331.804        0.056      869.967
12/01/2013  03:58:00      -62.092      -35.806        1.700       31.301       21.343       14.213      979.773      455.504      202.000        0.339        0.082       71.677       12.850        0.032      331.804        0.054      869.993
12/01/2013  03:59:00      -46.631      -26.503       -1.140       36.570       19.957       17.599     1337.375      398.297      309.727        0.246        0.102       53.636       15.665        0.085      331.786        0.025      870.011
12/01/2013  04:00:00      -84.561      -69.727       -2.505       37.639       27.243       16.686     1416.706      742.174      278.433        0.723        0.122      109.601       13.990        0.016      331.837        0.111      870.021
12/01/2013  04:01:00     -101.151      -65.293       -3.376       36.742       37.706       20.840     1349.940     1421.728      434.290        0.886        0.160      120.394       16.651        0.019      331.855        0.139      870.053
12/01/2013  04:02:00      -89.451      -45.052        7.091       38.435       33.228       22.546     1477.253     1104.097      508.332        0.658        0.154      100.156       21.918        0.048      331.762       -0.014      870.067
12/01/2013  04:03:00      -73.461      -45.872        1.085       37.221       35.481       18.582     1385.408     1258.927      345.293        0.525        0.149       86.607       18.339        0.045      331.817        0.077      870.071
12/01/2013  04:04:00      -45.720      -41.324        7.712       32.820       27.128       19.176     1077.182      735.914      367.720        0.302        0.109       61.628       18.856        0.094      331.864        0.155      870.068
12/01/2013  04:05:00      -69.767      -49.694       -3.462       44.846       32.492       16.784     2011.158     1055.703      281.715        0.535        0.167       85.655       17.531        0.042      331.982        0.349      870.061
12/01/2013  04:06:00      -71.405      -78.409       -5.234       19.538       39.454       16.034      381.728     1556.584      257.076        0.673        0.110      106.050        4.903        0.002      332.070        0.494      870.053
12/01/2013  04:07:00      -78.634      -66.799       -2.202       26.767       35.409       17.247      716.465     1253.825      297.453        0.646        0.113      103.177       16.995        0.027      332.081        0.512      870.039
12/01/2013  04:08:00      -95.534      -57.656       -5.861       32.355       31.262       19.401     1046.863      977.297      376.401        0.744        0.120      111.584       12.591        0.013      332.092        0.530      870.029
12/01/2013  04:09:00      -53.893      -43.275        1.823       46.424       31.436       21.617     2155.211      988.231      467.299        0.419        0.181       69.118       19.250        0.078      332.088        0.524      870.032
12/01/2013  04:10:00      -45.779      -37.592        6.581       50.517       28.843       22.374     2551.989      831.898      500.602        0.372        0.194       59.236       23.753        0.161      332.058        0.474      870.042
12/01/2013  04:11:00     -103.929      -51.988       -3.528       49.735       31.039       18.108     2473.605      963.392      327.901        0.864        0.188      116.207       21.523        0.034      331.980        0.347      870.050
12/01/2013  04:12:00     -113.444      -39.181       -0.800       25.720       20.950       17.098      661.523      438.910      292.328        0.790        0.070      120.020       16.885        0.020      331.966        0.322      870.051
12/01/2013  04:13:00      -61.076      -26.639        4.272       58.631       23.839       19.233     3437.618      568.308      369.906        0.442        0.219       66.633       27.194        0.167      331.955        0.304      870.047
12/01/2013  04:14:00      -58.371      -27.355        4.366       38.737       19.911       18.763     1500.527      396.428      352.050        0.321        0.112       64.463       17.517        0.074      331.919        0.244      870.039
12/01/2013  04:15:00      -71.930      -15.470       -4.831       23.607       17.917       13.277      557.283      321.013      176.268        0.325        0.053       73.575       10.906        0.022      331.904        0.220      870.037
12/01/2013  04:16:00      -50.384      -21.945        0.624       19.613       22.784       14.678      384.661      519.116      215.435        0.207        0.056       54.956       12.143        0.049      331.788        0.029      870.047
12/01/2013  04:17:00      -70.205      -15.685       -2.090       20.154       22.452       11.537      406.188      504.085      133.111        0.311        0.052       71.936        8.655        0.014      331.767       -0.006      870.058
12/01/2013  04:18:00      -75.587       -7.473        0.230       32.199       17.520       13.257     1036.791      306.953      175.739        0.364        0.076       75.955       14.054        0.034      331.747       -0.037      870.068
12/01/2013  04:19:00      -68.216       -5.138       -1.715       33.328       18.662       15.303     1110.739      348.261      234.167        0.319        0.085       68.409       14.507        0.045      331.713       -0.093      870.061
12/01/2013  04:20:00      -76.856       -5.787       -4.556       24.652       24.577       17.870      607.734      604.035      319.321        0.375        0.077       77.073       15.463        0.040      331.683       -0.143      870.048
12/01/2013  04:21:00      -82.535      -12.458        0.991       31.412       17.633       16.035      986.741      310.933      257.109        0.426        0.078       83.470       16.379        0.039      331.650       -0.197      870.037
12/01/2013  04:22:00      -80.954      -26.462        0.723       36.161       31.633       16.789     1307.651     1000.657      281.884        0.492        0.130       85.169       15.702        0.034      331.615       -0.256      870.037
12/01/2013  04:23:00     -104.493      -45.260       -2.087       34.089       27.470       18.256     1162.076      754.609      333.276        0.761        0.112      113.874       13.607        0.014      331.662       -0.178      870.043
12/01/2013  04:24:00     -127.560      -51.098       -8.249       23.947       22.412       13.859      573.452      502.282      192.075        1.011        0.063      137.414       11.598        0.007      331.729       -0.068      870.052
12/01/2013  04:25:00      -96.337      -21.824       -6.805       35.832       32.792       19.489     1283.911     1075.312      379.840        0.627        0.137       98.778       14.302        0.021      331.639       -0.216      870.063
12/01/2013  04:26:00     -116.662       -7.408      -14.859       29.593       29.955       14.679      875.753      897.293      215.460        0.794        0.099      116.897       10.247        0.008      331.664       -0.173      870.075
12/01/2013  04:27:00     -105.544      -14.348      -13.502       38.151       35.157       18.722     1455.535     1235.981      350.525        0.728        0.152      106.515       14.093        0.018      331.649       -0.200      870.092
12/01/2013  04:28:00     -105.100       -0.526       -9.298       30.293       37.190       24.080      917.691     1383.125      579.840        0.701        0.144      105.101       17.510        0.028      331.631       -0.231      870.094
12/01/2013  04:29:00      -89.125      -17.560       -7.275       33.676       34.219       21.507     1134.096     1170.925      462.559        0.554        0.138       90.838       20.161        0.049      331.611       -0.261      870.081
12/01/2013  04:30:00      -67.426      -17.699       -6.736       16.025       21.304       11.568      256.791      453.855      133.824        0.287        0.042       69.710        5.719        0.007      331.645       -0.204      870.054
12/01/2013  04:31:00      -50.302      -28.016      -10.260       19.083       14.981       14.880      364.165      224.438      221.400        0.212        0.041       57.578       10.869        0.036      331.662       -0.178      870.021
12/01/2013  04:32:00      -15.721      -12.158        0.076        9.452       10.689       10.125       89.347      114.253      102.512        0.035        0.015       19.874        3.327        0.028      331.658       -0.185      870.007
12/01/2013  04:33:00      -35.223       -9.554       -4.000       19.851       11.310        8.783      394.050      127.916       77.142        0.097        0.030       36.496        7.885        0.047      331.640       -0.213      870.010
12/01/2013  04:34:00      -47.050       -7.097      -19.302       16.374       13.995       12.776      268.101      195.857      163.235        0.163        0.031       47.583        5.938        0.016      331.617       -0.253      870.024
12/01/2013  04:35:00      -32.692       -9.393      -13.893       16.706       15.219        9.858      279.091      231.616       97.173        0.098        0.030       34.015        6.298        0.034      331.733       -0.061      870.044
12/01/2013  04:36:00      -49.294      -19.212      -11.187       19.465       12.664        9.172      378.885      160.377       84.132        0.177        0.031       52.905        7.450        0.020      331.833        0.103      870.068
12/01/2013  04:37:00      -61.242      -35.691       -6.250       18.452       15.087       11.396      340.469      227.623      129.878        0.288        0.035       70.883        6.913        0.010      331.642       -0.212      870.087
12/01/2013  04:38:00      -29.437      -28.271        1.658       34.083       17.382       12.056     1161.648      302.129      145.345        0.164        0.080       40.814       12.580        0.095      331.520       -0.413      870.099
12/01/2013  04:39:00        0.714      -12.547       11.684       18.803       10.989        8.949      353.556      120.760       80.082        0.042        0.028       12.567        8.834        0.494      331.562       -0.343      870.098
12/01/2013  04:40:00      -25.695       -8.378        3.085       24.392       10.634        8.360      594.957      113.073       69.883        0.076        0.039       27.026       11.087        0.168      331.579       -0.314      870.100
12/01/2013  04:41:00      -59.898       -6.744       -5.106        5.353        8.037        6.640       28.653       64.601       44.094        0.190        0.007       60.276        2.185        0.001      331.656       -0.187      870.105
12/01/2013  04:42:00      -35.456      -19.745       -2.066       19.195       11.158        6.905      368.439      124.493       47.675        0.110        0.027       40.583        4.092        0.010      331.659       -0.182      870.123
12/01/2013  04:43:00      -64.209      -18.079       -4.122       18.455       11.143        8.789      340.579      124.170       77.255        0.250        0.027       66.706        8.020        0.014      331.589       -0.301      870.127
12/01/2013  04:44:00      -76.882      -26.135       -7.326        6.493        6.814        4.191       42.158       46.431       17.564        0.338        0.005       81.202        2.653        0.001      331.615       -0.255      870.139
12/01/2013  04:45:00      -65.276      -34.019       -9.719        8.387        7.889        7.557       70.347       62.239       57.113        0.285        0.009       73.609        4.820        0.004      331.623       -0.242      870.148
12/01/2013  04:46:00      -80.917      -20.733      -11.282        5.213        4.948        4.479       27.180       24.478       20.060        0.359        0.004       83.531        2.022        0.001      331.648       -0.200      870.154
12/01/2013  04:47:00      -69.246      -23.228       -8.099       10.848       11.656       10.007      117.672      135.873      100.147        0.288        0.018       73.038        6.624        0.008      331.736       -0.056      870.164
12/01/2013  04:48:00      -59.021      -28.393       -3.450       12.802        9.878        8.602      163.879       97.572       73.996        0.232        0.017       65.495        7.618        0.014      331.741       -0.049      870.171
12/01/2013  04:49:00      -56.250      -19.389       -5.147        7.654        8.269        5.700       58.582       68.373       32.493        0.186        0.008       59.498        2.457        0.002      331.798        0.044      870.187
12/01/2013  04:50:00      -56.927      -20.075       -5.145       10.367        8.992        6.988      107.469       80.865       48.827        0.195        0.012       60.363        5.519        0.008      331.843        0.121      870.207
12/01/2013  04:51:00      -65.997      -24.285       -5.030        8.793        8.194        6.882       77.322       67.147       47.362        0.258        0.010       70.323        3.848        0.003      331.817        0.076      870.222
12/01/2013  04:52:00      -80.642      -26.693      -10.935       11.216        8.329        6.467      125.806       69.372       41.816        0.379        0.012       84.945        3.932        0.002      331.830        0.098      870.236
12/01/2013  04:53:00      -75.345      -20.883      -10.295       11.195        8.770        7.145      125.336       76.914       51.051        0.324        0.013       78.186        5.095        0.004      331.831        0.101      870.246
12/01/2013  04:54:00      -56.817      -15.737      -10.629        7.400        7.012        5.875       54.756       49.163       34.518        0.186        0.007       58.956        2.939        0.002      331.872        0.167      870.259
12/01/2013  04:55:00      -51.066      -24.463       -6.880        5.918        5.026        5.475       35.025       25.260       29.974        0.167        0.005       56.623        3.072        0.003      331.910        0.231      870.272
12/01/2013  04:56:00      -66.845      -23.320      -10.972       11.443        5.482        5.148      130.945       30.053       26.503        0.266        0.009       70.796        3.283        0.002      331.865        0.156      870.305
12/01/2013  04:57:00      -85.013      -24.802      -10.351        6.912        8.039        5.687       47.773       64.631       32.337        0.405        0.007       88.557        2.381        0.001      331.736       -0.055      870.337
12/01/2013  04:58:00      -79.471      -22.000       -6.611       11.124        9.734        6.840      123.742       94.755       46.780        0.355        0.013       82.460        5.587        0.005      331.628       -0.235      870.379
12/01/2013  04:59:00      -76.601      -21.665       -2.653       25.545       15.139        9.865      652.540      229.180       97.326        0.366        0.049       79.606        5.855        0.005      331.537       -0.385      870.401
12/01/2013  05:00:00     -118.350      -11.161      -11.707       23.534       13.086       12.380      553.835      171.245      153.260        0.757        0.044      118.875       10.949        0.008      331.445       -0.535      870.415
12/01/2013  05:01:00     -102.828      -18.430       -6.166       29.289       16.646       14.806      857.827      277.082      219.217        0.615        0.068      104.467       13.486        0.017      331.364       -0.668      870.423
12/01/2013  05:02:00      -86.249      -16.491        0.620       39.224       20.005       13.260     1538.515      400.192      175.833        0.491        0.106       87.811       17.051        0.038      331.360       -0.675      870.428
12/01/2013  05:03:00      -52.580      -14.303       -1.387       22.702       14.505        9.286      515.391      210.409       86.237        0.189        0.041       54.491        7.065        0.017      331.334       -0.719      870.442
12/01/2013  05:04:00      -67.353       -4.164       -1.761       20.666       12.317       12.154      427.092      151.699      147.711        0.264        0.036       67.482       12.020        0.032      331.413       -0.588      870.461
12/01/2013  05:05:00      -48.029      -11.323       -3.131       22.407       11.467       10.272      502.083      131.487      105.515        0.159        0.037       49.346       11.218        0.052      331.455       -0.519      870.482
12/01/2013  05:06:00      -44.428       -4.905       -4.837       16.475        9.517        7.612      271.417       90.571       57.947        0.122        0.021       44.698        5.364        0.014      331.411       -0.593      870.506
12/01/2013  05:07:00      -43.346      -13.466       -1.755        9.795        8.795        6.674       95.940       77.345       44.543        0.114        0.011       45.390        5.952        0.017      331.473       -0.490      870.531
12/01/2013  05:08:00      -26.112      -20.353       -1.778       21.946       10.599        8.245      481.640      112.342       67.987        0.088        0.033       33.107        8.641        0.068      331.501       -0.443      870.551
12/01/2013  05:09:00      -21.821      -11.988        4.130       10.598        7.227        6.972      112.310       52.223       48.604        0.042        0.011       24.897        3.958        0.025      331.515       -0.422      870.568
12/01/2013  05:10:00      -13.294       -7.386       -1.944        6.006        7.006        7.157       36.078       49.082       51.224        0.019        0.007       15.208        5.379        0.125      331.491       -0.458      870.584
12/01/2013  05:11:00        0.893        6.670        0.270        6.734        2.915        6.523       45.342        8.499       42.543        0.007        0.005        6.730        5.693        0.716      331.457       -0.517      870.590
12/01/2013  05:12:00       19.990       16.437        2.353        8.221        9.161        6.414       67.578       83.927       41.145        0.043        0.010       25.880        4.050        0.024      331.486       -0.469      870.589
12/01/2013  05:13:00       43.370       23.163        1.054        7.465        4.943        5.199       55.722       24.431       27.025        0.126        0.005       49.168        3.207        0.004      331.539       -0.382      870.584
12/01/2013  05:14:00       40.270       11.405        0.736        7.561        6.382        4.047       57.167       40.731       16.380        0.093        0.006       41.854        2.691        0.004      331.636       -0.218      870.594
12/01/2013  05:15:00       21.905       -2.104        2.926        9.662       10.986        5.038       93.358      120.688       25.379        0.037        0.012       22.005        3.118        0.020      331.731       -0.065      870.599
12/01/2013  05:16:00       13.502      -12.964        6.043       18.995       11.390        8.941      360.824      129.734       79.950        0.048        0.029       18.718        6.816        0.133      331.886        0.190      870.617
12/01/2013  05:17:00       -6.667       -4.668        4.747        9.682       12.885        8.822       93.734      166.031       77.827        0.021        0.017        8.138        4.059        0.249      331.678       -0.151      870.636
12/01/2013  05:18:00       22.008       16.503       10.439       13.556        8.289        7.395      183.760       68.713       54.687        0.059        0.015       27.508        5.866        0.045      331.747       -0.038      870.656
12/01/2013  05:19:00       47.931       17.929        6.983        9.843       12.045        8.957       96.892      145.080       80.221        0.149        0.016       51.175        6.377        0.016      331.844        0.121      870.662
12/01/2013  05:20:00       55.010       29.762        4.669        8.237        8.952        6.831       67.850       80.140       46.669        0.206        0.010       62.546        4.325        0.005      331.805        0.056      870.675
12/01/2013  05:21:00       40.541        5.964        6.289       16.708       11.693        8.145      279.157      136.716       66.340        0.110        0.024       40.977        7.326        0.032      331.757       -0.022      870.685
12/01/2013  05:22:00       20.132        5.798       11.805       14.303        9.727        9.912      204.571       94.617       98.250        0.049        0.020       20.950        7.484        0.128      331.708       -0.102      870.708
12/01/2013  05:23:00        7.534        1.327       12.156        8.649        9.478        9.638       74.798       89.832       92.897        0.023        0.013        7.650        7.249        0.898      331.661       -0.179      870.723
12/01/2013  05:24:00       13.963       16.752       25.897       14.683       12.760       13.377      215.581      162.814      178.940        0.085        0.028       21.808       10.973        0.253      331.629       -0.233      870.720
12/01/2013  05:25:00        8.325       25.249       34.015       16.624       18.265       11.900      276.360      333.625      141.608        0.131        0.038       26.586       10.350        0.152      331.643       -0.210      870.707
12/01/2013  05:26:00       28.076       -8.885       15.006       26.097       25.128       19.137      681.039      631.400      366.241        0.139        0.084       29.449       19.143        0.423      331.721       -0.081      870.692
12/01/2013  05:27:00       35.074      -32.248        7.883       20.004       30.382       15.762      400.154      923.044      248.437        0.195        0.079       47.646        9.340        0.038      331.791        0.033      870.684
12/01/2013  05:28:00        9.718      -18.892       14.339       12.581       27.469       16.666      158.281      754.556      277.762        0.092        0.060       21.244       10.190        0.230      331.761       -0.017      870.689
12/01/2013  05:29:00       -3.574      -33.281       21.389       15.461       36.575       21.970      239.028     1337.745      482.676        0.182        0.103       33.472       16.105        0.231      331.816        0.076      870.700
12/01/2013  05:30:00      -21.219       -7.588        6.134       15.649       10.786       11.398      244.877      116.333      129.919        0.052        0.025       22.534        9.782        0.188      331.567       -0.335      870.710
12/01/2013  05:31:00       -9.442       -6.403       11.347       11.328       10.308        7.495      128.328      106.248       56.172        0.027        0.015       11.409        8.304        0.530      331.441       -0.544      870.724
12/01/2013  05:32:00      -31.108      -21.763       -0.565       14.814       11.345        8.187      219.468      128.699       67.022        0.093        0.021       37.964        4.197        0.012      331.472       -0.490      870.726
12/01/2013  05:33:00      -24.392      -28.307        1.237       16.442       13.409        9.138      270.344      179.794       83.510        0.097        0.027       37.366        6.743        0.033      331.482       -0.475      870.728
12/01/2013  05:34:00      -23.203      -16.001       -1.474        8.524        5.978        9.290       72.659       35.737       86.301        0.050        0.010       28.185        6.408        0.052      331.438       -0.550      870.749
12/01/2013  05:35:00      -46.073      -12.508       -2.851        6.806        6.673        5.552       46.328       44.531       30.826        0.120        0.006       47.741        2.493        0.003      331.420       -0.578      870.763
12/01/2013  05:36:00      -38.577      -10.064       -5.122       11.662        6.018        5.485      135.995       36.221       30.083        0.091        0.010       39.868        4.336        0.012      331.424       -0.572      870.771
12/01/2013  05:37:00      -43.340        1.234       -8.140        5.921        4.557        6.544       35.058       20.769       42.818        0.102        0.005       43.357        3.658        0.007      331.461       -0.510      870.775
12/01/2013  05:38:00      -24.621        4.080        2.651        8.588        3.758        4.830       73.746       14.126       23.327        0.037        0.006       24.957        3.578        0.021      331.455       -0.519      870.769
12/01/2013  05:39:00      -10.473       -4.392       -4.480        8.100        9.392        6.513       65.612       88.216       42.420        0.017        0.010       11.357        6.049        0.284      331.502       -0.442      870.765
12/01/2013  05:40:00       14.752        1.470        3.158       14.063       13.043        9.034      197.769      170.130       81.610        0.034        0.022       14.825        7.073        0.228      331.657       -0.185      870.766
12/01/2013  05:41:00        7.325      -14.983        4.365       11.806       16.723       10.851      139.389      279.662      117.740        0.042        0.027       16.678       12.177        0.533      331.679       -0.149      870.775
12/01/2013  05:42:00        2.605       -7.109       10.020        8.703       16.040        6.807       75.749      257.284       46.333        0.027        0.019        7.571        7.692        1.032      331.597       -0.285      870.783
12/01/2013  05:43:00        0.610      -20.085        0.845        5.707       10.298       10.351       32.572      106.049      107.149        0.033        0.012       20.094        7.598        0.143      331.646       -0.205      870.803
12/01/2013  05:44:00      -24.253       -4.796        0.244       11.714        6.314        7.791      137.223       39.864       60.698        0.042        0.012       24.723        6.266        0.064      331.432       -0.557      870.810
12/01/2013  05:45:00      -38.482      -10.458       -9.342        5.692        7.567        5.147       32.398       57.257       26.496        0.090        0.006       39.878        1.991        0.002      331.392       -0.624      870.837
12/01/2013  05:46:00      -49.137      -23.202      -10.055       10.575        9.524        7.097      111.825       90.715       50.361        0.165        0.013       54.340        2.314        0.002      331.416       -0.585      870.867
12/01/2013  05:47:00      -59.364      -20.421       -9.843       10.455       10.350        9.249      109.297      107.130       85.539        0.217        0.015       62.779        5.065        0.007      331.280       -0.808      870.890
12/01/2013  05:48:00      -51.496      -24.586      -10.619       16.679       10.154        8.425      278.173      103.103       70.975        0.191        0.023       57.064        8.342        0.021      331.188       -0.958      870.892
12/01/2013  05:49:00      -48.057      -16.082       -8.574       18.376       11.364        7.884      337.686      129.133       62.152        0.159        0.026       50.677        5.686        0.013      331.203       -0.935      870.883
12/01/2013  05:50:00      -40.665       -5.080       -3.381       18.062       13.794       11.630      326.236      190.279      135.262        0.117        0.033       40.981        9.594        0.055      331.151       -1.019      870.881
12/01/2013  05:51:00      -39.137        0.806       -7.889       14.157        9.560        9.643      200.433       91.395       92.984        0.099        0.019       39.145        6.617        0.029      331.192       -0.951      870.890
12/01/2013  05:52:00      -50.592      -22.054       -8.941        7.257       13.666        7.420       52.666      186.751       55.059        0.171        0.015       55.190        5.420        0.010      331.186       -0.963      870.914
12/01/2013  05:53:00      -69.233      -37.942       -5.642       17.939       17.493       13.296      321.819      306.018      176.790        0.353        0.040       78.948        6.389        0.007      331.099       -1.106      870.947
12/01/2013  05:54:00      -87.628      -40.558       -1.530       24.225       27.142       18.966      586.862      736.698      359.708        0.550        0.084       96.559       15.347        0.025      331.059       -1.171      870.963
12/01/2013  05:55:00      -65.339      -11.333      -10.320       24.679       27.576       14.236      609.050      760.413      202.671        0.304        0.079       66.314       12.179        0.034      331.063       -1.165      870.971
12/01/2013  05:56:00      -79.027        4.797      -17.584       29.972       21.181       14.585      898.326      448.645      212.710        0.407        0.078       79.172        8.861        0.013      331.080       -1.136      870.974
12/01/2013  05:57:00     -110.413       -0.081      -11.275       39.642       25.715       18.065     1571.469      661.274      326.339        0.744        0.128      110.413       15.624        0.020      331.151       -1.018      870.969
12/01/2013  05:58:00      -83.119      -12.120      -12.346       27.552       36.910       14.481      759.086     1362.372      209.702        0.477        0.117       83.998       10.579        0.016      331.197       -0.941      870.958
12/01/2013  05:59:00      -34.817      -12.702       -3.309       27.158       26.380       18.803      737.541      695.889      353.548        0.159        0.089       37.062       17.463        0.222      331.124       -1.064      870.943
12/01/2013  06:00:00      -73.365       -3.169       -8.759       38.942       25.639       19.470     1516.453      657.334      379.066        0.401        0.128       73.433       19.869        0.073      331.138       -1.040      870.923
12/01/2013  06:01:00     -106.321       16.985       -7.351       36.244       23.881       16.048     1313.600      570.286      257.536        0.689        0.107      107.670        7.582        0.005      331.120       -1.070      870.903
12/01/2013  06:02:00     -117.706       15.548      -19.640       33.209       28.761       17.953     1102.849      827.180      322.319        0.837        0.113      118.728        9.437        0.006      331.154       -1.013      870.899
12/01/2013  06:03:00      -99.033       31.737       -4.917       33.938       26.161       23.083     1151.793      684.423      532.815        0.660        0.118      103.994       13.764        0.018      331.145       -1.029      870.892
12/01/2013  06:04:00     -106.575       35.390       -4.019       35.991       20.440       18.008     1295.368      417.783      324.283        0.733        0.102      112.297       11.749        0.011      331.209       -0.923      870.886
12/01/2013  06:05:00      -89.601       23.451       -9.478       21.723       21.997       13.932      471.893      483.874      194.103        0.491        0.057       92.620       10.712        0.013      331.254       -0.848      870.888
12/01/2013  06:06:00      -95.844       19.642       -9.011       22.249       20.487       14.185      494.997      419.706      201.212        0.538        0.056       97.836       10.952        0.013      331.318       -0.745      870.898
12/01/2013  06:07:00      -96.090       16.040       -9.596       21.320       23.312       13.295      454.524      543.427      176.747        0.538        0.059       97.419        8.536        0.008      331.337       -0.712      870.913
12/01/2013  06:08:00      -74.620       10.668       -4.087       38.749       23.078       14.299     1501.451      532.597      204.467        0.397        0.112       75.378       15.824        0.044      331.327       -0.730      870.936
12/01/2013  06:09:00      -46.472       -1.499       -5.466       10.707       14.553        9.405      114.635      211.784       88.445        0.130        0.021       46.497        3.532        0.006      331.354       -0.686      870.954
12/01/2013  06:10:00      -52.421      -20.790       -1.888       12.113       13.712       11.342      146.729      188.009      128.633        0.182        0.023       56.394        5.654        0.010      331.236       -0.878      870.973
12/01/2013  06:11:00      -63.724       -7.392      -12.470       10.725       11.211        9.168      115.020      125.697       84.044        0.230        0.016       64.151        4.341        0.005      331.106       -1.091      870.991
12/01/2013  06:12:00      -19.390      -17.464       -3.294       16.480       11.910       10.206      271.584      141.841      104.164        0.060        0.026       26.095        8.893        0.116      331.226       -0.893      870.997
12/01/2013  06:13:00        7.622      -30.880       -4.653        7.986       12.321        8.559       63.780      151.811       73.252        0.066        0.014       31.807        7.247        0.052      331.270       -0.824      871.009
12/01/2013  06:14:00        1.504      -33.999       -9.206        8.025       14.776        6.664       64.402      218.335       44.411        0.078        0.016       34.032        3.767        0.012      331.261       -0.837      871.007
12/01/2013  06:15:00       -0.247      -25.578       -1.170       11.424       13.475       10.868      130.513      181.588      118.119        0.054        0.022       25.580        7.160        0.078      331.307       -0.761      871.010
12/01/2013  06:16:00      -42.696      -16.951       -8.692       17.325        9.664        7.762      300.146       93.387       60.243        0.132        0.023       45.938        7.697        0.028      331.161       -1.002      871.010
12/01/2013  06:17:00      -51.730      -16.387       -4.017       13.966       10.210        8.984      195.044      104.249       80.710        0.167        0.019       54.263        6.076        0.013      331.136       -1.045      871.012
12/01/2013  06:18:00      -50.040        1.700       -7.328        9.842        7.469        6.230       96.867       55.786       38.815        0.138        0.010       50.069        4.553        0.008      331.101       -1.102      871.019
12/01/2013  06:19:00      -29.909       -1.385       -6.344       10.449        5.117        3.766      109.176       26.182       14.183        0.054        0.007       29.941        2.587        0.007      331.259       -0.842      871.030
12/01/2013  06:20:00      -13.687       -7.010       -6.262        9.212        5.589        5.501       84.866       31.239       30.263        0.021        0.007       15.378        3.109        0.041      331.214       -0.914      871.059
12/01/2013  06:21:00      -31.131       -8.700       -8.214        8.703        9.032        5.430       75.747       81.582       29.490        0.065        0.009       32.324        2.445        0.006      331.249       -0.858      871.094
12/01/2013  06:22:00      -12.643      -17.729       -1.896        9.498       13.615        7.334       90.213      185.373       53.788        0.040        0.016       21.775        4.735        0.047      331.333       -0.719      871.115
12/01/2013  06:23:00      -12.136       -7.381       -7.401       10.789       16.036       10.851      116.405      257.154      117.738        0.037        0.025       14.204       12.161        0.733      331.361       -0.674      871.134
12/01/2013  06:24:00        0.308        9.653        1.075       14.152       10.078       11.095      200.284      101.562      123.094        0.026        0.021        9.658        4.834        0.251      331.499       -0.446      871.144
12/01/2013  06:25:00       12.006       31.375       -5.923       23.566       23.857       10.648      555.355      569.151      113.373        0.120        0.062       33.593       11.769        0.123      331.620       -0.246      871.165
12/01/2013  06:26:00        6.915       28.779       -2.267       21.399       17.873       13.698      457.923      319.438      187.625        0.092        0.048       29.598       11.107        0.141      331.637       -0.220      871.186
12/01/2013  06:27:00       -2.437       53.311       -5.674       20.614       32.739       13.471      424.939     1071.852      181.466        0.228        0.084       53.367       15.904        0.089      331.634       -0.223      871.207
12/01/2013  06:28:00      -13.767       -5.925        1.770       11.023       10.640        7.681      121.501      113.200       58.992        0.026        0.015       14.988        5.875        0.154      331.441       -0.542      871.221
12/01/2013  06:29:00        3.552       -0.600        4.516       15.489        8.396       11.720      239.899       70.491      137.362        0.024        0.022        3.602       12.138       11.352      331.451       -0.526      871.230
12/01/2013  06:30:00       18.346       25.779        3.877       15.652       14.825       11.946      244.983      219.786      142.710        0.081        0.030       31.640        6.724        0.045      331.611       -0.261      871.239
12/01/2013  06:31:00       32.497       23.725        3.227       18.360       13.189       10.987      337.087      173.960      120.724        0.113        0.032       40.236       12.168        0.091      331.492       -0.457      871.254
12/01/2013  06:32:00       20.289       13.662        3.256        9.430       10.843        6.596       88.920      117.565       43.510        0.043        0.012       24.459        5.744        0.055      331.422       -0.574      871.268
12/01/2013  06:33:00       24.252        5.449        0.105        7.635        5.393        3.987       58.290       29.083       15.900        0.036        0.005       24.856        1.624        0.004      331.466       -0.502      871.283
12/01/2013  06:34:00        7.768        2.316       -2.416        6.564        4.486        2.821       43.086       20.126        7.958        0.007        0.004        8.106        2.238        0.076      331.479       -0.480      871.281
12/01/2013  06:35:00      -13.470        1.188       -2.400       10.225        4.599        3.189      104.555       21.153       10.168        0.016        0.007       13.522        4.236        0.098      331.455       -0.520      871.275
12/01/2013  06:36:00      -34.007      -17.063       -8.760       10.393        6.732        6.371      108.011       45.314       40.590        0.086        0.010       38.048        3.533        0.009      331.242       -0.868      871.270
12/01/2013  06:37:00      -55.670      -19.668       -9.394        8.200        6.224        6.111       67.248       38.736       37.342        0.186        0.007       59.042        3.402        0.003      331.107       -1.091      871.270
12/01/2013  06:38:00      -61.380      -14.196       -9.337       14.562        8.570        9.783      212.052       73.447       95.704        0.222        0.019       63.000        6.981        0.012      331.030       -1.217      871.272
12/01/2013  06:39:00     -106.611       -5.883      -13.709       19.018       11.025        8.019      361.703      121.551       64.309        0.607        0.027      106.774        8.244        0.006      331.012       -1.247      871.274
12/01/2013  06:40:00     -136.612        4.047      -18.362       34.029       18.553       20.051     1157.954      344.199      402.042        1.046        0.095      136.672       19.532        0.020      330.865       -1.488      871.285
12/01/2013  06:41:00      -92.193       -3.493       -1.181       39.896       36.785       25.282     1591.691     1353.165      639.163        0.605        0.179       92.259       21.531        0.054      330.767       -1.650      871.287
12/01/2013  06:42:00      -85.061      -13.948        1.360       51.717       42.884       25.031     2674.689     1839.065      626.535        0.628        0.257       86.197       25.618        0.088      330.742       -1.691      871.282
12/01/2013  06:43:00      -95.960      -27.752       -3.887       34.760       35.625       22.066     1208.244     1269.109      486.921        0.648        0.148       99.892       19.310        0.037      330.763       -1.657      871.265
12/01/2013  06:44:00     -115.946      -23.987      -10.289       34.907       51.932       22.580     1218.464     2696.970      509.877        0.927        0.221      118.401       21.787        0.034      330.738       -1.698      871.242
12/01/2013  06:45:00     -121.428       -5.728      -14.216       47.617       23.925       24.257     2267.374      572.386      588.412        0.920        0.171      121.563       23.296        0.037      330.740       -1.693      871.215
12/01/2013  06:46:00     -144.650        1.925      -17.178       35.694       33.650       20.126     1274.057     1132.290      405.051        1.202        0.141      144.663       15.209        0.011      330.764       -1.655      871.187
12/01/2013  06:47:00     -125.010       -5.222      -16.788       34.931       26.971       18.699     1220.177      727.457      349.641        0.912        0.115      125.119       17.474        0.020      330.787       -1.617      871.154
12/01/2013  06:48:00     -129.282      -20.827       -4.767       32.533       24.942       23.301     1058.405      622.126      542.940        0.970        0.111      130.949       22.645        0.030      330.775       -1.638      871.120
12/01/2013  06:49:00     -133.963      -32.774      -14.359       26.065       19.473       21.437      679.376      379.192      459.553        1.037        0.076      137.914       18.844        0.019      330.814       -1.571      871.088
12/01/2013  06:50:00     -117.103       -9.423       -9.769       35.102       21.326       20.323     1232.133      454.803      413.039        0.800        0.105      117.482       21.999        0.035      330.820       -1.563      871.061
12/01/2013  06:51:00     -131.919      -18.392      -15.682       20.910       18.802       14.309      437.219      353.507      204.739        0.949        0.050      133.195        8.817        0.004      330.805       -1.588      871.055
12/01/2013  06:52:00     -113.047      -22.963       -7.860       29.630       24.987       16.587      877.931      624.341      275.114        0.757        0.089      115.356       18.145        0.025      330.831       -1.544      871.075
12/01/2013  06:53:00     -122.059      -29.176      -13.930       28.453       26.960       16.561      809.559      726.823      274.276        0.888        0.091      125.498       13.116        0.011      330.811       -1.579      871.101
12/01/2013  06:54:00     -112.373      -32.409       -4.724       36.544       29.601       21.413     1335.496      876.248      458.512        0.818        0.134      116.953       18.133        0.024      330.833       -1.541      871.117
12/01/2013  06:55:00      -78.157      -25.538        2.926       38.862       40.179       24.462     1510.243     1614.341      598.395        0.525        0.186       82.223       19.522        0.056      330.841       -1.527      871.135
12/01/2013  06:56:00      -75.750      -33.963        0.715       31.475       31.611       18.695      990.699      999.266      349.491        0.462        0.117       83.015       14.637        0.031      330.923       -1.394      871.150
12/01/2013  06:57:00      -69.678      -29.311       -3.435       25.595       24.650       14.723      655.118      607.627      216.781        0.360        0.074       75.592       11.978        0.025      330.936       -1.370      871.138
12/01/2013  06:58:00     -110.105      -31.205      -12.442       27.612       28.263       16.146      762.400      798.797      260.678        0.754        0.091      114.441       13.918        0.015      330.923       -1.393      871.136
12/01/2013  06:59:00      -95.553      -13.239      -11.562       39.850       30.373       20.597     1588.012      922.507      424.247        0.619        0.147       96.466       18.939        0.039      330.910       -1.414      871.138
12/01/2013  07:00:00      -95.642       12.635      -21.849       32.196       34.555       19.595     1036.613     1194.049      383.961        0.620        0.131       96.473        9.202        0.009      330.956       -1.339      871.152
12/01/2013  07:01:00     -131.406       19.434      -16.139       36.727       35.283       24.518     1348.860     1244.907      601.114        1.055        0.160      132.835       17.793        0.018      330.908       -1.417      871.175
12/01/2013  07:02:00      -82.419        7.078      -12.462       48.435       34.563       21.193     2345.963     1194.633      449.148        0.549        0.199       82.722       10.332        0.016      330.858       -1.499      871.205
12/01/2013  07:03:00     -131.120       16.965      -19.483       32.406       27.943       19.379     1050.121      780.795      375.538        1.003        0.110      132.213       12.337        0.009      330.896       -1.438      871.238
12/01/2013  07:04:00     -108.756       16.131      -11.853       32.960       31.475       18.179     1086.332      990.673      330.489        0.732        0.120      109.946       17.053        0.024      330.900       -1.431      871.258
12/01/2013  07:05:00      -90.380        2.252       -8.957       32.948       25.831       19.667     1085.553      667.264      386.784        0.520        0.107       90.408       19.408        0.046      330.902       -1.426      871.261
12/01/2013  07:06:00      -53.612      -26.489       -9.733       26.897       16.117       13.298      723.432      259.771      176.825        0.242        0.058       59.799        9.696        0.026      330.936       -1.371      871.250
12/01/2013  07:07:00      -42.598      -17.417        0.325       22.459       20.179       23.090      504.396      407.176      533.131        0.178        0.072       46.021       16.240        0.125      330.947       -1.355      871.251
12/01/2013  07:08:00      -33.610      -19.529        2.475       17.932       15.164       12.657      321.558      229.933      160.211        0.111        0.036       38.872        6.043        0.024      330.925       -1.390      871.273
12/01/2013  07:09:00      -52.811        4.287       -5.959       25.132       19.967       11.819      631.606      398.673      139.697        0.201        0.058       52.984        7.774        0.022      331.006       -1.258      871.297
12/01/2013  07:10:00      -58.932       38.717       -4.036       27.116       28.115       22.228      735.256      790.460      494.103        0.350        0.101       70.512       18.077        0.066      331.283       -0.801      871.311
12/01/2013  07:11:00      -71.813       46.085      -13.360       28.608       30.126       16.494      818.416      907.579      272.053        0.473        0.100       85.328       17.090        0.040      331.390       -0.625      871.323
12/01/2013  07:12:00      -63.275       43.544       -3.168       22.867       28.209       16.433      522.898      795.741      270.032        0.375        0.079       76.810       16.795        0.048      331.476       -0.485      871.313
12/01/2013  07:13:00      -74.589       31.002       -5.881       23.128       18.796       15.796      534.912      353.287      249.515        0.385        0.057       80.776       11.747        0.021      331.467       -0.499      871.313
12/01/2013  07:14:00      -82.838       40.689       -9.858       25.581       23.377       18.115      654.378      546.495      328.143        0.507        0.076       92.292        7.747        0.007      331.640       -0.214      871.318
12/01/2013  07:15:00      -70.750       36.756       -9.061       24.453       29.393       18.345      597.938      863.968      336.549        0.412        0.090       79.728       12.680        0.025      331.669       -0.166      871.323
12/01/2013  07:16:00      -81.004       60.173      -15.985       21.764       35.741       16.595      473.676     1277.386      275.380        0.623        0.101      100.909       18.111        0.032      331.835        0.107      871.333
12/01/2013  07:17:00      -71.700       36.593      -12.266       21.606       30.040       11.789      466.814      902.401      138.985        0.407        0.075       80.498        7.415        0.008      331.545       -0.370      871.342
12/01/2013  07:18:00      -76.666        9.496      -12.290       14.862       14.072        8.804      220.881      198.020       77.503        0.331        0.025       77.251        6.767        0.008      331.207       -0.926      871.365
12/01/2013  07:19:00      -43.669        0.726       -9.388       20.381        9.116       10.520      415.370       83.095      110.665        0.130        0.030       43.675       13.318        0.093      331.317       -0.746      871.381
12/01/2013  07:20:00       -8.230       29.758       -2.486       29.689       24.598       11.797      881.432      605.072      139.176        0.129        0.081       30.876        6.798        0.048      331.652       -0.194      871.387
12/01/2013  07:21:00        1.029       -4.679        2.453        8.126       10.807        6.414       66.032      116.792       41.134        0.013        0.011        4.791        5.392        1.267      331.581       -0.313      871.394
12/01/2013  07:22:00        2.692      -33.470       -1.549        7.950        9.651        8.171       63.210       93.138       66.769        0.068        0.011       33.578        4.889        0.021      331.381       -0.640      871.411
12/01/2013  07:23:00        1.508      -14.321        0.615        6.929       11.597        7.310       48.013      134.495       53.433        0.022        0.012       14.400        6.750        0.220      331.432       -0.557      871.432
12/01/2013  07:24:00        2.312       -3.481        4.880        3.638        5.600        6.898       13.233       31.360       47.589        0.007        0.005        4.179        5.389        1.663      331.628       -0.234      871.439
12/01/2013  07:25:00      -24.689      -17.058       -7.897       18.090        9.062        6.761      327.255       82.118       45.708        0.071        0.023       30.009        9.888        0.109      331.445       -0.536      871.441
12/01/2013  07:26:00      -30.218      -38.036       10.281       10.475       14.988       15.548      109.734      224.642      241.742        0.152        0.029       48.579        6.416        0.017      331.482       -0.474      871.444
12/01/2013  07:27:00       -0.059       -1.007       -4.196       10.083        8.621        6.423      101.675       74.318       41.252        0.012        0.011        1.009        2.927        8.421      331.754       -0.027      871.463
12/01/2013  07:28:00       -0.126       -1.049        3.405        6.367        6.775        5.754       40.543       45.901       33.105        0.007        0.006        1.056        4.304       16.606      331.778        0.013      871.498
12/01/2013  07:29:00        0.526        6.023       -0.803        7.909        8.830        6.646       62.552       77.963       44.175        0.011        0.009        6.046        5.548        0.842      331.810        0.065      871.534
12/01/2013  07:30:00      -30.345      -17.308       -3.705       15.289       12.077       15.043      233.762      145.853      226.294        0.092        0.030       34.934       10.208        0.085      331.374       -0.652      871.569
12/01/2013  07:31:00      -65.627      -33.128       -7.685       19.100       10.725        7.536      364.799      115.032       56.784        0.300        0.027       73.514        3.333        0.002      331.172       -0.984      871.582
12/01/2013  07:32:00      -55.403      -34.079       -5.630       29.945       22.607       16.014      896.701      511.084      256.452        0.296        0.083       65.046        8.724        0.018      331.271       -0.821      871.595
12/01/2013  07:33:00      -55.176      -29.860        2.240       14.245       19.932       12.608      202.931      397.274      158.958        0.235        0.038       62.738        8.563        0.019      331.519       -0.413      871.614
12/01/2013  07:34:00      -35.996      -19.926        6.798       21.814       17.787        8.716      475.861      316.366       75.975        0.130        0.043       41.143        4.434        0.012      331.492       -0.459      871.607
12/01/2013  07:35:00      -23.974       -5.244        0.934       12.756       13.787        9.792      162.717      190.093       95.884        0.053        0.022       24.541        7.017        0.082      331.549       -0.365      871.602
12/01/2013  07:36:00      -16.918      -13.554       -0.528       18.541       15.593       10.365      343.780      243.140      107.427        0.058        0.035       21.679        8.516        0.154      331.555       -0.355      871.591
12/01/2013  07:37:00      -69.058      -26.232        4.947       56.656       35.160       20.159     3209.859     1236.210      406.366        0.517        0.243       73.872       24.885        0.113      331.502       -0.441      871.601
12/01/2013  07:38:00      -35.138      -24.340        5.810       25.122       24.293       20.082      631.096      590.127      403.300        0.174        0.081       42.745       15.636        0.134      331.527       -0.399      871.633
12/01/2013  07:39:00      -74.166      -77.805        3.836       50.020       45.100       27.183     2502.016     2034.010      738.907        0.842        0.264      107.490       27.911        0.067      331.461       -0.510      871.687
12/01/2013  07:40:00      -94.311     -104.394       -3.641       45.812       31.755       24.418     2098.697     1008.373      596.260        1.175        0.185      140.686       24.038        0.029      331.371       -0.657      871.726
12/01/2013  07:41:00      -76.953      -93.987      -10.397       26.551       33.719       20.306      704.963     1136.993      412.334        0.856        0.113      121.472       16.609        0.019      331.402       -0.606      871.758
12/01/2013  07:42:00      -96.634      -92.665       -8.474       29.006       26.730       23.432      841.357      714.489      549.061        1.005        0.105      133.884       19.390        0.021      331.433       -0.556      871.778
12/01/2013  07:43:00      -30.585      -58.245       11.549       32.430       34.452       20.511     1051.730     1186.921      420.682        0.356        0.133       65.787       25.210        0.147      331.502       -0.442      871.807
12/01/2013  07:44:00      -65.801      -54.399      -11.282       24.166       29.550       15.743      584.019      873.228      247.833        0.456        0.085       85.375       13.149        0.024      331.531       -0.394      871.825
12/01/2013  07:45:00      -34.817      -44.193       -1.498       25.333       33.612       18.996      641.779     1129.781      360.842        0.265        0.107       56.260       15.945        0.080      331.583       -0.308      871.833
12/01/2013  07:46:00      -20.585      -34.486        6.113       19.637       21.893       14.271      385.602      479.294      203.653        0.136        0.053       40.162       12.077        0.090      331.633       -0.226      871.839
12/01/2013  07:47:00      -35.032      -15.215       -2.673       33.013       37.771       20.857     1089.864     1426.628      435.013        0.221        0.148       38.194       20.556        0.290      331.663       -0.176      871.853
12/01/2013  07:48:00        2.231        9.111        9.021       17.142       22.532       17.222      293.838      507.687      296.604        0.063        0.055        9.380        9.913        1.117      331.861        0.150      871.874
12/01/2013  07:49:00       -8.220      -10.766       28.947       23.196       41.570       21.080      538.032     1728.048      444.375        0.187        0.136       13.545       22.540        2.769      331.973        0.335      871.902
12/01/2013  07:50:00       -4.657       -8.857       28.733       12.794       25.971       20.172      163.687      674.498      406.924        0.109        0.062       10.007       17.604        3.095      332.136        0.602      871.927
12/01/2013  07:51:00      -10.879       11.366       43.958       13.092       17.771       12.757      171.396      315.811      162.741        0.141        0.032       15.733       11.510        0.535      332.200        0.709      871.976
12/01/2013  07:52:00       -4.329       13.485       39.231        5.666       16.189       11.038       32.101      262.079      121.835        0.108        0.021       14.162       11.463        0.655      332.217        0.735      872.003
12/01/2013  07:53:00        9.774       14.468       23.414       14.914       13.799       10.697      222.424      190.420      114.424        0.069        0.026       17.460        9.421        0.291      332.179        0.673      872.010
12/01/2013  07:54:00        4.827       17.115       26.496       15.031       19.628       16.735      225.931      385.276      280.073        0.095        0.045       17.782       11.850        0.444      332.221        0.741      871.997
12/01/2013  07:55:00       13.478       32.117       47.049       22.929       19.239        9.127      525.746      370.140       83.303        0.220        0.049       34.830        5.966        0.029      332.129        0.590      871.986
12/01/2013  07:56:00       50.231       40.849       31.589       24.384       17.097       16.571      594.590      292.298      274.598        0.318        0.058       64.744       12.969        0.040      331.978        0.343      871.982
12/01/2013  07:57:00       29.906        7.717       17.303       40.813       17.781       19.687     1665.684      316.162      387.563        0.181        0.118       30.885       22.190        0.516      332.208        0.722      871.986
12/01/2013  07:58:00        7.983       23.939       28.860       22.651       21.660       16.579      513.062      469.176      274.864        0.136        0.063       25.235        5.614        0.049      332.138        0.607      871.998
12/01/2013  07:59:00        4.230       16.326        4.333       17.559       16.497       16.463      308.320      272.152      271.036        0.058        0.043       16.865        7.607        0.203      332.156        0.635      872.023
12/01/2013  08:00:00      -17.399        9.210       -2.871       21.877       14.695       13.028      478.612      215.933      169.732        0.063        0.043       19.686        3.888        0.039      332.017        0.407      872.036
12/01/2013  08:01:00      -60.094      -10.220       -8.209       10.016        8.654        7.444      100.322       74.883       55.420        0.201        0.012       60.957        4.006        0.004      331.926        0.255      872.047
12/01/2013  08:02:00      -52.097      -14.985       -5.207       10.832       13.709        9.344      117.328      187.930       87.310        0.168        0.020       54.209        6.257        0.013      332.008        0.392      872.055
12/01/2013  08:03:00      -78.375        3.984       -7.032       15.428        7.145        6.961      238.013       51.055       48.453        0.327        0.017       78.476        7.529        0.009      332.014        0.400      872.059
12/01/2013  08:04:00      -93.309        4.358       -6.005        7.993        8.456        6.080       63.881       71.512       36.969        0.447        0.009       93.411        4.012        0.002      332.078        0.507      872.057
12/01/2013  08:05:00      -84.781       -5.308       -6.008       28.764       20.105       12.865      827.385      404.217      165.511        0.432        0.070       84.947       10.406        0.015      332.055        0.468      872.057
12/01/2013  08:06:00      -84.433      -17.210       -7.687       14.809       15.725        9.324      219.305      247.284       86.940        0.402        0.028       86.169        6.365        0.005      332.120        0.576      872.061
12/01/2013  08:07:00      -78.417      -38.221       -5.577       20.901       16.631       12.151      436.857      276.597      147.645        0.425        0.043       87.236        5.030        0.003      332.127        0.586      872.065
12/01/2013  08:08:00      -65.140      -49.049        0.194       21.988       21.352       13.446      483.494      455.888      180.801        0.388        0.056       81.541       10.515        0.017      332.166        0.652      872.068
12/01/2013  08:09:00      -67.547       -6.688       -5.045       12.961       11.687        9.842      167.980      136.584       96.865        0.252        0.020       67.878        5.411        0.006      332.148        0.623      872.051
12/01/2013  08:10:00      -64.459      -32.697        0.696       25.778       25.236       16.462      664.517      636.844      271.009        0.340        0.079       72.278       15.958        0.049      332.205        0.716      872.032
12/01/2013  08:11:00      -73.667      -30.400       -3.407       21.675       28.025       14.341      469.793      785.394      205.658        0.391        0.073       79.693       10.942        0.019      332.254        0.798      872.012
12/01/2013  08:12:00      -99.406      -26.600       -9.960       17.433       17.733       11.355      303.893      314.445      128.939        0.572        0.037      102.904        6.006        0.003      332.260        0.808      872.006
12/01/2013  08:13:00      -82.277      -26.394       -7.138       16.700       15.824       14.454      278.881      250.402      208.909        0.413        0.037       86.407       11.163        0.017      332.282        0.844      871.988
12/01/2013  08:14:00      -66.782      -61.142       -3.458       37.659       25.106       14.430     1418.169      630.322      208.221        0.523        0.113       90.543       15.746        0.030      332.249        0.790      871.955
12/01/2013  08:15:00      -45.703      -77.530        2.674       30.414       27.117       20.357      925.037      735.306      414.424        0.509        0.104       89.998       18.907        0.044      332.315        0.898      871.929
12/01/2013  08:16:00      -33.414      -38.149        4.166       27.211       31.645       13.688      740.466     1001.393      187.369        0.226        0.096       50.714       17.078        0.113      332.428        1.085      871.914
12/01/2013  08:17:00      -20.595      -34.285        9.467       24.474       29.049       19.684      598.996      843.819      387.459        0.176        0.092       39.995       20.721        0.268      332.474        1.160      871.911
12/01/2013  08:18:00      -38.415      -23.231        0.677       21.722       14.530       10.670      471.848      211.127      113.858        0.141        0.040       44.893        9.504        0.045      332.505        1.210      871.899
12/01/2013  08:19:00      -11.003      -16.289        0.841       23.022       19.183       13.386      530.018      367.979      179.182        0.073        0.054       19.657        7.714        0.154      332.550        1.287      871.883
12/01/2013  08:20:00      -27.611      -20.815       10.391       23.419       23.142       15.310      548.430      535.531      234.391        0.131        0.066       34.578        8.189        0.056      332.574        1.325      871.872
12/01/2013  08:21:00      -45.393      -50.584       -4.620       29.493       22.520       17.534      869.836      507.139      307.449        0.316        0.084       67.966       11.832        0.030      332.512        1.222      871.873
12/01/2013  08:22:00      -61.817      -12.309       10.161       39.156       31.797       24.091     1533.190     1011.073      580.396        0.360        0.156       63.031       20.720        0.108      332.546        1.278      871.863
12/01/2013  08:23:00      -55.068      -15.036       10.600       35.424       36.241       22.718     1254.840     1313.393      516.096        0.323        0.154       57.084       23.114        0.164      332.645        1.442      871.851
12/01/2013  08:24:00      -47.433       -8.444       11.853       37.901       27.192       19.094     1436.458      739.417      364.569        0.250        0.127       48.179       12.997        0.073      332.692        1.521      871.820
12/01/2013  08:25:00       -5.837       -4.155       12.703       29.302       30.330       18.536      858.622      919.883      343.570        0.117        0.106        7.165       16.169        5.093      332.880        1.830      871.798
12/01/2013  08:26:00      -23.627       -6.992       11.648       38.442       20.684       20.843     1477.822      427.814      434.438        0.154        0.117       24.640       25.218        1.048      332.946        1.940      871.764
12/01/2013  08:27:00      -11.432       37.660        5.942       18.737       19.477       23.328      351.094      379.372      544.204        0.143        0.064       39.357       16.340        0.172      332.830        1.747      871.731
12/01/2013  08:28:00       24.264       29.411      -13.504       26.737       25.542       15.862      714.868      652.384      251.606        0.163        0.081       38.128       10.264        0.072      332.925        1.907      871.727
12/01/2013  08:29:00       -8.715        9.113       27.458       25.636       24.458       16.313      657.187      598.205      266.130        0.122        0.076       12.610       13.131        1.084      333.175        2.317      871.750
12/01/2013  08:30:00      -12.662       30.575       35.237       29.741       23.280       22.249      884.551      541.970      494.998        0.213        0.096       33.093       18.010        0.296      333.110        2.210      871.765
12/01/2013  08:31:00       70.432       50.511       -0.797       36.413       35.350       27.859     1325.909     1249.650      776.148        0.543        0.168       86.672       17.367        0.040      332.823        1.737      871.766
12/01/2013  08:32:00      120.741       97.129        9.062       19.451       18.110       21.209      378.359      327.979      449.805        1.263        0.058      154.959        8.792        0.003      332.557        1.297      871.742
12/01/2013  08:33:00      100.547       78.598        9.136       33.474       24.505       23.953     1120.496      600.472      573.764        0.933        0.115      127.622        9.615        0.006      332.650        1.450      871.728
12/01/2013  08:34:00       54.410       68.135       19.899       24.445       21.961       24.194      597.576      482.282      585.333        0.483        0.083       87.194       12.116        0.019      332.803        1.704      871.736
12/01/2013  08:35:00       65.985       50.542       31.934       38.312       31.979       29.851     1467.805     1022.635      891.104        0.565        0.169       83.118       21.228        0.065      332.856        1.792      871.744
12/01/2013  08:36:00       62.334       58.004       14.837       32.595       38.905       30.482     1062.463     1513.564      929.130        0.549        0.175       85.147       20.660        0.059      332.976        1.991      871.751
12/01/2013  08:37:00       14.883       33.881       45.346       24.910       30.684       18.425      620.508      941.501      339.479        0.266        0.095       37.006       14.737        0.159      333.201        2.361      871.764
12/01/2013  08:38:00       12.731       45.956       66.464       32.694       30.770       25.679     1068.911      946.821      659.416        0.468        0.134       47.687       23.553        0.244      333.180        2.328      871.772
12/01/2013  08:39:00       63.734       50.011       11.043       27.120       25.838       25.383      735.480      667.599      644.298        0.437        0.102       81.013       16.952        0.044      332.830        1.748      871.784
12/01/2013  08:40:00       36.482       56.435       62.797       40.381       45.599       34.467     1630.622     2079.299     1187.957        0.668        0.245       67.200       31.676        0.222      332.919        1.894      871.783
12/01/2013  08:41:00       95.459       67.698       31.137       34.899       43.076       41.357     1217.949     1855.521     1710.375        0.972        0.239      117.028       32.650        0.078      332.810        1.714      871.798
12/01/2013  08:42:00       78.445       73.299       44.822       64.286       31.615       43.609     4132.640      999.524     1901.734        1.028        0.352      107.361       39.983        0.139      332.966        1.971      871.808
12/01/2013  08:43:00       32.684       71.942       65.728       43.851       50.452       41.489     1922.921     2545.403     1721.306        0.838        0.309       79.018       38.403        0.236      333.145        2.268      871.798
12/01/2013  08:44:00      134.769      110.111       63.039       65.370       36.591       45.423     4273.182     1338.887     2063.257        2.097        0.384      174.032       38.039        0.048      332.870        1.814      871.804
12/01/2013  08:45:00       95.633       89.865       56.135       55.766       37.361       37.770     3109.859     1395.835     1426.607        1.315        0.297      131.231       29.824        0.052      332.918        1.893      871.820
12/01/2013  08:46:00       76.348       58.675       53.050       50.213       38.707       35.380     2521.331     1498.218     1251.750        0.868        0.264       96.290       28.596        0.088      333.034        2.084      871.835
12/01/2013  08:47:00       22.996       44.179       50.136       41.575       53.090       37.860     1728.522     2818.527     1433.377        0.549        0.299       49.805       26.945        0.293      333.143        2.264      871.843
12/01/2013  08:48:00       49.914       90.589       99.243       45.983       47.320       27.909     2114.396     2239.194      778.889        1.284        0.257      103.430       20.737        0.040      333.051        2.113      871.839
12/01/2013  08:49:00      116.756       89.994       69.423       40.180       37.697       36.236     1614.445     1421.081     1313.042        1.545        0.217      147.415       25.172        0.029      332.870        1.815      871.842
12/01/2013  08:50:00       62.738       69.655       59.157       45.380       31.924       32.044     2059.373     1019.149     1026.799        0.820        0.205       93.744       28.645        0.093      332.978        1.992      871.854
12/01/2013  08:51:00       44.375       30.695       48.295       42.559       38.234       25.809     1811.245     1461.814      666.090        0.459        0.197       53.957       24.157        0.200      333.026        2.072      871.865
12/01/2013  08:52:00       51.218      -74.818       25.622       34.915       55.158       28.252     1219.023     3042.444      798.161        0.697        0.253       90.670       27.763        0.094      333.095        2.185      871.876
12/01/2013  08:53:00       91.778       51.641       22.487       52.942       37.418       28.856     2802.883     1400.129      832.667        0.831        0.252      105.309       25.374        0.058      333.047        2.106      871.876
12/01/2013  08:54:00       94.421       77.378       17.477       40.890       29.745       24.779     1672.033      884.779      614.022        0.919        0.159      122.077       18.312        0.023      333.043        2.101      871.871
12/01/2013  08:55:00       45.896       62.935       62.139       36.369       46.492       33.168     1322.694     2161.528     1100.093        0.726        0.229       77.892       32.602        0.175      333.303        2.529      871.884
12/01/2013  08:56:00       83.632       66.368       59.856       35.179       36.497       35.724     1237.537     1332.015     1276.221        0.941        0.192      106.766       27.458        0.066      333.035        2.087      871.910
12/01/2013  08:57:00       87.063       65.243       56.283       32.769       24.793       26.304     1073.832      614.682      691.896        0.869        0.119      108.796       18.420        0.029      333.009        2.044      871.948
12/01/2013  08:58:00      121.165       88.542       45.309       23.925       20.177       29.015      572.423      407.127      841.853        1.320        0.091      150.069       17.568        0.014      332.905        1.871      871.965
12/01/2013  08:59:00       97.611       66.416       30.113       30.343       25.671       26.881      920.682      659.005      722.564        0.857        0.115      118.063       17.325        0.022      332.868        1.811      871.978
12/01/2013  09:00:00       72.681       83.484       57.035       42.044       26.568       34.191     1767.667      705.871     1169.029        0.957        0.182      110.689       24.041        0.047      333.025        2.070      871.964
12/01/2013  09:01:00       71.076       83.673       52.154       32.165       27.915       23.565     1034.591      779.252      555.324        0.857        0.118      109.786       10.132        0.009      333.131        2.245      871.951
12/01/2013  09:02:00       54.279       75.525       47.883       39.075       26.912       20.937     1526.869      724.242      438.338        0.682        0.134       93.007       17.020        0.033      333.160        2.293      871.950
12/01/2013  09:03:00       32.043       83.316       73.276       41.331       30.844       28.614     1708.236      951.374      818.743        0.841        0.174       89.265       22.125        0.061      333.330        2.575      871.971
12/01/2013  09:04:00       74.876       73.517       56.405       31.630       21.051       16.034     1000.458      443.160      257.100        0.795        0.085      104.934       10.644        0.010      333.089        2.177      871.996
12/01/2013  09:05:00       34.092       74.943       71.647       42.930       26.476       35.914     1843.003      700.964     1289.782        0.787        0.192       82.333       29.939        0.132      333.327        2.569      871.997
12/01/2013  09:06:00       76.006       65.308       52.940       32.380       27.289       33.276     1048.467      744.663     1107.301        0.787        0.145      100.210       17.516        0.031      333.263        2.463      871.970
12/01/2013  09:07:00       18.090      -18.147       30.625       36.148       44.437       29.620     1306.643     1974.618      877.321        0.288        0.208       25.623       25.672        1.004      333.592        3.007      871.958
12/01/2013  09:08:00       -3.913        4.252       27.592       28.609       52.576       27.315      818.490     2764.241      746.115        0.256        0.216        5.779       29.232       25.590      333.606        3.031      871.959
12/01/2013  09:09:00        6.025      -30.142       -5.909       32.170       25.778       30.244     1034.891      664.485      914.724        0.180        0.131       30.738       24.047        0.612      333.541        2.923      871.951
12/01/2013  09:10:00      -29.977      -18.425        4.138       30.906       27.135       26.040      955.204      736.294      678.099        0.181        0.118       35.187       23.267        0.437      333.753        3.275      871.945
12/01/2013  09:11:00      -32.027       -5.659       14.703       47.795       48.438       27.459     2284.394     2346.194      754.023        0.333        0.269       32.523       32.304        0.987      333.670        3.137      871.914
12/01/2013  09:12:00      -22.303      -46.006        6.824       35.269       31.503       24.278     1243.867      992.421      589.424        0.274        0.141       51.127       17.965        0.123      333.525        2.895      871.903
12/01/2013  09:13:00      -22.844       -1.026       10.518       35.969       27.038       20.511     1293.804      731.054      420.704        0.154        0.122       22.867       19.201        0.705      333.611        3.039      871.930
12/01/2013  09:14:00      -44.261      -21.828       -2.341       34.219       33.901       18.250     1170.962     1149.301      333.067        0.255        0.133       49.351       18.324        0.138      333.633        3.077      871.950
12/01/2013  09:15:00      -69.082      -81.089       -7.240       21.335       17.762       12.752      455.202      315.503      162.619        0.617        0.047      106.526        8.329        0.006      333.244        2.432      871.969
12/01/2013  09:16:00      -83.790      -66.618      -10.715       44.002       32.936       18.349     1936.145     1084.794      336.677        0.746        0.168      107.045       13.939        0.017      333.250        2.440      871.971
12/01/2013  09:17:00      -55.037      -62.453       -5.255       24.922       31.748       21.009      621.113     1007.959      441.387        0.451        0.104       83.243       18.230        0.048      333.298        2.520      871.955
12/01/2013  09:18:00      -58.368      -76.266        2.534       31.487       32.140       23.194      991.405     1032.958      537.941        0.590        0.128       96.039       20.881        0.047      333.311        2.543      871.938
12/01/2013  09:19:00      -85.384      -65.220       -7.184       33.399       26.151       17.588     1115.481      683.875      309.338        0.685        0.105      107.443       18.477        0.030      333.349        2.605      871.918
12/01/2013  09:20:00      -64.812     -110.892       -3.095       35.884       32.268       26.089     1287.654     1041.253      680.652        0.976        0.150      128.443       23.990        0.035      333.390        2.671      871.914
12/01/2013  09:21:00      -84.453      -68.260       -7.907       20.179       23.481       13.851      407.184      551.380      191.853        0.650        0.058      108.589       12.962        0.014      333.377        2.651      871.929
12/01/2013  09:22:00      -72.731      -64.706      -10.556       23.822       25.554       13.388      567.464      652.993      179.234        0.549        0.070       97.348        9.834        0.010      333.440        2.756      871.960
12/01/2013  09:23:00      -34.712      -35.173      -16.792       57.583       25.924       14.617     3315.847      672.060      213.666        0.346        0.210       49.417       20.429        0.171      333.526        2.897      871.991
12/01/2013  09:24:00       15.824      -13.308       20.450       21.521       25.672       14.597      463.168      659.027      213.079        0.109        0.067       20.676       11.783        0.325      333.911        3.537      872.009
12/01/2013  09:25:00        2.138      -18.064       -9.498       20.091       16.928        9.562      403.662      286.554       91.437        0.060        0.039       18.191        8.020        0.194      333.705        3.196      872.014
12/01/2013  09:26:00      -43.058      -17.204       -1.382       15.986       21.647       12.101      255.541      468.609      146.424        0.151        0.044       46.368       10.502        0.051      333.652        3.106      872.008
12/01/2013  09:27:00      -38.075      -21.790       -4.736       22.447       23.223        9.372      503.846      539.304       87.829        0.154        0.057       43.869        3.998        0.008      333.683        3.159      872.010
12/01/2013  09:28:00      -72.929      -40.232       -1.631       18.847       12.509       14.836      355.204      156.478      220.101        0.384        0.037       83.290        9.462        0.013      333.679        3.151      872.019
12/01/2013  09:29:00      -67.921      -50.160       -8.279       14.290       14.794       10.296      204.205      218.857      106.016        0.386        0.026       84.435        7.710        0.008      333.684        3.160      872.027
12/01/2013  09:30:00      -28.140      -43.459       -7.409       15.333       15.581       12.702      235.104      242.756      161.345        0.169        0.032       51.774        6.338        0.015      333.737        3.248      872.027
12/01/2013  09:31:00      -20.882      -16.300       -6.697       16.821       14.805       14.287      282.938      219.198      204.118        0.073        0.035       26.491       13.623        0.264      334.010        3.700      872.018
12/01/2013  09:32:00       48.698       50.223       59.362       32.727       25.104       23.243     1071.087      630.208      540.222        0.533        0.112       69.956       17.488        0.062      334.013        3.706      872.021
12/01/2013  09:33:00       38.424       55.137       34.570       28.094       32.561       21.542      789.285     1060.230      464.067        0.401        0.116       67.204       21.484        0.102      333.833        3.407      872.055
12/01/2013  09:34:00       68.022       37.410       42.193       45.188       32.024       27.646     2041.911     1025.557      764.276        0.582        0.192       77.630       17.245        0.049      334.048        3.764      872.096
12/01/2013  09:35:00       76.487       51.899       17.849       35.197       31.250       32.444     1238.853      976.581     1052.638        0.606        0.163       92.432       21.302        0.053      333.918        3.548      872.117
12/01/2013  09:36:00       55.245       46.831       28.733       39.135       36.946       44.104     1531.547     1364.980     1945.157        0.546        0.242       72.423       28.526        0.155      333.987        3.664      872.130
12/01/2013  09:37:00       16.329       43.612       51.338       49.671       34.577       20.822     2467.230     1195.551      433.571        0.445        0.205       46.569       16.975        0.133      334.410        4.365      872.118
12/01/2013  09:38:00      135.294       88.853       -2.342       34.077       32.145       29.721     1161.223     1033.308      883.338        1.464        0.154      161.862        9.681        0.004      333.871        3.469      872.099
12/01/2013  09:39:00       96.362       91.473       31.485       34.698       20.642       35.706     1203.963      426.101     1274.915        1.077        0.145      132.865       17.155        0.017      334.011        3.702      872.076
12/01/2013  09:40:00       30.879       69.572       63.102       40.784       34.673       25.030     1663.301     1202.235      626.476        0.663        0.175       76.117       19.206        0.064      334.054        3.773      872.048
12/01/2013  09:41:00       -3.343       69.718       78.699       22.729       36.990       21.255      516.602     1368.292      451.795        0.670        0.117       69.798       20.338        0.085      334.320        4.216      872.033
12/01/2013  09:42:00       30.729       69.629       66.358       28.294       38.834       25.296      800.552     1508.054      639.883        0.657        0.147       76.108       23.274        0.094      334.091        3.836      871.993
12/01/2013  09:43:00       93.043       85.760       61.164       33.292       27.230       31.872     1108.362      741.446     1015.843        1.131        0.143      126.537       19.568        0.024      333.929        3.566      871.980
12/01/2013  09:44:00       62.430       72.659       57.070       27.088       20.830       28.437      733.773      433.901      808.664        0.720        0.099       95.795       18.593        0.038      333.966        3.629      872.003
12/01/2013  09:45:00       63.302       41.803       35.925       25.169       25.701       30.487      633.458      660.524      929.486        0.463        0.111       75.859       20.559        0.073      333.981        3.653      872.026
12/01/2013  09:46:00       61.381       61.722       19.343       32.823       25.066       29.303     1077.339      628.303      858.690        0.526        0.128       87.047       23.501        0.073      333.850        3.436      872.044
12/01/2013  09:47:00       76.659       56.381       17.591       21.929       20.866       25.654      480.892      435.384      658.121        0.547        0.079       95.160       12.555        0.017      334.098        3.847      872.057
12/01/2013  09:48:00       77.189       66.828       17.543       24.058       20.802       20.282      578.789      432.712      411.345        0.608        0.071      102.099       14.649        0.021      334.208        4.029      872.068
12/01/2013  09:49:00       62.718       62.627       20.292       27.533       18.956       26.057      758.091      359.326      678.970        0.503        0.090       88.633        7.556        0.007      334.174        3.973      872.068
12/01/2013  09:50:00       62.948       58.698      -13.744       16.230       28.772       23.306      263.406      827.848      543.172        0.462        0.082       86.069        9.000        0.011      334.119        3.882      872.052
12/01/2013  09:51:00        5.983       97.983      -20.452       27.411       26.006       17.881      751.362      676.298      319.723        0.590        0.087       98.166       11.240        0.013      334.247        4.093      872.051
12/01/2013  09:52:00        6.857       12.064       17.364       15.030       32.709       20.792      225.894     1069.861      432.312        0.111        0.086       13.876       14.804        1.138      334.686        4.823      872.074
12/01/2013  09:53:00       -1.023       61.726       10.136       24.000       36.520       30.703      576.003     1333.695      942.703        0.338        0.143       61.735       27.227        0.195      334.619        4.712      872.108
12/01/2013  09:54:00      -17.962       38.506       -1.527       27.328       41.161       21.365      746.847     1694.192      456.475        0.235        0.145       42.489       12.869        0.092      334.498        4.511      872.126
12/01/2013  09:55:00       -6.120       45.041       10.119       25.747       36.492       23.426      662.919     1331.643      548.796        0.236        0.127       45.455       23.547        0.268      334.770        4.961      872.113
12/01/2013  09:56:00       -0.061       -8.036        1.616       11.665       16.849       13.947      136.070      283.900      194.533        0.034        0.031        8.037       12.647        2.477      334.706        4.855      872.084
12/01/2013  09:57:00       27.306       27.573       27.959       46.343       24.478       27.040     2147.647      599.190      731.145        0.288        0.174       38.806       20.378        0.276      335.120        5.545      872.057
12/01/2013  09:58:00       69.353       45.763        2.711       32.496       26.373       37.121     1056.002      695.515     1377.998        0.502        0.156       83.091       10.700        0.017      334.648        4.759      872.034
12/01/2013  09:59:00       79.307       59.489       -0.907       37.746       30.500       22.142     1424.739      930.268      490.266        0.634        0.142       99.139       12.486        0.016      334.804        5.019      872.031
12/01/2013  10:00:00       79.171       71.236        1.017       19.102       14.945       19.646      364.873      223.363      385.965        0.616        0.049      106.502        7.240        0.005      334.601        4.683      872.014
12/01/2013  10:01:00       43.541       44.915       46.207       38.541       55.322       19.459     1485.447     3060.545      378.653        0.549        0.246       62.556       13.320        0.045      335.054        5.434      871.985
12/01/2013  10:02:00       -1.290       23.662       64.314       20.235       34.495       21.864      409.463     1189.911      478.035        0.339        0.104       23.697       20.135        0.722      335.186        5.654      871.968
12/01/2013  10:03:00      -10.231       19.937       45.338       23.756       30.634       24.187      564.369      938.456      584.997        0.232        0.104       22.408       20.677        0.851      335.263        5.781      871.969
12/01/2013  10:04:00       56.106       44.475       22.354       42.873       23.590       33.977     1838.125      556.499     1154.450        0.459        0.177       71.595       21.032        0.086      334.986        5.320      871.986
12/01/2013  10:05:00       33.700       39.049        5.399       37.674       32.483       44.773     1419.301     1055.159     2004.601        0.358        0.224       51.581       34.315        0.443      334.974        5.302      872.000
12/01/2013  10:06:00       96.041       75.907       11.107       27.860       13.821       23.915      776.207      191.032      571.946        0.832        0.077      122.416        9.507        0.006      334.666        4.790      872.014
12/01/2013  10:07:00       36.613       47.000        7.429       26.316       35.347       23.705      692.537     1249.393      561.910        0.305        0.125       59.577       23.653        0.158      335.109        5.526      872.033
12/01/2013  10:08:00       36.555       28.210       19.432       33.304       22.901       27.645     1109.180      524.463      764.235        0.245        0.120       46.174       13.770        0.089      335.369        5.957      872.042
12/01/2013  10:09:00        9.229       41.374       10.553       29.891       27.492       20.614      893.482      755.800      424.918        0.199        0.104       42.391       16.807        0.157      335.594        6.331      872.051
12/01/2013  10:10:00       -1.477       -1.257       15.865       22.432       20.652       22.221      503.196      426.509      493.792        0.084        0.071        1.940       16.511       72.471      335.668        6.455      872.049
12/01/2013  10:11:00       -0.866       -2.048      -10.269       20.743       16.821       14.566      430.268      282.952      212.173        0.052        0.046        2.224        6.858        9.508      335.582        6.312      872.034
12/01/2013  10:12:00      -51.481      -10.174       -9.515       34.328       23.410       17.955     1178.432      548.028      322.383        0.245        0.102       52.477       11.623        0.049      335.133        5.565      872.019
12/01/2013  10:13:00      -30.379      -30.400       -3.201       28.580       27.275       14.802      816.807      743.898      219.085        0.182        0.089       42.977        5.216        0.015      335.191        5.661      872.018
12/01/2013  10:14:00       17.990      -93.292       -2.186       19.985       22.625       18.793      399.382      511.871      353.170        0.515        0.063       95.011       11.511        0.015      334.980        5.309      872.009
12/01/2013  10:15:00      -19.735      -79.958       -6.123       16.391       20.744       13.140      268.659      430.304      172.655        0.385        0.044       82.357        4.474        0.003      334.917        5.206      871.987
12/01/2013  10:16:00      -49.858      -46.350        6.378       29.861       24.128       17.568      891.684      582.179      308.621        0.323        0.089       68.075       15.700        0.053      335.118        5.540      871.964
12/01/2013  10:17:00        6.977      -13.988       18.423       34.868       31.735       22.698     1215.769     1007.084      515.181        0.166        0.137       15.631       17.295        1.224      335.725        6.550      871.941
12/01/2013  10:18:00       11.600       16.441       40.420       38.487       37.015       41.294     1481.216     1370.099     1705.185        0.330        0.228       20.122       40.847        4.121      335.800        6.677      871.916
12/01/2013  10:19:00       -9.222       12.442       45.643       10.240       22.635       13.163      104.858      512.344      173.266        0.156        0.040       15.488       12.793        0.682      336.222        7.380      871.906
12/01/2013  10:20:00       17.882       20.622       46.682       36.771       37.470       19.859     1352.105     1404.012      394.384        0.304        0.158       27.295       20.216        0.549      335.881        6.811      871.897
12/01/2013  10:21:00       43.156       43.692       25.663       28.903       20.128       24.921      835.374      405.147      621.036        0.315        0.093       61.413        9.340        0.023      335.529        6.221      871.894
12/01/2013  10:22:00       23.707       24.168       34.114       30.579       33.131       22.920      935.089     1097.643      525.332        0.243        0.128       33.854        9.429        0.078      335.889        6.824      871.885
12/01/2013  10:23:00       23.136       62.255       56.439       34.293       32.062       27.407     1176.017     1027.954      751.153        0.528        0.148       66.415       16.333        0.060      335.870        6.791      871.880
12/01/2013  10:24:00       65.288       58.374       48.313       61.922       25.122       35.497     3834.340      631.113     1260.020        0.786        0.286       87.579       38.227        0.191      335.783        6.647      871.871
12/01/2013  10:25:00       59.727       64.331       10.947       42.315       34.589       32.788     1790.546     1196.392     1075.061        0.594        0.203       87.783       22.764        0.067      335.721        6.543      871.861
12/01/2013  10:26:00       48.346       70.148        6.359       22.975       28.288       25.800      527.850      800.191      665.646        0.465        0.100       85.195       19.090        0.050      335.621        6.376      871.859
12/01/2013  10:27:00       29.466       48.068       33.614       33.420       33.632       22.207     1116.864     1131.143      493.154        0.352        0.137       56.381        4.415        0.006      336.055        7.099      871.852
12/01/2013  10:28:00       18.354       53.142       56.566       38.269       44.676       26.108     1464.521     1995.923      681.618        0.525        0.207       56.222       24.464        0.189      336.312        7.530      871.832
12/01/2013  10:29:00       44.253       64.880       32.588       53.427       38.216       38.784     2854.454     1460.431     1504.161        0.652        0.291       78.535       19.625        0.062      336.066        7.117      871.799
12/01/2013  10:30:00       87.940       99.569       35.395       40.321       33.610       33.775     1625.764     1129.640     1140.740        1.140        0.195      132.844       20.629        0.024      335.829        6.722      871.743
12/01/2013  10:31:00       13.651      101.729      122.956       39.850       43.117       37.554     1588.035     1859.057     1410.303        1.525        0.243      102.641       27.791        0.073      335.858        6.771      871.686
12/01/2013  10:32:00       94.503       92.060       34.108       59.054       37.985       62.389     3487.432     1442.872     3892.422        1.369        0.441      131.931       44.528        0.114      335.617        6.371      871.671
12/01/2013  10:33:00       66.098       87.496       54.373       53.827       38.087       36.012     2897.377     1450.625     1296.868        1.031        0.282      109.656       10.938        0.010      335.816        6.700      871.663
12/01/2013  10:34:00       79.684       63.128        6.479       40.347       42.038       27.596     1627.850     1767.210      761.541        0.727        0.208      101.660       10.739        0.011      335.700        6.509      871.673
12/01/2013  10:35:00       45.884       44.193       24.273       44.283       30.981       35.351     1961.011      959.824     1249.707        0.441        0.209       63.705       24.374        0.146      335.972        6.961      871.659
12/01/2013  10:36:00       26.732       41.249       52.886       45.334       42.836       42.147     2055.215     1834.963     1776.355        0.544        0.283       49.154       37.368        0.578      336.325        7.550      871.619
12/01/2013  10:37:00       43.091      -19.178       42.015       51.683       84.988       47.574     2671.113     7223.033     2263.312        0.807        0.608       47.166       56.127        1.416      336.163        7.279      871.593
12/01/2013  10:38:00       73.914      -46.898        7.854       29.736       68.571       40.092      884.216     4702.020     1607.378        0.746        0.360       87.536       45.136        0.266      336.062        7.112      871.602
12/01/2013  10:39:00       28.469       12.704       40.539       32.533       70.278       43.625     1058.376     4939.035     1903.132        0.526        0.395       31.175       51.165        2.694      336.019        7.040      871.622
12/01/2013  10:40:00       26.437      -43.118        1.232       38.739       24.654       24.177     1500.722      607.798      584.540        0.263        0.135       50.578       16.006        0.100      336.179        7.307      871.629
12/01/2013  10:41:00        3.768        6.502       46.621       22.999       38.838       31.492      528.942     1508.405      991.741        0.263        0.151        7.515       31.726       17.824      336.591        7.996      871.619
12/01/2013  10:42:00       62.583      -72.355        3.895       57.376       59.728       46.231     3292.010     3567.458     2137.290        0.908        0.450       95.666       47.462        0.246      336.151        7.261      871.612
12/01/2013  10:43:00       58.867       14.479       38.968       58.130       36.328       37.419     3379.076     1319.754     1400.189        0.564        0.305       60.621       28.136        0.215      336.366        7.620      871.602
12/01/2013  10:44:00       35.239       63.319       42.825       34.706       37.241       38.581     1204.478     1386.861     1488.461        0.558        0.204       72.465       23.923        0.109      336.252        7.429      871.596
12/01/2013  10:45:00       21.517       -0.422        7.954       58.001       77.807       41.816     3364.066     6053.973     1748.589        0.584        0.558       21.521       35.905        2.783      336.405        7.684      871.558
12/01/2013  10:46:00       57.577      -56.614       21.006       59.357       62.748       53.323     3523.194     3937.290     2843.303        0.863        0.515       80.748       39.152        0.235      336.412        7.696      871.509
12/01/2013  10:47:00       81.281      -71.837       19.773       72.783      112.865       55.997     5297.421    12738.571     3135.669        1.666        1.059      108.477       71.143        0.430      336.391        7.660      871.446
12/01/2013  10:48:00      112.081     -106.836        0.244       69.684      105.140       59.928     4855.797    11054.399     3591.376        2.174        0.975      154.842       72.243        0.218      336.171        7.293      871.387
12/01/2013  10:49:00      164.989     -163.038      -34.421       65.488      100.509       47.639     4288.731    10102.132     2269.494        3.582        0.833      231.954       44.573        0.037      335.800        6.671      871.302
12/01/2013  10:50:00      166.290     -116.578       -9.601      115.729      122.044       72.923    13393.274    14894.757     5317.811        3.746        1.680      203.083       86.410        0.181      335.966        6.949      871.236
12/01/2013  10:51:00       53.614       34.782       74.924       78.854      144.803      101.086     6217.953    20967.830    10218.392        2.354        1.870       63.908      114.297        3.199      336.150        7.257      871.201
12/01/2013  10:52:00       48.483       21.428       78.601       58.844       89.352       69.077     3462.603     7983.867     4771.612        1.260        0.811       53.008       48.312        0.831      336.332        7.562      871.209
12/01/2013  10:53:00       39.999     -116.924       12.238       59.077      108.260       62.701     3490.097    11720.203     3931.441        1.728        0.957      123.576       70.971        0.330      336.106        7.185      871.245
12/01/2013  10:54:00       83.908      -79.988      -18.890       49.862       54.716       36.518     2486.206     2993.848     1333.558        1.030        0.341      115.925       29.819        0.066      335.913        6.864      871.326
12/01/2013  10:55:00       23.861       25.020       56.004       42.654       82.635       55.013     1819.378     6828.527     3026.461        0.800        0.584       34.574       56.870        2.706      336.213        7.363      871.389
12/01/2013  10:56:00       29.417       19.092       45.073       40.793       44.873       38.033     1664.032     2013.566     1446.494        0.419        0.256       35.070       26.315        0.563      336.138        7.239      871.443
12/01/2013  10:57:00        7.416      -18.489       14.525       48.575       49.896       27.572     2359.549     2489.660      760.208        0.311        0.280       19.920       13.484        0.458      336.157        7.270      871.456
12/01/2013  10:58:00       14.501       34.236       31.820       27.980       24.230       21.220      782.878      587.107      450.268        0.211        0.091       37.180       12.029        0.105      336.420        7.709      871.427
12/01/2013  10:59:00       47.029       48.199       52.827       53.449       38.993       33.548     2856.755     1520.430     1125.498        0.641        0.275       67.342       16.034        0.057      336.643        8.084      871.393
12/01/2013  11:00:00      124.555      137.210       84.722       71.750       54.966       54.083     5147.998     3021.300     2924.948        2.630        0.555      185.312       45.784        0.061      336.208        7.353      871.359
12/01/2013  11:01:00      144.775      126.058       72.051       51.876       46.279       53.562     2691.158     2141.773     2868.894        2.487        0.385      191.965       43.526        0.051      335.939        6.904      871.344
12/01/2013  11:02:00       99.759       87.382       51.807       56.771       64.812       53.547     3222.947     4200.587     2867.330        1.528        0.515      132.618       45.755        0.119      336.143        7.246      871.350
12/01/2013  11:03:00       93.509       54.739       29.129       48.122       38.853       35.692     2315.752     1509.578     1273.952        0.884        0.255      108.352       29.668        0.075      336.092        7.161      871.356
12/01/2013  11:04:00       54.804       53.941       43.558       43.319       57.891       35.991     1876.509     3351.421     1295.349        0.717        0.326       76.897       32.345        0.177      336.419        7.709      871.343
12/01/2013  11:05:00       90.133      -22.499       33.596       49.101       76.694       40.853     2410.890     5881.958     1668.968        0.986        0.498       92.899       47.894        0.266      336.261        7.444      871.363
12/01/2013  11:06:00       41.155      -25.252       30.600       39.916       85.394       48.935     1593.306     7292.213     2394.659        0.727        0.564       48.284       56.660        1.377      336.393        7.665      871.373
12/01/2013  11:07:00       28.473      -14.694       30.422       48.233       53.896       36.436     2326.404     2904.732     1327.579        0.425        0.328       32.041       32.478        1.027      336.403        7.680      871.349
12/01/2013  11:08:00       30.368      -58.293       35.120       35.356       54.646       34.342     1250.079     2986.156     1179.389        0.548        0.271       65.729       26.052        0.157      336.620        8.044      871.324
12/01/2013  11:09:00       61.639      -52.799        1.427       34.728       60.498       31.108     1206.014     3659.971      967.726        0.621        0.292       81.161       27.614        0.116      336.454        7.768      871.290
12/01/2013  11:10:00       32.973       59.421       63.523       38.137       42.646       24.964     1454.423     1818.714      623.183        0.627        0.195       67.956       18.092        0.071      336.570        7.961      871.294
12/01/2013  11:11:00       79.020       72.099       37.848       15.284       15.810       30.771      233.613      249.953      946.843        0.715        0.072      106.969       14.722        0.019      336.084        7.147      871.326
12/01/2013  11:12:00       50.430        4.473        5.406       43.246       41.257       24.798     1870.219     1702.130      614.932        0.339        0.209       50.628       10.534        0.043      336.311        7.527      871.346
12/01/2013  11:13:00       23.323       11.272       39.620       37.925       51.996       38.453     1438.313     2703.622     1478.638        0.393        0.281       25.905       40.487        2.443      336.773        8.300      871.333
12/01/2013  11:14:00       24.910      -10.494       36.682       46.556       44.733       38.128     2167.424     2001.014     1453.748        0.385        0.281       27.030       37.549        1.930      336.970        8.630      871.302
12/01/2013  11:15:00       69.898       20.287       65.694       72.777       77.912       51.621     5296.464     6070.220     2664.684        1.182        0.702       72.783       59.540        0.669      336.628        8.057      871.264
12/01/2013  11:16:00       70.384      -49.838       37.295       49.232      107.555       66.275     2423.792    11568.183     4392.374        1.360        0.919       86.243       81.656        0.896      336.527        7.887      871.271
12/01/2013  11:17:00       46.852      -27.821       36.535       58.938       99.728       41.931     3473.681     9945.671     1758.201        0.974        0.759       54.490       46.938        0.742      336.572        7.964      871.313
12/01/2013  11:18:00        9.633        7.320       24.754       48.055       35.272       21.311     2309.308     1244.080      454.169        0.238        0.200       12.099       14.066        1.352      336.813        8.369      871.347
12/01/2013  11:19:00        8.848        3.386       37.430       33.955       43.284       33.969     1152.974     1873.504     1153.904        0.283        0.209        9.474       21.267        5.039      336.949        8.594      871.341
12/01/2013  11:20:00       87.719      -36.089       19.191       47.020       54.981       39.718     2210.851     3022.931     1577.529        0.809        0.341       94.852       28.143        0.088      336.562        7.947      871.322
12/01/2013  11:21:00       11.490       29.181       52.163       22.320       37.935       23.718      498.175     1439.092      562.546        0.310        0.125       31.361       25.503        0.661      337.117        8.874      871.288
12/01/2013  11:22:00       -8.940       20.486       48.153       25.963       34.361       23.649      674.076     1180.660      559.276        0.262        0.121       22.352       22.259        0.992      337.131        8.898      871.275
12/01/2013  11:23:00       21.656       41.816       64.489       37.486       35.227       25.139     1405.232     1240.928      631.946        0.483        0.164       47.091        6.732        0.020      336.940        8.581      871.270
12/01/2013  11:24:00       -1.662       19.813       56.796       17.901       37.654       29.071      320.451     1417.797      845.126        0.310        0.129       19.882       24.793        1.555      337.113        8.866      871.269
12/01/2013  11:25:00       38.916      -60.837        2.525       32.911       63.945       50.125     1083.160     4088.995     2512.501        0.645        0.384       72.220       54.500        0.569      336.638        8.074      871.282
12/01/2013  11:26:00       54.720      111.447      107.301       71.821       46.886       35.422     5158.285     2198.315     1254.747        1.777        0.431      124.156       31.884        0.066      336.789        8.325      871.262
12/01/2013  11:27:00       95.511       66.645       52.430       52.067       36.478       28.670     2710.929     1330.651      821.986        1.059        0.243      116.464       17.494        0.023      336.618        8.041      871.229
12/01/2013  11:28:00       39.869       67.566       72.863       43.854       39.372       36.086     1923.137     1550.192     1302.165        0.812        0.239       78.451       31.360        0.160      336.869        8.459      871.193
12/01/2013  11:29:00       99.536       75.898       43.849       54.361       36.169       34.729     2955.137     1308.230     1206.109        1.153        0.273      125.172       22.716        0.033      336.590        7.994      871.172
12/01/2013  11:30:00       81.264       67.435       31.954       38.494       24.844       35.065     1481.780      617.248     1229.555        0.775        0.166      105.600       18.275        0.030      336.763        8.282      871.148
12/01/2013  11:31:00       22.570       74.376       -4.708       36.203       34.926       27.046     1310.651     1219.841      731.485        0.466        0.163       77.725       23.468        0.091      336.985        8.654      871.106
12/01/2013  11:32:00        6.899       10.812        5.734       27.359       50.801       25.242      748.532     2580.738      637.139        0.208        0.198       12.826       15.617        1.483      337.122        8.884      871.068
12/01/2013  11:33:00       35.243        7.772        4.740       29.479       47.219       34.491      868.996     2229.591     1189.624        0.281        0.214       36.090       32.353        0.804      337.241        9.082      871.038
12/01/2013  11:34:00       16.072        8.536       53.589       36.241       43.463       36.002     1313.422     1889.014     1296.121        0.385        0.225       18.198       33.966        3.484      337.528        9.563      871.030
12/01/2013  11:35:00        2.633      -21.162       25.960       33.327       53.104       34.253     1110.660     2820.015     1173.300        0.312        0.255       21.325       24.118        1.279      337.394        9.338      871.023
12/01/2013  11:36:00        3.446       -9.098       40.280       33.209       29.331       20.630     1102.857      860.335      425.607        0.205        0.119        9.728       12.836        1.741      337.708        9.865      871.035
12/01/2013  11:37:00      -10.959      -25.200       18.231       27.481       42.670       33.462      755.195     1820.712     1119.684        0.239        0.185       27.479       16.970        0.381      337.500        9.516      871.016
12/01/2013  11:38:00       37.680      -52.703       22.902       51.945       72.294       57.168     2698.262     5226.481     3268.129        0.796        0.560       64.787       49.833        0.592      337.344        9.256      870.997
12/01/2013  11:39:00       18.144       22.858       80.601       51.312       73.084       57.812     2632.900     5341.292     3342.210        0.933        0.566       29.184       53.638        3.378      337.324        9.222      870.971
12/01/2013  11:40:00       66.290      -34.268       13.168       43.714       48.737       42.886     1910.904     2375.292     1839.193        0.593        0.306       74.623       34.150        0.209      337.140        8.913      870.972
12/01/2013  11:41:00       58.186      -21.643       21.913       32.720       30.752       30.842     1070.594      945.695      951.252        0.365        0.148       62.080       20.890        0.113      337.173        8.969      870.952
12/01/2013  11:42:00       15.819      -10.767       34.018       43.129       37.791       37.666     1860.073     1428.173     1418.730        0.311        0.235       19.136       29.160        2.322      337.539        9.581      870.889
12/01/2013  11:43:00      -15.037      -67.039        3.029       52.814       53.949       38.992     2789.329     2910.493     1520.358        0.597        0.361       68.705       19.150        0.078      337.411        9.368      870.848
12/01/2013  11:44:00       32.950      -41.018       16.753       47.506       63.445       37.935     2256.812     4025.226     1439.084        0.538        0.386       52.613       42.713        0.659      337.441        9.419      870.829
12/01/2013  11:45:00       -6.564      -14.387       53.691       48.845       88.526       54.006     2385.795     7836.931     2916.692        0.813        0.657       15.814       61.333       15.041      337.602        9.686      870.821
12/01/2013  11:46:00       11.197       20.634       62.970       38.772       44.409       26.423     1503.235     1972.140      698.176        0.434        0.209       23.476       25.063        1.140      337.777        9.980      870.798
12/01/2013  11:47:00       47.386      -37.907       12.551       48.917       50.394       38.062     2392.855     2539.555     1448.733        0.511        0.319       60.682       26.119        0.185      337.412        9.368      870.767
12/01/2013  11:48:00       22.556       30.210       44.207       31.574       47.543       29.946      996.944     2260.340      896.751        0.376        0.208       37.702       27.699        0.540      337.599        9.681      870.744
12/01/2013  11:49:00       18.918      -22.993       20.360       60.454       60.598       35.176     3654.721     3672.143     1237.385        0.493        0.428       29.775       48.579        2.662      337.586        9.659      870.714
12/01/2013  11:50:00       90.801      -89.657       -3.209       52.043       57.698       43.436     2708.443     3329.044     1886.729        1.211        0.396      127.606       42.040        0.109      337.185        8.990      870.708
12/01/2013  11:51:00       10.562       62.480       86.428       31.994       56.868       31.263     1023.626     3233.938      977.377        0.836        0.262       63.367       33.478        0.279      337.519        9.547      870.692
12/01/2013  11:52:00       61.201      -51.153       22.006       45.204       87.365       43.562     2043.382     7632.566     1897.654        0.921        0.579       79.763       48.795        0.374      337.456        9.442      870.672
12/01/2013  11:53:00      118.475     -122.398      -37.033       54.881       39.001       27.161     3011.890     1521.108      737.719        1.783        0.264      170.346       19.788        0.013      337.232        9.066      870.670
12/01/2013  11:54:00       63.223       -5.292       24.982       50.573       40.067       33.530     2557.598     1605.403     1124.285        0.497        0.264       63.444       36.887        0.338      337.465        9.456      870.682
12/01/2013  11:55:00       25.779       -6.612       30.064       35.085       59.658       27.255     1230.929     3559.021      742.813        0.357        0.277       26.614       33.181        1.554      337.479        9.481      870.674
12/01/2013  11:56:00        7.647      -56.459       -4.709       36.660       69.606       42.336     1343.973     4845.042     1792.329        0.562        0.399       56.974       43.016        0.570      337.616        9.711      870.670
12/01/2013  11:57:00       -7.286      -62.679      -30.593       46.559       43.993       26.541     2167.697     1935.394      704.428        0.486        0.240       63.101       21.534        0.116      337.589        9.665      870.676
12/01/2013  11:58:00        8.635        4.603       25.164       23.322       33.169       27.072      543.931     1100.190      732.901        0.155        0.119        9.785       20.071        4.207      338.009       10.370      870.692
12/01/2013  11:59:00      -19.864      -26.944       52.304       35.231       48.697       40.881     1241.250     2371.385     1671.251        0.457        0.264       33.475       29.133        0.757      337.842       10.090      870.694
12/01/2013  12:00:00      -27.540      -57.833       25.021       29.155       43.623       23.941      850.032     1902.925      573.160        0.403        0.166       64.055       14.760        0.053      337.831       10.070      870.679
12/01/2013  12:01:00        0.218        6.027       54.621       32.349       43.627       36.368     1046.477     1903.300     1322.630        0.365        0.214        6.031       24.866       16.999      338.062       10.458      870.664
12/01/2013  12:02:00       26.475       19.041       62.516       28.881       39.837       23.449      834.099     1586.955      549.835        0.397        0.149       32.611       19.883        0.372      337.631        9.736      870.654
12/01/2013  12:03:00       35.597       67.303       42.330       24.542       17.514       21.099      602.290      306.753      445.156        0.447        0.068       76.137       11.595        0.023      337.348        9.261      870.633
12/01/2013  12:04:00       77.457      -29.360        3.544       44.518       61.514       33.151     1981.835     3783.999     1098.995        0.687        0.343       82.835       37.751        0.208      337.444        9.423      870.610
12/01/2013  12:05:00       37.361       14.166       31.455       29.688       49.243       30.027      881.401     2424.867      901.644        0.340        0.210       39.957       30.678        0.589      337.802       10.023      870.575
12/01/2013  12:06:00        0.588        4.701       32.012       22.433       23.254       19.141      503.221      540.767      366.364        0.123        0.071        4.738        7.244        2.338      338.286       10.835      870.556
12/01/2013  12:07:00       10.498      -33.213        8.882       29.859       64.834       30.592      891.585     4203.418      935.895        0.366        0.302       34.833       21.574        0.384      337.835       10.078      870.560
12/01/2013  12:08:00       61.340      -70.129        3.595       59.117       34.117       23.843     3494.849     1163.976      568.490        0.696        0.261       93.170       26.290        0.080      337.566        9.627      870.522
12/01/2013  12:09:00      -12.374       32.762       60.104       23.264       38.306       23.149      541.215     1467.382      535.880        0.369        0.127       35.021       21.900        0.391      338.226       10.733      870.519
12/01/2013  12:10:00       34.899        7.630       33.952       49.620       51.205       35.849     2462.191     2621.987     1285.165        0.440        0.318       35.723       35.703        0.999      337.932       10.241      870.534
12/01/2013  12:11:00       56.455       70.775       52.421       77.825       52.249       54.298     6056.736     2729.915     2948.222        1.134        0.587       90.533       49.418        0.298      337.895       10.178      870.512
12/01/2013  12:12:00       65.089       78.931       54.765       65.102       59.968       69.699     4238.237     3596.110     4857.935        1.308        0.635      102.307       48.680        0.226      337.938       10.251      870.474
12/01/2013  12:13:00       33.850      -46.697       31.464       60.560       80.336       55.796     3667.499     6453.929     3113.198        0.877        0.662       57.675       59.902        1.079      337.980       10.322      870.475
12/01/2013  12:14:00       33.094      -71.886       -0.996       17.572       31.864       23.294      308.765     1015.325      542.593        0.406        0.093       79.138       18.421        0.054      337.889       10.167      870.515
12/01/2013  12:15:00       43.027      -30.441      -20.843       17.176       25.533       19.806      295.008      651.933      392.266        0.228        0.067       52.706        8.404        0.025      337.798       10.015      870.509
12/01/2013  12:16:00      -34.523       -7.550        0.023       26.138       28.391       30.812      683.176      806.040      949.403        0.184        0.122       35.338       25.800        0.533      337.711        9.869      870.444
12/01/2013  12:17:00       24.657       38.014       32.672       37.004       30.719       23.053     1369.285      943.636      531.429        0.298        0.142       45.310       20.173        0.198      338.269       10.805      870.383
12/01/2013  12:18:00       -8.607       62.834       25.941       37.650       49.032       36.007     1417.496     2404.102     1296.484        0.491        0.256       63.421       27.808        0.192      338.382       10.997      870.401
12/01/2013  12:19:00       -6.572       99.645       -9.773       34.794       41.566       27.863     1210.624     1727.707      776.324        0.689        0.186       99.861       29.811        0.089      337.918       10.217      870.417
12/01/2013  12:20:00       13.176       78.035        1.068       28.047       63.666       30.527      786.616     4053.350      931.883        0.602        0.289       79.139       31.370        0.157      337.969       10.302      870.409
12/01/2013  12:21:00       10.543       53.838       81.238       35.464       49.859       39.953     1257.708     2485.917     1596.238        0.747        0.267       54.861       37.706        0.472      338.191       10.675      870.372
12/01/2013  12:22:00      102.761       69.769       45.688       29.387       36.569       31.113      863.602     1337.279      968.002        1.034        0.158      124.207       21.065        0.029      337.627        9.730      870.385
12/01/2013  12:23:00       64.689       -5.704       52.409       59.483       37.735       25.497     3538.190     1423.902      650.095        0.629        0.281       64.940       28.874        0.198      337.967       10.300      870.388
12/01/2013  12:24:00      160.079       86.396       17.879       42.347       43.879       39.863     1793.307     1925.369     1589.026        1.936        0.265      181.905       28.039        0.024      337.787        9.996      870.346
12/01/2013  12:25:00      115.519       76.734       13.390       41.538       27.281       26.345     1725.437      744.246      694.067        1.129        0.158      138.683       12.795        0.009      337.714        9.875      870.323
12/01/2013  12:26:00       24.313       37.386        6.348       26.141       27.179       36.392      683.354      738.696     1324.365        0.239        0.137       44.597       25.120        0.317      337.992       10.342      870.304
12/01/2013  12:27:00      103.956       59.349       21.170       56.993       39.524       36.200     3248.195     1562.153     1310.419        1.045        0.306      119.705        9.181        0.006      337.952       10.273      870.273
12/01/2013  12:28:00      110.867       68.782       23.233       50.917       45.970       56.554     2592.590     2113.196     3198.393        1.273        0.395      130.470       15.418        0.014      337.982       10.324      870.261
12/01/2013  12:29:00       75.999       43.113       17.244       57.169       40.619       30.622     3268.281     1649.911      937.737        0.689        0.293       87.376       18.722        0.046      338.169       10.638      870.259
12/01/2013  12:30:00      104.201       91.014       14.311       48.703       32.017       32.753     2371.996     1025.097     1072.727        1.191        0.223      138.352       24.644        0.032      338.049       10.435      870.260
12/01/2013  12:31:00       31.309       44.745       17.385       30.522       34.265       36.907      931.621     1174.123     1362.163        0.338        0.173       54.612       31.805        0.339      338.032       10.409      870.268
12/01/2013  12:32:00       12.771       21.533      -16.033       23.912       54.714       14.970      571.772     2993.629      224.108        0.234        0.189       25.036       10.197        0.166      337.995       10.345      870.276
12/01/2013  12:33:00       26.657       49.713        5.002       53.290       45.443       21.710     2839.834     2065.027      471.315        0.429        0.269       56.409       20.731        0.135      338.323       10.897      870.272
12/01/2013  12:34:00       99.977       59.435      -11.778       49.593       29.042       24.189     2459.456      843.410      585.118        0.878        0.194      116.309       16.447        0.020      338.219       10.722      870.242
12/01/2013  12:35:00       59.492       53.341       -2.853       38.277       33.226       30.708     1465.135     1103.955      942.980        0.495        0.176       79.903       21.410        0.072      338.077       10.483      870.249
12/01/2013  12:36:00        1.818       23.036       16.379       33.381       32.047       29.177     1114.259     1027.039      851.324        0.190        0.150       23.108       20.387        0.778      338.390       11.010      870.257
12/01/2013  12:37:00        5.679        8.894        7.725       19.435       20.984       22.782      377.726      440.321      519.039        0.075        0.067       10.553        9.298        0.776      338.483       11.166      870.263
12/01/2013  12:38:00        5.521       24.214       57.309       29.174       51.235       28.897      851.100     2624.999      835.049        0.411        0.216       24.836       34.307        1.908      338.430       11.077      870.258
12/01/2013  12:39:00       50.046        5.066       29.103       29.331       18.261       21.883      860.316      333.462      478.846        0.252        0.084       50.302       15.730        0.098      338.131       10.575      870.224
12/01/2013  12:40:00       15.431       33.632       41.565       33.076       34.346       24.458     1094.010     1179.633      598.216        0.298        0.144       37.002       21.856        0.349      338.376       10.988      870.199
12/01/2013  12:41:00       34.728       67.980       82.290       61.492       52.733       45.571     3781.291     2780.801     2076.712        1.062        0.432       76.337       45.048        0.348      338.226       10.733      870.185
12/01/2013  12:42:00       80.011       69.489       42.724       51.284       34.156       38.648     2630.097     1166.653     1493.675        0.917        0.265      105.974       35.469        0.112      338.252       10.777      870.195
12/01/2013  12:43:00       74.949       54.932       22.663       35.107       28.010       27.324     1232.473      784.564      746.588        0.596        0.138       92.924       22.263        0.057      338.308       10.872      870.195
12/01/2013  12:44:00       22.464       45.973       23.381       34.746       27.967       21.377     1207.256      782.159      456.995        0.281        0.122       51.168        8.708        0.029      338.504       11.201      870.196
12/01/2013  12:45:00       46.558       64.918       -0.723       36.910       33.339       20.519     1362.341     1111.519      421.016        0.464        0.145       79.887       15.576        0.038      338.388       11.005      870.202
12/01/2013  12:46:00       38.368       16.503       22.755       55.056       38.652       29.776     3031.198     1493.975      886.616        0.384        0.271       41.766       30.903        0.547      338.523       11.231      870.209
12/01/2013  12:47:00       85.790       37.016       10.336       22.517       21.634       31.164      507.020      468.042      971.176        0.539        0.097       93.435       12.897        0.019      338.068       10.468      870.222
12/01/2013  12:48:00       54.920       48.277      -12.978       42.282       28.887       15.257     1787.806      834.483      232.764        0.418        0.143       73.122        9.929        0.018      338.225       10.730      870.223
12/01/2013  12:49:00      -19.237       78.877        1.495       20.907       31.161       25.419      437.097      970.997      646.145        0.432        0.103       81.189       14.472        0.032      338.577       11.324      870.240
12/01/2013  12:50:00       27.127       41.453        8.052       41.937       26.410       31.116     1758.717      697.508      968.209        0.297        0.171       49.540       16.650        0.113      338.496       11.187      870.243
12/01/2013  12:51:00      -10.077       17.639       -3.457       31.836       18.595       17.393     1013.544      345.757      302.524        0.104        0.083       20.314       17.050        0.704      338.721       11.564      870.258
12/01/2013  12:52:00      -23.809        5.627       13.986       38.037       28.528       23.329     1446.824      813.843      544.253        0.180        0.140       24.465       21.871        0.799      338.959       11.965      870.263
12/01/2013  12:53:00        3.344      -77.315       -7.228       49.722       46.412       33.277     2472.260     2154.118     1107.333        0.589        0.287       77.387       31.983        0.171      338.777       11.659      870.249
12/01/2013  12:54:00       28.359      -77.039      -21.069       33.808       53.776       24.608     1143.001     2891.910      605.562        0.591        0.232       82.093       28.871        0.124      338.530       11.244      870.248
12/01/2013  12:55:00       -9.658      -23.106       16.166       18.831       27.609       19.229      354.607      762.233      369.756        0.119        0.074       25.043       10.609        0.179      339.128       12.251      870.231
12/01/2013  12:56:00        4.574      -24.829       22.009       34.813       37.897       31.846     1211.951     1436.203     1014.167        0.239        0.183       25.246       22.711        0.809      339.047       12.113      870.230
12/01/2013  12:57:00       12.792       40.084       60.149       36.402       52.808       37.199     1325.083     2788.683     1383.791        0.544        0.275       42.076       36.018        0.733      338.804       11.704      870.214
12/01/2013  12:58:00       23.749       70.645       81.506       34.521       31.720       24.996     1191.688     1006.190      624.818        0.751        0.141       74.530       15.125        0.041      338.632       11.416      870.208
12/01/2013  12:59:00       41.041       88.231       83.490       41.002       45.553       30.644     1681.164     2075.063      939.077        1.057        0.235       97.309       24.117        0.061      338.576       11.320      870.199
12/01/2013  13:00:00       68.942       73.945       51.721       52.274       43.079       36.943     2732.593     1855.764     1364.776        0.942        0.298      101.098       32.075        0.101      338.495       11.185      870.208
12/01/2013  13:01:00       14.104       54.721       56.074       37.231       35.521       28.708     1386.124     1261.761      824.129        0.490        0.174       56.510       24.079        0.182      338.670       11.480      870.213
12/01/2013  13:02:00       87.950       63.508       11.986       45.420       37.210       31.482     2062.994     1384.558      991.110        0.817        0.222      108.482       20.834        0.037      338.354       10.949      870.197
12/01/2013  13:03:00       22.678       41.573        5.304       30.816       33.465       18.340      949.633     1119.899      336.344        0.234        0.120       47.356        7.246        0.023      338.706       11.540      870.180
12/01/2013  13:04:00       87.015       68.436       30.279       42.412       25.869       35.012     1798.751      669.197     1225.864        0.843        0.185      110.703       27.238        0.061      338.621       11.398      870.156
12/01/2013  13:05:00       69.574       45.124       20.028       41.365       28.441       31.730     1711.044      808.868     1006.808        0.540        0.176       82.926        9.730        0.014      338.588       11.341      870.161
12/01/2013  13:06:00       22.427       38.005       12.186       34.634       22.423       30.291     1199.517      502.778      917.527        0.236        0.131       44.129       15.701        0.127      338.634       11.418      870.160
12/01/2013  13:07:00       22.287       24.521       49.231       30.800       33.628       29.774      948.609     1130.834      886.463        0.324        0.148       33.136       19.135        0.333      338.908       11.880      870.168
12/01/2013  13:08:00       36.102       41.596       31.148       34.333       32.143       30.533     1178.732     1033.202      932.293        0.357        0.157       55.077       20.697        0.141      338.574       11.320      870.162
12/01/2013  13:09:00       79.018       61.125       42.691       58.819       41.861       31.348     3459.651     1752.378      982.668        0.900        0.310       99.901       27.279        0.075      338.699       11.528      870.154
12/01/2013  13:10:00       53.437        8.081       19.314       58.829       63.728       36.599     3460.907     4061.254     1339.516        0.608        0.443       54.045       29.511        0.298      338.731       11.583      870.162
12/01/2013  13:11:00       21.823      -31.546       20.098       39.299       79.760       48.247     1544.438     6361.604     2327.802        0.605        0.512       38.359       54.392        2.011      338.938       11.930      870.163
12/01/2013  13:12:00       50.469       82.485       72.212       49.803       41.420       30.477     2480.306     1715.638      928.822        0.984        0.256       96.700       29.035        0.090      338.775       11.656      870.175
12/01/2013  13:13:00       81.001       11.315       51.078       49.086       50.569       26.397     2409.413     2557.257      696.776        0.748        0.283       81.788       23.912        0.085      338.703       11.535      870.191
12/01/2013  13:14:00       98.493       61.454       32.871       29.386       17.769       20.027      863.525      315.726      401.089        0.807        0.079      116.092       12.463        0.012      338.513       11.214      870.188
12/01/2013  13:15:00       46.515       36.698       22.266       16.238       10.632       19.086      263.685      113.048      364.258        0.237        0.037       59.249        8.215        0.019      338.562       11.297      870.175
12/01/2013  13:16:00        5.943       -2.503        6.159       30.138       36.357       23.601      908.281     1321.853      557.012        0.143        0.139        6.449       15.297        5.627      338.939       11.930      870.147
12/01/2013  13:17:00      -20.976      -38.733        3.660       46.066       64.815       33.220     2122.037     4201.011     1103.545        0.469        0.371       44.048       36.249        0.677      338.965       11.975      870.126
12/01/2013  13:18:00      -43.793      -41.266        0.326       35.680       36.879       22.317     1273.088     1360.064      498.049        0.338        0.157       60.172       21.078        0.123      338.983       12.007      870.111
12/01/2013  13:19:00       28.441       36.722       37.933       34.019       27.613       26.971     1157.301      762.452      727.412        0.312        0.132       46.448       15.125        0.106      339.181       12.337      870.079
12/01/2013  13:20:00       52.563      -76.884        7.903       61.878       74.028       46.109     3828.924     5480.079     2126.053        1.008        0.572       93.134       61.442        0.435      338.936       11.926      870.054
12/01/2013  13:21:00       67.490     -122.279      -10.375       47.950       78.506       29.915     2299.225     6163.131      894.888        1.448        0.468      139.667       33.034        0.056      338.967       11.978      870.008
12/01/2013  13:22:00       54.761      -70.183        8.235       55.349       67.171       44.162     3063.488     4511.957     1950.272        0.876        0.476       89.019       36.789        0.171      339.108       12.216      869.965
12/01/2013  13:23:00        4.823      -50.053       16.220       33.704       48.851       32.736     1135.956     2386.452     1071.652        0.369        0.230       50.285       22.164        0.194      339.276       12.498      869.934
12/01/2013  13:24:00       64.735      -84.648        9.093       71.138       59.163       44.787     5060.598     3500.205     2005.899        1.100        0.528      106.564       39.878        0.140      339.013       12.057      869.925
12/01/2013  13:25:00        7.708      -25.937       21.746       26.949       56.538       32.926      726.250     3196.563     1084.151        0.310        0.250       27.058       34.923        1.666      339.172       12.325      869.932
12/01/2013  13:26:00       32.246      -14.291       36.410       57.176       57.495       34.667     3269.132     3305.656     1201.829        0.517        0.389       35.271       41.788        1.404      339.356       12.633      869.950
12/01/2013  13:27:00       72.148      -53.798       -1.982       54.659       60.365       32.785     2987.622     3643.917     1074.844        0.790        0.385       89.998       30.307        0.113      339.029       12.082      869.967
12/01/2013  13:28:00       30.464      -32.651       15.458       51.170       89.247       46.009     2618.411     7965.024     2116.836        0.746        0.635       44.656       58.326        1.706      339.174       12.328      869.941
12/01/2013  13:29:00      -11.416       -2.323       51.308       27.663       69.931       45.001      765.251     4890.379     2025.112        0.522        0.384       11.650       43.284       13.805      339.213       12.393      869.909
12/01/2013  13:30:00        5.463      -11.720       44.167       29.836       39.259       34.364      890.196     1541.245     1180.867        0.286        0.181       12.931       17.608        1.854      339.405       12.715      869.887
12/01/2013  13:31:00       45.384      -54.899      -10.853       52.610       55.671       21.839     2767.849     3099.267      476.960        0.577        0.317       71.230       29.162        0.168      338.950       11.950      869.902
12/01/2013  13:32:00       20.538       20.097       46.674       32.535       24.844       24.834     1058.531      617.202      616.738        0.265        0.115       28.735       15.777        0.301      339.232       12.426      869.917
12/01/2013  13:33:00      -14.708       25.747       57.014       15.115       33.114       21.524      228.449     1096.531      463.263        0.296        0.089       29.652       23.124        0.608      339.564       12.983      869.948
12/01/2013  13:34:00       -8.440       41.016       47.484       20.968       34.245       34.548      439.640     1172.700     1193.531        0.341        0.140       41.876       30.036        0.514      339.248       12.452      869.960
12/01/2013  13:35:00       -5.417       25.739       21.273       24.979       27.928       29.040      623.954      779.946      843.305        0.170        0.112       26.303       18.587        0.499      339.277       12.501      869.946
12/01/2013  13:36:00      -18.591        1.312      -12.945       19.843       11.294        9.725      393.749      127.564       94.568        0.057        0.031       18.637        2.238        0.014      339.142       12.272      869.911
12/01/2013  13:37:00        1.172      -26.163       -7.322       32.047       17.448       19.220     1027.027      304.445      369.409        0.122        0.085       26.189        8.988        0.118      339.130       12.252      869.873
12/01/2013  13:38:00       13.536       24.936       24.067       40.091       32.667       22.140     1607.262     1067.164      490.190        0.227        0.158       28.374        9.688        0.117      339.136       12.262      869.837
12/01/2013  13:39:00       43.649       51.245       14.093       30.147       24.055       20.606      908.827      578.645      424.627        0.332        0.096       67.314       11.349        0.028      339.103       12.208      869.811
12/01/2013  13:40:00       28.245       44.416        6.486       37.266       28.006       23.598     1388.749      784.360      556.886        0.277        0.136       52.636        7.972        0.023      339.271       12.491      869.805
12/01/2013  13:41:00       -1.827      -19.447       13.875       27.247       29.996       18.401      742.401      899.732      338.602        0.128        0.099       19.533       14.378        0.542      339.543       12.947      869.807
12/01/2013  13:42:00      -75.586      -23.544       -7.330       32.915       40.308       21.432     1083.406     1624.740      459.319        0.474        0.158       79.168       20.937        0.070      339.220       12.405      869.815
12/01/2013  13:43:00      -43.897        6.177       13.761       40.973       28.211       19.049     1678.816      795.869      362.878        0.250        0.142       44.329       18.144        0.168      339.424       12.749      869.815
12/01/2013  13:44:00      -39.325       -8.627        6.036       35.382       22.893       15.974     1251.918      524.099      255.155        0.184        0.102       40.260       15.707        0.152      339.300       12.539      869.820
12/01/2013  13:45:00      -24.475       -4.000       -2.914       19.691       19.474       13.943      387.717      379.242      194.413        0.079        0.048       24.799       12.600        0.258      339.333       12.595      869.795
12/01/2013  13:46:00        3.640       23.559       42.045       23.840       39.617       32.932      568.362     1569.531     1084.510        0.278        0.161       23.839       29.962        1.580      339.462       12.812      869.756
12/01/2013  13:47:00      -48.455       26.066      -19.980       39.696       23.530       14.495     1575.751      553.655      210.094        0.288        0.117       55.021        3.309        0.004      339.216       12.397      869.732
12/01/2013  13:48:00      -35.790      -11.489        6.308       42.860       25.818       29.716     1836.980      666.592      883.039        0.242        0.169       37.589       26.856        0.510      339.380       12.673      869.710
12/01/2013  13:49:00        1.500      -34.665       19.055       40.099       47.247       31.336     1607.931     2232.243      981.954        0.319        0.241       34.697       24.432        0.496      339.457       12.804      869.714
12/01/2013  13:50:00      -51.456      -41.856        6.835       52.302       37.230       33.431     2735.466     1386.056     1117.649        0.484        0.262       66.330       29.036        0.192      339.291       12.524      869.710
12/01/2013  13:51:00      -21.630      -26.315       12.546       43.359       28.295       20.243     1879.982      800.602      409.775        0.220        0.155       34.064       25.703        0.569      339.378       12.669      869.689
12/01/2013  13:52:00       -7.350       -5.448        9.968       16.743       43.412       17.013      280.338     1884.560      289.449        0.132        0.123        9.149       16.356        3.196      339.508       12.890      869.658
12/01/2013  13:53:00      -24.006      -15.379        2.753       27.994       19.117       16.045      783.658      365.450      257.446        0.111        0.070       28.509       14.685        0.265      339.400       12.706      869.646
12/01/2013  13:54:00      -65.421      -25.196       -1.506       48.232       25.087       23.194     2326.298      629.361      537.950        0.420        0.175       70.105       22.763        0.105      339.274       12.494      869.641
12/01/2013  13:55:00      -16.896      -19.980       13.568       39.708       21.315       18.984     1576.689      454.337      360.396        0.163        0.120       26.167       21.809        0.695      339.538       12.940      869.646
12/01/2013  13:56:00      -55.793      -15.716        2.072       32.918       20.158       13.722     1083.588      406.358      188.280        0.252        0.084       57.964       11.786        0.041      339.301       12.541      869.648
12/01/2013  13:57:00      -46.290      -16.011        3.291       21.581       14.680       14.056      465.756      215.489      197.573        0.164        0.044       48.981       13.769        0.079      339.320       12.571      869.623
12/01/2013  13:58:00      -42.835      -31.611        2.929       25.339       26.108       18.763      642.061      681.627      352.046        0.226        0.084       53.236       18.778        0.124      339.340       12.606      869.582
12/01/2013  13:59:00        2.281       -0.772       19.349       21.922       16.651       18.149      480.590      277.249      329.375        0.073        0.054        2.408        7.047        8.561      339.783       13.354      869.558
12/01/2013  14:00:00       47.181      -52.770       -2.918       20.951       34.607       20.839      438.935     1197.648      434.273        0.354        0.104       70.786       14.340        0.041      339.276       12.498      869.547
12/01/2013  14:01:00       27.343        9.469       12.813       25.071       16.017       21.432      628.573      256.536      459.322        0.117        0.067       28.937       11.629        0.162      339.403       12.712      869.540
12/01/2013  14:02:00       -9.830        7.628       41.625       13.605       24.323       16.617      185.094      591.585      276.125        0.147        0.053       12.443       15.609        1.574      339.704       13.220      869.529
12/01/2013  14:03:00      -14.312       14.938       30.759       16.735       26.832       19.102      280.054      719.934      364.902        0.137        0.068       20.688       19.407        0.880      339.724       13.254      869.530
12/01/2013  14:04:00       -2.995       10.064       39.820       19.067       34.499       24.305      363.563     1190.206      590.712        0.192        0.107       10.500       26.677        6.455      339.733       13.270      869.537
12/01/2013  14:05:00      -15.217      -51.661        6.703       27.592       30.106       20.607      761.310      906.381      424.641        0.252        0.105       53.855       15.606        0.084      339.704       13.219      869.534
12/01/2013  14:06:00      -55.893      -35.116       -0.678       27.553       35.471       19.140      759.194     1258.211      366.341        0.337        0.119       66.008       14.812        0.050      339.483       12.848      869.522
12/01/2013  14:07:00      -89.580      -43.093        0.058       43.476       30.388       19.731     1890.173      923.447      389.330        0.654        0.160       99.406       20.628        0.043      339.312       12.559      869.509
12/01/2013  14:08:00      -99.909      -32.809        0.848       31.845       26.077       17.341     1014.114      680.026      300.693        0.653        0.100      105.158       18.357        0.030      339.440       12.774      869.489
12/01/2013  14:09:00      -92.902      -45.950       -5.709       33.589       21.686       18.516     1128.233      470.261      342.858        0.636        0.097      103.645       15.455        0.022      339.380       12.674      869.465
12/01/2013  14:10:00      -52.714      -25.249       -1.688       17.033       15.874       11.374      290.126      251.986      129.378        0.205        0.034       58.449       10.382        0.032      339.387       12.685      869.436
12/01/2013  14:11:00      -26.982      -18.071       -3.886       13.003       14.482       10.493      169.083      209.718      110.104        0.078        0.024       32.474        9.577        0.087      339.370       12.655      869.397
12/01/2013  14:12:00      -15.013       -1.779        4.792       12.680       23.111       12.060      160.791      534.134      145.454        0.055        0.042       15.118       12.234        0.655      339.615       13.070      869.371
12/01/2013  14:13:00        4.384       22.675       19.159       14.487       14.581       16.802      209.861      212.601      282.303        0.080        0.035       23.095        5.117        0.049      339.595       13.036      869.371
12/01/2013  14:14:00       21.002      -60.769       -3.970       38.632       67.959       37.190     1492.439     4618.390     1383.083        0.582        0.375       64.296       43.668        0.461      339.639       13.110      869.373
12/01/2013  14:15:00       60.405      -95.610      -19.468       54.742       61.405       32.972     2996.637     3770.623     1087.125        1.051        0.393      113.093        9.487        0.007      339.593       13.034      869.369
12/01/2013  14:16:00       53.600      -86.195       -6.665       41.645       70.575       53.871     1734.294     4980.881     2902.036        0.998        0.481      101.502       51.648        0.259      339.514       12.899      869.347
12/01/2013  14:17:00       32.424     -115.913      -17.039       18.065       20.993       22.400      326.355      440.690      501.742        0.802        0.063      120.363        9.240        0.006      339.380       12.672      869.332
12/01/2013  14:18:00       25.205      -45.820       15.394       33.082       39.100       31.783     1094.418     1528.840     1010.188        0.330        0.182       52.295       29.529        0.319      339.561       12.979      869.333
12/01/2013  14:19:00       -3.120      -31.769       -0.134       22.141       36.345       23.455      490.233     1320.984      550.123        0.169        0.118       31.922       11.263        0.124      339.615       13.069      869.343
12/01/2013  14:20:00      -45.047      -36.140       -9.312       22.668       31.224       19.116      513.843      974.933      365.412        0.264        0.093       57.752        9.216        0.025      339.492       12.862      869.358
12/01/2013  14:21:00      -65.049      -43.004        6.566       53.735       36.148       27.066     2887.419     1306.675      732.577        0.552        0.246       77.979       23.435        0.090      339.538       12.941      869.363
12/01/2013  14:22:00      -52.610      -40.933       -5.496       28.307       21.618       20.009      801.277      467.339      400.371        0.307        0.083       66.659       13.988        0.044      339.448       12.788      869.356
12/01/2013  14:23:00      -55.810      -38.792       -3.187       18.389       25.181       16.587      338.149      634.094      275.125        0.294        0.062       67.967        9.510        0.020      339.457       12.803      869.349
12/01/2013  14:24:00      -70.458       14.707       -6.928       14.968       11.146       10.945      224.034      124.241      119.792        0.285        0.023       71.977        8.655        0.014      339.351       12.624      869.354
12/01/2013  14:25:00      -56.861       45.477       -8.144       27.846       36.844       12.274      775.391     1357.465      150.641        0.383        0.114       72.811        8.820        0.015      339.400       12.706      869.339
12/01/2013  14:26:00      -19.826       68.846       -7.346       19.053       20.739       13.737      363.007      430.112      188.702        0.308        0.049       71.644        8.129        0.013      339.449       12.791      869.318
12/01/2013  14:27:00      -34.720       54.122       -8.823       20.623       41.023       20.890      425.322     1682.874      436.403        0.338        0.127       64.301       22.600        0.124      339.567       12.989      869.300
12/01/2013  14:28:00      -19.941       51.280       -5.378       16.465       36.148       15.156      271.111     1306.668      229.707        0.243        0.090       55.021       17.905        0.106      339.571       12.996      869.300
12/01/2013  14:29:00      -13.733       26.883       -1.354       15.759       24.003       12.871      248.344      576.120      165.663        0.095        0.050       30.188       11.286        0.140      339.556       12.971      869.308
12/01/2013  14:30:00        4.158       46.161       -6.276       15.472       12.265        8.199      239.384      150.426       67.224        0.132        0.023       46.348        7.071        0.023      339.524       12.914      869.329
12/01/2013  14:31:00       25.807       42.913       -1.332       19.376       21.995       18.154      375.418      483.774      329.560        0.185        0.059       50.076       11.764        0.055      339.563       12.983      869.349
12/01/2013  14:32:00       24.673       16.833        1.635       20.243       14.026       16.759      409.784      196.738      280.868        0.089        0.044       29.869        9.729        0.106      339.610       13.059      869.369
12/01/2013  14:33:00       14.241       27.539       -6.416       15.550       17.219       11.447      241.792      296.486      131.037        0.084        0.033       31.003        8.657        0.078      339.563       12.983      869.373
12/01/2013  14:34:00       23.527       15.157       11.195       19.436       14.740       14.281      377.742      217.263      203.939        0.085        0.040       27.987       10.434        0.139      339.658       13.141      869.370
12/01/2013  14:35:00       15.345        6.556       29.173       15.587       10.686        9.640      242.949      114.183       92.934        0.079        0.023       16.687        7.466        0.200      339.774       13.336      869.373
12/01/2013  14:36:00       53.200       35.187       19.957       23.414       11.701       17.427      548.225      136.907      303.701        0.273        0.049       63.784        4.318        0.005      339.547       12.955      869.364
12/01/2013  14:37:00       51.055       38.819       11.324       21.036       16.192       14.928      442.507      262.181      222.850        0.258        0.046       64.136       11.503        0.032      339.503       12.880      869.369
12/01/2013  14:38:00       79.621       48.849       -3.396       36.260       21.212       20.459     1314.767      449.957      418.585        0.546        0.109       93.412       16.339        0.031      339.466       12.818      869.379
12/01/2013  14:39:00       28.246       33.428        6.629       31.869       26.571       21.908     1015.638      706.004      479.949        0.208        0.110       43.763       15.179        0.120      339.484       12.849      869.384
12/01/2013  14:40:00       33.908       64.972       -4.648       46.100       26.831       29.565     2125.235      719.884      874.088        0.456        0.186       73.287       22.336        0.093      339.500       12.877      869.392
12/01/2013  14:41:00       45.076       42.123        6.214       33.681       25.663       20.068     1134.417      658.582      402.710        0.302        0.110       61.695       12.091        0.038      339.541       12.945      869.403
12/01/2013  14:42:00       19.490       42.052        3.001       24.867       27.147       18.889      618.368      736.984      356.786        0.193        0.086       46.349       17.903        0.149      339.541       12.945      869.418
12/01/2013  14:43:00       -3.448       24.757       -6.880       23.195       17.429       17.164      538.022      303.760      294.596        0.090        0.057       24.996       11.921        0.227      339.561       12.977      869.434
12/01/2013  14:44:00       10.568       -0.266        8.652       22.454       13.054       15.953      504.195      170.397      254.509        0.056        0.046       10.571       10.959        1.075      339.581       13.012      869.454
12/01/2013  14:45:00        5.855       54.691       -7.805       13.749       31.620       11.952      189.039      999.833      142.848        0.221        0.067       55.003       15.378        0.078      339.504       12.881      869.471
12/01/2013  14:46:00      -26.071       26.179        2.261       23.433       22.613       13.246      549.126      511.340      175.448        0.130        0.062       36.947       11.450        0.096      339.587       13.023      869.480
12/01/2013  14:47:00      -30.224       36.168       -0.029       23.224       27.084       16.144      539.334      733.529      260.619        0.188        0.077       47.134       10.884        0.053      339.621       13.081      869.473
12/01/2013  14:48:00      -34.016       17.920       -0.576        8.740       13.003        8.728       76.383      169.089       76.177        0.090        0.016       38.448        6.356        0.027      339.560       12.977      869.448
12/01/2013  14:49:00      -20.332       21.033       -4.564       16.334       12.966        6.326      266.788      168.111       40.012        0.068        0.024       29.254        5.280        0.033      339.524       12.918      869.412
12/01/2013  14:50:00      -33.059        3.015       -7.960       23.111       12.270        8.731      534.122      150.552       76.225        0.096        0.038       33.196       11.970        0.130      339.577       13.006      869.368
12/01/2013  14:51:00      -66.929      -12.550      -14.477       12.810       15.719        9.340      164.097      247.099       87.238        0.267        0.025       68.095        8.948        0.017      339.545       12.953      869.338
12/01/2013  14:52:00      -45.728      -16.089       -9.859       15.780       22.863       10.626      249.012      522.703      112.908        0.167        0.044       48.476       10.854        0.050      339.569       12.993      869.330
12/01/2013  14:53:00      -52.518      -24.681      -17.282        8.632        7.989        7.049       74.514       63.824       49.694        0.193        0.009       58.028        4.259        0.005      339.537       12.935      869.341
12/01/2013  14:54:00      -36.099      -21.981       -2.256       14.683       18.316        9.209      215.605      335.479       84.810        0.121        0.032       42.264        8.282        0.038      339.587       13.023      869.357
12/01/2013  14:55:00      -43.648       14.414       -7.340       12.768       21.513        7.674      163.020      462.789       58.889        0.143        0.034       45.966        4.218        0.008      339.625       13.089      869.366
12/01/2013  14:56:00      -59.524        6.935       -3.412       13.635       12.812       10.359      185.925      164.141      107.315        0.203        0.023       59.927        6.470        0.012      339.647       13.125      869.364
12/01/2013  14:57:00      -97.855       20.776       -8.555       34.646       24.145       19.965     1200.347      582.980      398.593        0.613        0.109      100.036       17.760        0.032      339.547       12.953      869.348
12/01/2013  14:58:00      -84.101        3.383       -7.387       19.990       19.238       10.326      399.609      370.101      106.630        0.401        0.044       84.169        9.907        0.014      339.529       12.922      869.325
12/01/2013  14:59:00      -56.115      -17.443       -3.783       20.271       12.587       14.441      410.893      158.426      208.533        0.212        0.039       58.763       13.441        0.052      339.539       12.940      869.308
12/01/2013  15:00:00      -44.582      -21.507       -9.327       11.011        5.482        5.545      121.253       30.058       30.750        0.136        0.009       49.498        2.888        0.003      339.565       12.990      869.300
12/01/2013  15:01:00       -9.252      -15.769       -3.412       10.205       12.941       10.235      104.143      167.480      104.752        0.036        0.019       18.283        8.115        0.197      339.579       13.012      869.323
12/01/2013  15:02:00      -22.734        6.974        5.490       13.791       16.718        8.740      190.200      279.491       76.389        0.057        0.027       23.780        7.571        0.101      339.626       13.088      869.349
12/01/2013  15:03:00      -47.853       25.945      -11.385       10.659       11.125        6.752      113.606      123.758       45.588        0.169        0.014       54.434        3.444        0.004      339.558       12.973      869.372
12/01/2013  15:04:00      -34.265       16.026       -1.086       19.010       14.248       11.772      361.369      202.996      138.578        0.107        0.035       37.828        6.198        0.027      339.568       12.992      869.393
12/01/2013  15:05:00      -72.634       22.157       -6.268       12.076        8.308        8.073      145.833       69.018       65.171        0.304        0.014       75.938        5.218        0.005      339.574       13.002      869.397
12/01/2013  15:06:00      -69.470      -10.664       -8.774       20.253       17.958       11.259      410.203      322.473      126.760        0.294        0.043       70.284       11.186        0.025      339.560       12.978      869.402
12/01/2013  15:07:00      -63.865      -38.624      -13.832       23.704       16.039       13.054      561.879      257.247      170.418        0.338        0.049       74.636        7.218        0.009      339.467       12.819      869.409
12/01/2013  15:08:00      -69.952      -46.217        4.483       34.226       19.786       20.774     1171.422      391.482      431.555        0.452        0.100       83.840       12.330        0.022      339.467       12.820      869.396
12/01/2013  15:09:00      -23.161      -42.792        9.867       43.890       42.374       22.835     1926.357     1795.552      521.453        0.335        0.212       48.658       27.336        0.316      339.531       12.928      869.354
12/01/2013  15:10:00      -71.266     -126.912       -1.498       32.874       41.612       25.139     1080.671     1731.586      631.967        1.232        0.172      145.553       24.882        0.029      339.545       12.953      869.309
12/01/2013  15:11:00      -95.889     -162.942       -7.515       26.017       35.624       24.440      676.862     1269.085      597.309        1.917        0.127      189.063       15.732        0.007      339.570       12.994      869.271
12/01/2013  15:12:00      -70.012      -86.328        3.742       57.854       54.874       30.776     3347.076     3011.199      947.165        0.984        0.365      111.150       34.833        0.098      339.550       12.961      869.255
12/01/2013  15:13:00      -85.184      -57.159        3.941       52.204       44.652       30.870     2725.253     1993.821      952.949        0.810        0.284      102.584       27.873        0.074      339.526       12.920      869.248
12/01/2013  15:14:00      -92.982      -83.950        2.723       40.024       37.050       25.737     1601.923     1372.731      662.393        0.967        0.182      125.273       14.359        0.013      339.542       12.947      869.261
12/01/2013  15:15:00     -106.886      -76.703       -5.551       35.991       37.585       24.240     1295.342     1412.623      587.562        1.032        0.165      131.560       19.470        0.022      339.540       12.945      869.279
12/01/2013  15:16:00      -65.576      -81.376      -10.750       33.379       33.982       22.331     1114.185     1154.749      498.692        0.690        0.138      104.509       19.988        0.037      339.588       13.024      869.302
12/01/2013  15:17:00      -79.077      -10.777       -3.902       25.555       22.551       14.841      653.071      508.557      220.269        0.388        0.069       79.808       13.942        0.031      339.592       13.029      869.315
12/01/2013  15:18:00      -76.613      -46.309       -7.702       32.744       23.931       20.350     1072.201      572.702      414.126        0.507        0.103       89.522       20.093        0.050      339.630       13.098      869.304
12/01/2013  15:19:00      -76.925      -64.266       -2.178       41.583       28.427       22.566     1729.160      808.082      509.235        0.655        0.152      100.237       22.971        0.053      339.640       13.114      869.284
12/01/2013  15:20:00     -114.070     -104.108        1.462       54.265       47.648       33.340     2944.662     2270.313     1111.532        1.509        0.316      154.436       29.951        0.038      339.571       12.995      869.262
12/01/2013  15:21:00     -139.209     -117.495        2.826       45.815       52.831       22.016     2099.050     2791.157      484.724        1.928        0.269      182.165       23.232        0.016      339.560       12.976      869.254
12/01/2013  15:22:00     -138.973      -93.247       -9.043       45.965       46.049       29.829     2112.809     2120.499      889.743        1.661        0.256      167.358       22.418        0.018      339.545       12.952      869.256
12/01/2013  15:23:00      -61.552      -46.278       16.838       40.266       47.153       27.584     1621.370     2223.399      760.877        0.541        0.230       77.008       21.741        0.080      339.553       12.964      869.261
12/01/2013  15:24:00     -123.928     -101.774      -10.560       34.521       46.920       21.756     1191.719     2201.501      473.312        1.485        0.193      160.362       26.289        0.027      339.577       13.007      869.271
12/01/2013  15:25:00     -101.392      -72.995        2.315       42.779       42.658       23.609     1830.001     1819.726      557.389        0.991        0.210      124.935       23.507        0.035      339.569       12.992      869.275
12/01/2013  15:26:00      -85.872     -100.045       -6.410       36.311       38.590       20.656     1318.511     1489.160      426.672        1.033        0.162      131.844       19.062        0.021      339.589       13.026      869.261
12/01/2013  15:27:00      -74.607      -71.474        0.257       35.940       34.544       20.498     1291.664     1193.319      420.157        0.679        0.145      103.319       12.743        0.015      339.617       13.074      869.230
12/01/2013  15:28:00      -79.730      -88.434       -3.800       27.617       48.617       20.121      762.718     2363.577      404.866        0.886        0.177      119.069       17.037        0.020      339.606       13.054      869.204
12/01/2013  15:29:00      -87.709     -154.834      -12.468       29.027       39.829       18.720      842.578     1586.356      350.438        1.730        0.139      177.950       10.543        0.004      339.596       13.039      869.182
12/01/2013  15:30:00      -53.337     -122.902       -7.415       30.305       55.787       19.143      918.407     3112.236      366.468        1.120        0.220      133.976       17.679        0.017      339.603       13.051      869.167
12/01/2013  15:31:00      -67.942      -86.237       -6.386       53.752       48.654       20.739     2889.247     2367.166      430.087        0.889        0.284      109.786       24.338        0.049      339.640       13.113      869.168
12/01/2013  15:32:00     -115.129     -121.517      -12.196       32.828       34.008       19.943     1077.654     1156.529      397.709        1.540        0.132      167.395       13.434        0.006      339.578       13.009      869.162
12/01/2013  15:33:00     -105.124     -121.472      -17.963       38.350       37.374       21.539     1470.741     1396.792      463.930        1.473        0.167      160.644       20.622        0.016      339.573       13.001      869.172
12/01/2013  15:34:00     -103.968      -80.228       -7.064       43.091       38.020       25.161     1856.827     1445.493      633.082        1.061        0.197      131.324       21.005        0.026      339.563       12.981      869.186
12/01/2013  15:35:00      -88.749      -76.817       -2.200       31.036       29.964       21.915      963.209      897.824      480.279        0.806        0.117      117.376       19.812        0.028      339.593       13.031      869.199
12/01/2013  15:36:00      -57.001      -43.670        1.736       45.044       29.930       20.555     2028.996      895.831      422.505        0.425        0.167       71.806       20.881        0.085      339.659       13.144      869.199
12/01/2013  15:37:00      -85.988      -45.798        3.327       52.571       33.077       22.716     2763.711     1094.105      516.033        0.694        0.219       97.424       22.205        0.052      339.626       13.089      869.200
12/01/2013  15:38:00     -108.695      -55.245       -2.284       44.123       46.918       27.839     1946.840     2201.332      774.983        0.990        0.246      121.929       22.458        0.034      339.569       12.993      869.179
12/01/2013  15:39:00      -76.465      -55.904       -0.146       42.593       44.712       19.380     1814.133     1999.141      375.583        0.658        0.209       94.722       22.797        0.058      339.583       13.017      869.179
12/01/2013  15:40:00      -78.313      -32.759       -1.661       24.872       18.397       14.416      618.619      338.454      207.830        0.419        0.058       84.888       11.594        0.019      339.619       13.076      869.189
12/01/2013  15:41:00      -36.253        3.128        0.740       28.256       19.169       13.380      798.374      367.461      179.012        0.133        0.067       36.388       14.479        0.158      339.595       13.035      869.213
12/01/2013  15:42:00      -90.195       21.348       -9.301       30.213       17.357       13.466      912.818      301.253      181.332        0.504        0.070       92.687       14.059        0.023      339.593       13.032      869.234
12/01/2013  15:43:00      -75.306       15.369       -7.293       31.698       17.557       10.506     1004.737      308.242      110.381        0.369        0.071       76.858        9.650        0.016      339.632       13.099      869.240
12/01/2013  15:44:00       -9.690        9.790        1.695       11.067       16.682        7.364      122.470      278.296       54.233        0.032        0.023       13.775        5.652        0.168      339.715       13.238      869.252
12/01/2013  15:45:00       -0.660       20.566        2.294       12.173       13.597        9.292      148.185      184.876       86.337        0.042        0.021       20.577        5.933        0.083      339.644       13.118      869.277
12/01/2013  15:46:00        0.633       49.816      -12.973       21.134       12.733        8.622      446.651      162.133       74.336        0.167        0.034       49.820        8.122        0.027      339.626       13.089      869.313
12/01/2013  15:47:00       18.146       68.320      -15.347       12.194       19.604       10.415      148.689      384.328      108.480        0.294        0.032       70.689        8.158        0.013      339.559       12.975      869.337
12/01/2013  15:48:00       12.680       67.996      -12.285       13.034       12.017        9.991      169.873      144.409       99.825        0.267        0.021       69.169        8.508        0.015      339.599       13.046      869.351
12/01/2013  15:49:00        9.224       47.248      -11.458        9.759       11.210        6.051       95.238      125.671       36.616        0.135        0.013       48.140        7.270        0.023      339.638       13.108      869.340
12/01/2013  15:50:00       17.032       18.338       -5.992        4.417        9.963        4.371       19.508       99.253       19.107        0.040        0.007       25.027        4.672        0.035      339.605       13.054      869.318
12/01/2013  15:51:00       17.168        1.621       -1.389        6.241        3.875        3.314       38.950       15.017       10.985        0.018        0.003       17.245        2.065        0.014      339.622       13.085      869.296
12/01/2013  15:52:00        8.562       -0.350       -2.032        4.253        3.039        2.663       18.089        9.238        7.090        0.006        0.002        8.570        2.405        0.079      339.641       13.116      869.275
12/01/2013  15:53:00       -2.250       -8.229       -3.185       10.493        6.474        5.725      110.111       41.906       32.775        0.013        0.009        8.531        5.387        0.399      339.730       13.263      869.240
12/01/2013  15:54:00       -3.623      -28.132       -4.416       18.564       17.501        8.724      344.611      306.290       76.107        0.078        0.036       28.364        8.761        0.095      339.762       13.319      869.190
12/01/2013  15:55:00       -3.187      -32.162        2.320       24.422       18.459       15.021      596.418      340.730      225.617        0.111        0.058       32.320        6.963        0.046      339.723       13.252      869.134
12/01/2013  15:56:00      -10.991       -0.103        7.097       20.103       17.086       12.911      404.144      291.942      166.685        0.052        0.043       10.991       10.369        0.890      339.643       13.117      869.063
12/01/2013  15:57:00        7.351      -12.424       -3.763       27.835       22.940       16.201      774.814      526.262      262.486        0.089        0.078       14.436       17.122        1.407      339.615       13.071      869.030
12/01/2013  15:58:00       -9.486       20.450       13.356       21.476       20.467       12.452      461.234      418.905      155.062        0.086        0.052       22.543       12.826        0.324      339.535       12.935      869.050
12/01/2013  15:59:00      -12.245       23.241        6.335       25.453       12.557       12.313      647.871      157.667      151.598        0.084        0.048       26.269       14.859        0.320      339.540       12.943      869.104
12/01/2013  16:00:00       37.834       45.871        7.695       17.955       14.205       10.699      322.391      201.772      114.474        0.212        0.032       59.460        6.936        0.014      339.476       12.835      869.154
12/01/2013  16:01:00       32.996       24.996       -0.062       28.467       20.769       14.128      810.361      431.346      199.586        0.158        0.072       41.395        5.377        0.017      339.506       12.887      869.191
12/01/2013  16:02:00       52.497       51.507       -3.520       24.321       18.183       14.036      591.530      330.639      196.997        0.327        0.056       73.545        6.150        0.007      339.420       12.740      869.203
12/01/2013  16:03:00       70.807       42.360        3.787       18.528       13.473       14.209      343.293      181.509      201.884        0.377        0.036       82.511        7.793        0.009      339.381       12.675      869.204
12/01/2013  16:04:00       58.787       27.691       17.437       33.947       25.741       19.137     1152.404      662.581      366.211        0.335        0.109       64.983       10.132        0.024      339.412       12.726      869.185
12/01/2013  16:05:00       65.644       52.701       36.582       13.825       13.023       13.852      191.140      169.603      191.864        0.449        0.028       84.182        6.305        0.006      339.510       12.894      869.170
12/01/2013  16:06:00       62.003       55.205       42.796       14.925       10.841       10.567      222.764      117.519      111.653        0.459        0.023       83.018        6.126        0.005      339.577       13.006      869.148
12/01/2013  16:07:00       55.160       41.272       34.658       18.150       16.390       15.487      329.406      268.624      239.833        0.339        0.042       68.891       10.416        0.023      339.530       12.927      869.128
12/01/2013  16:08:00       51.108       30.442       23.715       12.577       11.532       10.679      158.174      132.992      114.047        0.225        0.020       59.488        4.639        0.006      339.458       12.804      869.093
12/01/2013  16:09:00       49.920       30.712       29.140       17.749        9.577       12.921      315.015       91.718      166.956        0.243        0.029       58.610       10.191        0.030      339.486       12.852      869.043
12/01/2013  16:10:00       21.104       27.744       34.180       17.836       20.197       16.470      318.126      407.909      271.272        0.169        0.050       34.859       13.964        0.160      339.415       12.733      868.991
12/01/2013  16:11:00       23.483       -0.232       22.149       27.861       35.463       25.851      776.253     1257.629      668.267        0.187        0.135       23.484       29.051        1.530      339.463       12.814      868.933
12/01/2013  16:12:00       21.489       -2.968       27.060       22.296       28.010       20.585      497.110      784.582      423.749        0.145        0.085       21.693       15.008        0.479      339.345       12.614      868.881
12/01/2013  16:13:00       -2.868       21.803       46.232       15.034       25.128       20.615      226.025      631.414      424.961        0.195        0.064       21.990       19.660        0.799      339.336       12.601      868.846
12/01/2013  16:14:00        1.027       10.537       25.918       13.046       21.766       18.061      170.189      473.776      326.217        0.088        0.049       10.587        9.641        0.829      339.325       12.580      868.819
12/01/2013  16:15:00       12.828       -6.336       18.024       34.074       39.314       20.487     1161.019     1545.599      419.699        0.183        0.156       14.307       23.963        2.805      339.257       12.467      868.825
12/01/2013  16:16:00       29.608      -24.372       10.651       28.287       25.430       20.622      800.172      646.672      425.263        0.173        0.094       38.349       16.406        0.183      339.389       12.689      868.866
12/01/2013  16:17:00      -22.444       -8.297       11.517       27.985       29.514       20.495      783.145      871.089      420.032        0.139        0.104       23.929       21.712        0.823      339.455       12.798      868.962
12/01/2013  16:18:00      -60.703       36.165        3.467       10.977        9.617       16.182      120.484       92.496      261.850        0.274        0.024       70.659        5.078        0.005      339.487       12.853      869.068
12/01/2013  16:19:00      -37.386       45.120       -7.379       23.127       15.270        9.264      534.867      233.182       85.815        0.217        0.043       58.597        8.461        0.021      339.480       12.843      869.172
12/01/2013  16:20:00      -46.907       61.927      -13.200       21.586       14.916        7.630      465.977      222.491       58.210        0.348        0.037       77.687        4.032        0.003      339.350       12.623      869.215
12/01/2013  16:21:00      -42.592       40.580      -10.206       10.743       20.928        7.739      115.416      437.990       59.897        0.209        0.031       58.829        9.533        0.026      339.312       12.558      869.201
12/01/2013  16:22:00       -1.661        1.894        3.964       12.275       10.143        4.687      150.672      102.886       21.964        0.015        0.014        2.519        4.022        2.549      339.312       12.560      869.148
12/01/2013  16:23:00       10.823      -30.309       -3.910       10.463       12.093        8.252      109.473      146.237       68.097        0.069        0.016       32.183        6.774        0.044      339.139       12.268      869.083
12/01/2013  16:24:00       -4.604      -24.741       -5.465       13.137       10.838        9.573      172.577      117.473       91.648        0.052        0.019       25.165        8.309        0.109      339.137       12.265      869.044
12/01/2013  16:25:00      -14.692      -24.706       -2.609       10.704       10.117        7.810      114.585      102.346       60.993        0.056        0.014       28.745        2.226        0.006      339.275       12.497      869.035
12/01/2013  16:26:00      -30.436       -1.694       -0.042        7.709        4.104        5.563       59.427       16.846       30.949        0.052        0.005       30.483        3.923        0.017      339.221       12.407      869.053
12/01/2013  16:27:00      -47.232        9.611       -2.816        7.746        4.929        4.395       60.003       24.294       19.319        0.122        0.005       48.200        2.700        0.003      339.141       12.269      869.092
12/01/2013  16:28:00      -52.869        4.922       -6.717        5.430        6.465        4.748       29.485       41.801       22.543        0.148        0.005       53.098        3.661        0.005      339.039       12.100      869.138
12/01/2013  16:29:00      -55.637       -0.964       -4.992        9.371        8.376        4.995       87.819       70.155       24.952        0.165        0.009       55.645        3.535        0.004      338.912       11.886      869.164
12/01/2013  16:30:00      -39.912      -24.883       -6.840       10.320        8.874        6.005      106.512       78.750       36.059        0.124        0.011       47.033        2.739        0.003      338.839       11.764      869.150
12/01/2013  16:31:00      -74.227       -6.189      -11.243        9.950       10.107        7.026       99.002      102.145       49.371        0.296        0.013       74.485        3.077        0.002      338.801       11.699      869.115
12/01/2013  16:32:00      -86.377        3.677      -14.114        7.257        6.741        4.936       52.659       45.447       24.363        0.390        0.006       86.455        1.857        0.000      338.886       11.841      869.090
12/01/2013  16:33:00      -83.527       11.295      -13.376       13.756       10.379        6.701      189.225      107.718       44.908        0.381        0.017       84.287        2.834        0.001      338.729       11.578      869.092
12/01/2013  16:34:00      -60.422       -9.729       -8.838       15.013       16.233        8.896      225.403      263.501       79.131        0.220        0.028       61.201        7.841        0.016      338.570       11.311      869.092
12/01/2013  16:35:00      -45.959      -15.707       -4.119       11.124       12.231        8.872      123.737      149.600       78.716        0.136        0.018       48.568        5.065        0.011      338.454       11.117      869.085
12/01/2013  16:36:00      -32.017      -17.475       -8.186       15.786       15.572        9.135      249.199      242.501       83.453        0.099        0.029       36.475        8.208        0.051      338.467       11.139      869.064
12/01/2013  16:37:00      -22.827      -26.956       -0.305       14.857       12.764       12.965      220.726      162.909      168.079        0.090        0.028       35.323        8.511        0.058      338.291       10.844      869.036
12/01/2013  16:38:00      -50.613      -32.062       -8.665       22.585       17.621       12.768      510.096      310.504      163.019        0.232        0.049       59.914        6.511        0.012      338.179       10.654      869.007
12/01/2013  16:39:00      -75.340      -10.962      -22.107       17.781       13.714       13.664      316.175      188.063      186.702        0.349        0.035       76.133       12.423        0.027      338.306       10.868      868.963
12/01/2013  16:40:00      -96.621       -5.989      -13.894       15.550       13.313       12.532      241.791      177.249      157.047        0.507        0.029       96.807        8.954        0.009      338.216       10.716      868.941
12/01/2013  16:41:00     -114.749       -7.705      -13.588       19.770       12.980       12.058      390.840      168.469      145.407        0.706        0.035      115.007       10.035        0.008      338.145       10.597      868.924
12/01/2013  16:42:00     -116.256      -18.554      -12.999       19.080       17.173       14.817      364.057      294.921      219.542        0.745        0.044      117.727        9.215        0.006      338.060       10.457      868.882
12/01/2013  16:43:00     -122.328      -22.502      -13.240       23.797       24.211       13.069      566.316      586.159      170.794        0.848        0.066      124.380       13.428        0.012      338.029       10.403      868.855
12/01/2013  16:44:00      -78.149      -12.446       -2.543       34.647       26.430       22.034     1200.400      698.561      485.493        0.433        0.119       79.134       18.135        0.053      337.934       10.242      868.847
12/01/2013  16:45:00      -40.233      -17.491       -0.790       33.465       23.470       17.869     1119.939      550.836      319.300        0.196        0.100       43.870       18.165        0.171      337.787        9.996      868.853
12/01/2013  16:46:00      -52.986      -32.815       -8.970       24.682       22.232       16.865      609.188      494.256      284.422        0.268        0.069       62.325       13.889        0.050      337.789       10.001      868.878
12/01/2013  16:47:00      -90.278      -34.533       -5.818       25.775       25.616       17.653      664.373      656.163      311.632        0.550        0.082       96.657       11.396        0.014      337.670        9.801      868.903
12/01/2013  16:48:00     -120.564      -16.700      -19.750       17.783       19.526       11.521      316.224      381.267      132.739        0.802        0.042      121.715        8.543        0.005      337.744        9.924      868.928
12/01/2013  16:49:00      -89.905      -14.003      -14.268       20.578       22.464       13.675      423.442      504.653      187.013        0.480        0.056       90.989        7.748        0.007      337.666        9.794      868.943
12/01/2013  16:50:00      -76.873      -10.749       -6.424       21.551       25.987       11.780      464.447      675.342      138.762        0.367        0.064       77.621       11.610        0.022      337.652        9.772      868.952
12/01/2013  16:51:00      -76.175       14.782       -9.142       47.576       39.897       21.376     2263.516     1591.769      456.915        0.521        0.216       77.596       19.064        0.060      337.837       10.082      868.951
12/01/2013  16:52:00      -95.979      -26.720       -6.317       41.989       34.071       18.567     1763.069     1160.820      344.740        0.662        0.163       99.629       12.935        0.017      337.521        9.552      868.958
12/01/2013  16:53:00      -91.851       -9.226       -4.818       48.945       51.574       27.591     2395.611     2659.886      761.262        0.718        0.291       92.313       26.382        0.082      337.606        9.693      868.975
12/01/2013  16:54:00     -142.176       50.713      -12.129       49.377       28.441       21.882     2438.060      808.897      478.824        1.333        0.186      150.950       11.884        0.006      337.867       10.131      868.990
12/01/2013  16:55:00     -122.341       27.769       -8.196       44.931       30.358       16.761     2018.831      921.597      280.917        0.951        0.161      125.453        7.937        0.004      337.775        9.976      869.005
12/01/2013  16:56:00      -66.664        8.858       -8.833       25.116       22.105       12.412      630.792      488.647      154.067        0.294        0.064       67.250        7.742        0.013      337.619        9.716      869.023
12/01/2013  16:57:00      -70.876       17.360       -1.516       40.358       25.040       16.807     1628.770      627.024      282.465        0.393        0.127       72.971        2.560        0.001      337.598        9.680      869.023
12/01/2013  16:58:00      -88.027        1.751       -7.537       22.810       27.627       16.769      520.318      763.264      281.187        0.469        0.078       88.045       10.027        0.013      337.459        9.447      869.019
12/01/2013  16:59:00     -106.259       -1.267       -9.664       33.468       33.681       22.287     1120.125     1134.380      496.720        0.707        0.138      106.266       16.734        0.025      337.431        9.400      869.011
12/01/2013  17:00:00     -156.909       28.756      -24.394       46.290       43.698       20.655     2142.749     1909.514      426.612        1.526        0.224      159.523       17.507        0.012      337.639        9.749      869.014
12/01/2013  17:01:00     -119.648       -0.046      -18.729       45.652       32.914       21.422     2084.130     1083.347      458.907        0.915        0.181      119.648       14.274        0.014      337.476        9.475      869.018
12/01/2013  17:02:00     -134.994       29.742      -12.930       40.073       31.348       23.693     1605.863      982.673      561.379        1.121        0.157      138.232       21.484        0.024      337.339        9.246      869.017
12/01/2013  17:03:00     -131.025       38.604       -9.794       30.821       26.498       18.913      949.943      702.158      357.686        1.038        0.100      136.594       15.580        0.013      337.450        9.433      869.007
12/01/2013  17:04:00     -111.208       26.055      -11.867       40.238       28.718       18.978     1619.102      824.742      360.168        0.799        0.140      114.220       15.436        0.018      337.695        9.843      868.986
12/01/2013  17:05:00     -118.329       11.102       -8.692       30.550       24.739       15.269      933.292      612.003      233.144        0.799        0.089      118.849       10.920        0.008      337.727        9.895      868.978
12/01/2013  17:06:00      -63.833        1.867       -3.149       42.237       36.328       21.162     1783.926     1319.706      447.830        0.382        0.178       63.860       19.089        0.089      337.616        9.708      868.987
12/01/2013  17:07:00      -91.316       -2.314       -9.391       25.821       33.521       15.875      666.748     1123.662      252.025        0.524        0.102       91.345       11.620        0.016      337.595        9.675      868.998
12/01/2013  17:08:00     -104.089      -18.209      -13.610       30.286       37.799       21.941      917.270     1428.751      481.393        0.709        0.141      105.670       18.352        0.030      337.584        9.657      868.996
12/01/2013  17:09:00     -120.162      -47.398       -4.274       20.291       26.188       20.644      411.736      685.823      426.192        0.911        0.076      129.172       12.029        0.009      337.479        9.480      868.998
12/01/2013  17:10:00     -128.889      -31.718       -7.081       23.255       23.537       16.987      540.796      553.996      288.548        0.953        0.069      132.734       12.453        0.009      337.306        9.190      868.996
12/01/2013  17:11:00      -82.618      -22.473       -4.041       32.978       30.168       17.254     1087.517      910.128      297.689        0.482        0.115       85.620       15.291        0.032      337.153        8.935      868.993
12/01/2013  17:12:00      -92.777      -25.844       -5.803       26.037       28.875       18.592      677.907      833.743      345.675        0.558        0.093       96.310       16.133        0.028      337.146        8.921      868.988
12/01/2013  17:13:00     -127.828      -30.123       -9.745       30.119       30.451       18.800      907.138      927.282      353.428        0.976        0.109      131.329       16.491        0.016      337.089        8.826      868.984
12/01/2013  17:14:00     -100.432      -40.624      -12.390       25.584       31.941       16.016      654.536     1020.197      256.514        0.691        0.097      108.337        9.080        0.007      337.074        8.801      868.987
12/01/2013  17:15:00      -74.134      -45.549       -3.331       32.239       27.484       25.445     1039.345      755.388      647.432        0.501        0.122       87.009       22.817        0.069      337.026        8.722      868.989
12/01/2013  17:16:00      -71.241      -35.410       -3.168       38.235       31.865       20.455     1461.949     1015.401      418.395        0.462        0.145       79.556       19.008        0.057      336.975        8.638      868.992
12/01/2013  17:17:00      -81.760      -27.551       -0.162       64.441       25.080       21.324     4152.657      628.991      454.712        0.634        0.262       86.277       28.968        0.113      337.000        8.679      868.984
12/01/2013  17:18:00      -92.832      -27.310       -1.843       42.902       35.493       20.366     1840.575     1259.770      414.762        0.644        0.176       96.766       18.256        0.036      336.963        8.616      868.985
12/01/2013  17:19:00      -95.986      -37.297        0.164       34.147       31.381       17.999     1165.987      984.779      323.976        0.654        0.124      102.978       13.132        0.016      336.988        8.657      868.975
12/01/2013  17:20:00      -90.259      -16.364       -3.271       36.815       34.897       20.396     1355.355     1217.782      416.006        0.571        0.149       91.730       18.723        0.042      336.924        8.551      868.975
12/01/2013  17:21:00      -98.232      -47.552       -9.834       32.792       29.221       18.511     1075.310      853.851      342.657        0.714        0.114      109.136       19.250        0.031      336.863        8.450      868.972
12/01/2013  17:22:00      -94.357      -39.778       -8.514       53.908       31.870       20.651     2906.052     1015.666      426.453        0.745        0.217      102.399       23.824        0.054      336.876        8.471      868.973
12/01/2013  17:23:00      -35.685      -44.138        2.074       41.315       24.145       27.260     1706.967      582.968      743.132        0.313        0.152       56.759       27.681        0.238      336.829        8.395      868.969
12/01/2013  17:24:00     -113.747      -44.473       -9.353       44.939       15.411       16.982     2019.481      237.514      288.377        0.877        0.127      122.133       22.150        0.033      337.008        8.691      868.964
12/01/2013  17:25:00     -117.085      -24.984      -18.351       11.429       10.387        8.732      130.631      107.884       76.254        0.749        0.016      119.721        5.528        0.002      337.139        8.911      868.953
12/01/2013  17:26:00     -114.011      -25.690      -23.584       11.299        9.736       10.041      127.662       94.798      100.820        0.727        0.016      116.869        8.068        0.005      337.226        9.056      868.956
12/01/2013  17:27:00     -128.609      -17.762      -24.675        9.405       15.314       10.510       88.460      234.520      110.459        0.895        0.022      129.830        6.391        0.002      337.150        8.927      868.956
12/01/2013  17:28:00      -88.357      -57.428       -4.850       29.237       25.842       21.316      854.805      667.810      454.391        0.655        0.099      105.380       20.781        0.039      336.998        8.675      868.972
12/01/2013  17:29:00     -106.209      -27.530       -9.037       24.594       25.184       18.526      604.856      634.210      343.202        0.685        0.079      109.719       14.609        0.018      336.953        8.599      868.978
12/01/2013  17:30:00      -99.348      -52.235       -3.864       22.389       18.964       15.991      501.273      359.624      255.700        0.686        0.056      112.243       11.164        0.010      337.069        8.792      868.983
12/01/2013  17:31:00      -93.958      -43.958       -5.573       21.633       19.017       15.183      467.986      361.631      230.516        0.593        0.053      103.733       12.056        0.014      337.030        8.729      868.980
12/01/2013  17:32:00      -92.751      -35.409       -2.301       17.953       17.631       13.607      322.292      310.840      185.159        0.534        0.041       99.280        9.908        0.010      336.934        8.568      868.966
12/01/2013  17:33:00     -115.253      -24.267       -8.517       21.882       14.025       13.051      478.841      196.709      170.316        0.740        0.042      117.780       11.336        0.009      336.859        8.442      868.957
12/01/2013  17:34:00     -133.541      -21.573      -13.452       22.402       15.207       14.193      501.857      231.260      201.434        0.971        0.047      135.272       10.432        0.006      336.887        8.489      868.940
12/01/2013  17:35:00     -102.148        6.366       -8.329       25.017       16.899       12.692      625.874      285.561      161.093        0.581        0.054      102.346       11.768        0.013      336.949        8.592      868.919
12/01/2013  17:36:00     -107.979       17.055       -8.283       21.376       17.376        9.988      456.939      301.915       99.758        0.644        0.043      109.317        9.734        0.008      337.046        8.754      868.915
12/01/2013  17:37:00     -110.545        2.860      -14.916       14.399       17.525       11.251      207.343      307.136      126.581        0.655        0.032      110.582        8.482        0.006      337.005        8.687      868.928
12/01/2013  17:38:00     -105.489       -8.870       -5.920       28.274       24.090       20.141      799.401      580.351      405.645        0.651        0.089      105.861       16.357        0.024      336.907        8.523      868.946
12/01/2013  17:39:00      -99.547       -5.627        1.290       53.178       36.418       22.426     2827.850     1326.278      502.931        0.730        0.233       99.706       24.304        0.059      336.928        8.559      868.962
12/01/2013  17:40:00      -92.317      -49.063        3.328       32.060       29.973       15.015     1027.815      898.411      225.437        0.655        0.108      104.545       14.359        0.019      336.933        8.569      868.957
12/01/2013  17:41:00     -107.065      -51.410       -0.036       29.972       29.605       17.203      898.306      876.443      295.944        0.809        0.104      118.768       17.310        0.021      336.800        8.344      868.954
12/01/2013  17:42:00     -121.137      -62.068       -4.413       19.638       15.365       12.957      385.649      236.079      167.885        0.967        0.039      136.113       11.064        0.007      336.679        8.143      868.924
12/01/2013  17:43:00     -115.647      -51.203        0.698       23.150       19.893       13.165      535.918      395.738      173.308        0.855        0.055      126.475       11.550        0.008      336.760        8.278      868.891
12/01/2013  17:44:00     -108.981      -61.851       -3.251       31.590       20.521       15.962      997.945      421.092      254.787        0.869        0.084      125.309        9.088        0.005      336.902        8.514      868.859
12/01/2013  17:45:00     -105.914      -56.804        3.275       31.367       19.862       12.768      983.908      394.487      163.016        0.800        0.077      120.185       14.349        0.014      336.953        8.600      868.842
12/01/2013  17:46:00      -72.602      -38.151        2.226       41.014       20.723       23.152     1682.153      429.453      536.001        0.469        0.132       82.016       21.367        0.068      336.962        8.615      868.831
12/01/2013  17:47:00     -120.676      -54.748       -0.947       28.066       19.015       14.233      787.698      361.562      202.589        0.946        0.068      132.514       13.723        0.011      337.094        8.836      868.814
12/01/2013  17:48:00     -118.158      -45.576        1.464       21.306       19.588       16.129      453.964      383.697      260.157        0.857        0.055      126.643       12.014        0.009      336.992        8.665      868.802
12/01/2013  17:49:00     -115.522      -56.781       -2.045       26.457       30.195       15.173      699.959      911.728      230.205        0.921        0.092      128.722       12.532        0.009      336.861        8.448      868.800
12/01/2013  17:50:00     -138.121      -73.048       -3.492       38.693       28.579       22.179     1497.131      816.774      491.894        1.362        0.140      156.248       22.194        0.020      336.801        8.347      868.811
12/01/2013  17:51:00     -126.583      -61.048        1.891       34.168       23.727       21.144     1167.435      562.964      447.087        1.097        0.109      140.535       19.505        0.019      336.832        8.397      868.807
12/01/2013  17:52:00     -116.397      -11.427       -4.687       43.339       26.355       24.168     1878.256      694.586      584.093        0.843        0.158      116.957       25.193        0.046      336.643        8.083      868.803
12/01/2013  17:53:00     -154.260        4.365      -12.248       28.697       21.728       18.004      823.542      472.120      324.128        1.279        0.081      154.322       16.210        0.011      336.823        8.384      868.790
12/01/2013  17:54:00     -114.225      -15.239       -5.717       31.867       30.388       18.078     1015.532      923.446      326.806        0.779        0.113      115.237       13.412        0.014      336.773        8.299      868.794
12/01/2013  17:55:00     -120.125      -55.084       -4.343       32.708       34.071       21.072     1069.796     1160.843      444.034        1.008        0.134      132.152       19.966        0.023      336.625        8.054      868.800
12/01/2013  17:56:00     -138.115      -27.904       -0.419       49.570       32.996       23.291     2457.164     1088.746      542.449        1.197        0.204      140.906       22.394        0.025      336.566        7.955      868.827
12/01/2013  17:57:00     -143.863      -13.787       -5.319       44.413       33.597       27.007     1972.472     1128.741      729.369        1.237        0.192      144.522       26.842        0.034      336.571        7.962      868.849
12/01/2013  17:58:00     -152.963       15.410      -14.546       32.515       31.825       19.959     1057.244     1012.803      398.375        1.316        0.123      153.737       11.005        0.005      336.710        8.196      868.864
12/01/2013  17:59:00     -147.052       49.400       -9.625       48.632       29.209       23.774     2365.024      853.143      565.192        1.397        0.189      155.128       19.147        0.015      336.717        8.206      868.876
12/01/2013  18:00:00     -142.069        9.280      -10.472       32.773       27.336       21.028     1074.095      747.233      442.159        1.132        0.113      142.372       17.010        0.014      336.696        8.172      868.883
12/01/2013  18:01:00     -123.271       -9.091       -8.452       40.979       37.584       19.189     1679.252     1412.574      368.204        0.940        0.173      123.605       13.754        0.012      336.576        7.970      868.895
12/01/2013  18:02:00     -136.613      -25.823      -11.040       33.085       36.502       20.367     1094.630     1332.365      414.811        1.115        0.142      139.032       17.869        0.017      336.573        7.966      868.898
12/01/2013  18:03:00     -143.823      -51.172       -9.634       41.389       32.972       23.689     1713.089     1087.142      561.182        1.338        0.168      152.655       23.211        0.023      336.584        7.984      868.899
12/01/2013  18:04:00     -136.746       -6.222       -8.812       47.351       33.170       23.168     2242.131     1100.248      536.745        1.135        0.194      136.887       22.250        0.026      336.477        7.804      868.887
12/01/2013  18:05:00     -146.001      -23.901      -17.668       30.793       32.427       16.050      948.201     1051.520      257.594        1.223        0.113      147.945       10.147        0.005      336.488        7.823      868.874
12/01/2013  18:06:00     -100.360      -70.840       -6.935       38.364       34.061       27.358     1471.769     1160.176      748.449        0.926        0.169      122.843       27.273        0.049      336.448        7.755      868.857
12/01/2013  18:07:00      -97.747      -33.910       -1.978       42.518       47.414       18.531     1807.778     2248.091      343.410        0.755        0.220      103.462       22.102        0.046      336.493        7.832      868.841
12/01/2013  18:08:00      -95.809      -41.950       -4.451       35.444       26.357       17.491     1256.300      694.709      305.947        0.661        0.113      104.590       18.600        0.032      336.558        7.941      868.840
12/01/2013  18:09:00     -111.367      -34.375       -9.384       11.719        9.925       11.372      137.338       98.507      129.316        0.702        0.018      116.552        7.655        0.004      336.640        8.079      868.834
12/01/2013  18:10:00      -95.987      -34.044       -4.616        9.152        9.198        7.004       83.767       84.611       49.060        0.531        0.011      101.845        4.767        0.002      336.488        7.824      868.832
12/01/2013  18:11:00      -89.267      -28.328      -10.015       11.952       18.361       12.394      142.845      337.113      153.618        0.475        0.032       93.654       11.197        0.014      336.602        8.014      868.824
12/01/2013  18:12:00      -93.971      -18.478      -12.621       12.065       15.220       12.167      145.559      231.658      148.042        0.493        0.026       95.771        7.860        0.007      336.564        7.951      868.804
12/01/2013  18:13:00      -87.305      -28.343       -7.271       32.098       22.504       14.789     1030.285      506.419      218.705        0.512        0.088       91.790       15.253        0.028      336.450        7.759      868.789
12/01/2013  18:14:00      -81.527      -13.787       -0.934       42.989       23.428       17.386     1848.028      548.885      302.262        0.477        0.135       82.685       19.181        0.054      336.367        7.623      868.783
12/01/2013  18:15:00     -121.611       -6.264      -12.309       29.673       16.329       13.982      880.507      266.652      195.494        0.816        0.067      121.772       14.685        0.015      336.376        7.637      868.790
12/01/2013  18:16:00      -88.294      -25.531       -0.040       30.478       24.193       19.418      928.888      585.322      377.063        0.517        0.095       91.911       15.269        0.028      336.237        7.405      868.783
12/01/2013  18:17:00     -117.834      -25.173       -4.671       36.900       33.817       26.056     1361.574     1143.612      678.907        0.886        0.159      120.493       24.713        0.042      336.200        7.341      868.773
12/01/2013  18:18:00      -82.440      -40.948       -5.602       44.283       50.562       25.671     1961.028     2556.481      659.020        0.684        0.259       92.049       22.638        0.060      336.164        7.282      868.760
12/01/2013  18:19:00      -92.426      -58.413       -6.644       29.363       33.907       19.803      862.191     1149.676      392.162        0.720        0.120      109.337       11.140        0.010      336.084        7.147      868.732
12/01/2013  18:20:00     -137.278      -55.188       -4.312       47.748       25.482       18.673     2279.887      649.344      348.698        1.259        0.164      147.956       19.831        0.018      336.083        7.146      868.712
12/01/2013  18:21:00     -169.195      -49.233       -9.194       37.177       33.106       20.103     1382.100     1095.987      404.122        1.701        0.144      176.213       13.606        0.006      336.088        7.153      868.715
12/01/2013  18:22:00     -149.490      -25.438      -10.148       51.726       30.341       22.739     2675.623      920.587      517.045        1.360        0.206      151.639       20.244        0.018      336.048        7.089      868.711
12/01/2013  18:23:00     -134.146       -0.329       -4.373       61.140       38.016       24.846     3738.061     1445.209      617.340        1.191        0.290      134.146       32.496        0.059      335.969        6.956      868.729
12/01/2013  18:24:00     -185.048       42.250      -14.466       52.765       32.748       22.292     2784.183     1072.408      496.952        2.029        0.218      189.810       17.772        0.009      336.008        7.019      868.729
12/01/2013  18:25:00     -177.477       24.307      -14.511       42.286       33.308       20.989     1788.107     1109.447      440.554        1.782        0.167      179.134       17.202        0.009      336.099        7.172      868.723
12/01/2013  18:26:00     -136.814      -12.519       -3.895       46.474       32.941       24.293     2159.818     1085.077      590.160        1.136        0.192      137.385       23.623        0.030      336.049        7.090      868.701
12/01/2013  18:27:00     -151.391      -46.669       -6.829       17.666       22.065       15.740      312.089      486.873      247.747        1.310        0.052      158.421        6.490        0.002      336.054        7.095      868.650
12/01/2013  18:28:00     -138.875      -54.360       -9.330       24.290       17.104       11.803      589.999      292.541      139.311        1.167        0.051      149.135        8.342        0.003      336.196        7.335      868.608
12/01/2013  18:29:00      -98.279      -17.557       -7.975       20.507       17.970       14.464      420.539      322.919      209.200        0.549        0.048       99.835       10.455        0.011      336.181        7.309      868.564
12/01/2013  18:30:00      -96.015      -54.238       -5.428       14.613       15.941       11.613      213.533      254.119      134.863        0.640        0.030      110.275        7.865        0.005      336.198        7.339      868.526
12/01/2013  18:31:00     -107.675      -58.176       -7.616       18.922       19.481       12.722      358.034      379.520      161.860        0.797        0.045      122.386       10.341        0.007      336.261        7.444      868.491
12/01/2013  18:32:00     -109.424      -59.048       -5.105       22.120       21.112       12.209      489.276      445.737      149.052        0.828        0.054      124.339        9.101        0.005      336.304        7.516      868.469
12/01/2013  18:33:00     -108.585      -52.190      -12.399       20.057       15.405       13.964      402.293      237.318      194.991        0.775        0.042      120.476       12.248        0.010      336.286        7.486      868.455
12/01/2013  18:34:00     -100.274      -34.168       -8.281       22.866       20.536       13.347      522.854      421.740      178.149        0.621        0.056      105.935        6.690        0.004      336.216        7.368      868.418
12/01/2013  18:35:00     -104.092      -48.835       -4.584       21.304       22.723       18.233      453.858      516.331      332.448        0.727        0.065      114.978       15.710        0.019      336.115        7.199      868.400
12/01/2013  18:36:00     -104.529      -44.174       -5.731       27.817       16.640       17.246      773.802      276.906      297.414        0.713        0.067      113.480       15.483        0.019      336.101        7.175      868.393
12/01/2013  18:37:00     -109.818      -51.274       -5.062       25.101       22.669       17.013      630.072      513.870      289.443        0.807        0.072      121.198       12.031        0.010      336.086        7.151      868.381
12/01/2013  18:38:00     -106.821      -35.668       -2.167       27.816       24.485       14.711      773.736      599.505      216.403        0.714        0.079      112.619       14.579        0.017      336.029        7.055      868.386
12/01/2013  18:39:00     -130.005      -34.956       -8.348       22.366       19.472       16.217      500.227      379.177      262.977        0.967        0.057      134.623       12.645        0.009      335.988        6.987      868.384
12/01/2013  18:40:00      -98.296      -30.895       -0.996       25.180       19.695       17.533      634.023      387.888      307.413        0.597        0.066      103.037       15.333        0.022      335.884        6.815      868.385
12/01/2013  18:41:00      -91.646      -32.641       -4.445       15.712       13.105       10.508      246.875      171.733      110.413        0.501        0.026       97.286        8.231        0.007      335.977        6.970      868.390
12/01/2013  18:42:00      -95.886      -17.692       -9.866       12.196       14.691        8.837      148.745      215.816       78.094        0.502        0.022       97.505        6.021        0.004      336.007        7.021      868.379
12/01/2013  18:43:00      -86.915       -2.926       -8.343       24.990       13.821       12.574      624.479      191.013      158.112        0.430        0.049       86.964       10.288        0.014      336.021        7.042      868.381
12/01/2013  18:44:00     -111.707        3.283      -16.206       16.191       13.536       10.101      262.141      183.223      102.021        0.665        0.027      111.756        9.067        0.007      336.060        7.108      868.379
12/01/2013  18:45:00     -104.628      -25.686       -8.978       21.421       18.579       16.957      458.871      345.181      287.549        0.639        0.055      107.734       11.227        0.011      336.003        7.013      868.368
12/01/2013  18:46:00     -115.230      -44.345      -14.438       15.102       23.045       12.832      228.072      531.057      164.648        0.819        0.046      123.469       10.741        0.008      336.062        7.112      868.365
12/01/2013  18:47:00     -130.484      -32.020      -25.175       16.047       13.600       12.552      257.501      184.964      157.561        0.964        0.030      134.356        6.966        0.003      336.001        7.008      868.374
12/01/2013  18:48:00     -112.281      -27.725      -15.540       23.250       20.491       17.053      540.544      419.891      290.807        0.743        0.063      115.653       13.450        0.014      335.935        6.898      868.375
12/01/2013  18:49:00     -121.479      -23.271      -13.788       34.172       25.121       21.747     1167.723      631.060      472.920        0.888        0.114      123.688       18.195        0.022      335.797        6.669      868.394
12/01/2013  18:50:00      -86.117      -46.715       -4.470       30.446       23.660       21.477      926.956      559.793      461.275        0.578        0.097       97.971       16.274        0.028      335.747        6.587      868.418
12/01/2013  18:51:00     -111.621      -24.677      -13.202       35.656       27.754       23.171     1271.381      770.300      536.917        0.791        0.129      114.316       22.331        0.038      335.705        6.518      868.437
12/01/2013  18:52:00      -95.191      -10.648       -7.390       31.842       27.621       22.864     1013.922      762.927      522.760        0.576        0.115       95.784       18.521        0.037      335.616        6.369      868.461
12/01/2013  18:53:00      -55.520       -4.556       -5.525       27.009       21.803       15.320      729.505      475.374      234.699        0.229        0.072       55.707       13.810        0.061      335.618        6.371      868.479
12/01/2013  18:54:00      -72.732      -18.371      -12.109       12.420       15.364        9.877      154.261      236.043       97.560        0.313        0.024       75.017        6.443        0.007      335.732        6.562      868.477
12/01/2013  18:55:00      -59.497      -36.132      -18.294       16.806       16.917       11.401      282.436      286.194      129.980        0.294        0.035       69.609        6.618        0.009      335.735        6.567      868.486
12/01/2013  18:56:00      -81.325      -30.446      -11.341       25.824       15.044       11.822      666.880      226.317      139.748        0.435        0.052       86.838        9.833        0.013      335.644        6.414      868.503
12/01/2013  18:57:00      -94.845      -20.562      -18.068       13.772       13.874       14.953      189.658      192.500      223.601        0.518        0.030       97.048        9.032        0.009      335.700        6.510      868.503
12/01/2013  18:58:00      -87.851       -8.408      -12.927        9.877       13.039        9.601       97.552      170.016       92.170        0.416        0.018       88.253        5.507        0.004      335.687        6.486      868.492
12/01/2013  18:59:00      -75.897       -7.696      -11.681        7.864       11.586        7.270       61.843      134.242       52.854        0.310        0.012       76.286        6.316        0.007      335.706        6.518      868.486
12/01/2013  19:00:00      -64.870       -7.262      -13.591       14.857       10.031        9.953      220.717      100.624       99.068        0.243        0.021       65.275        8.833        0.018      335.750        6.593      868.475
12/01/2013  19:01:00      -63.110      -21.757       -9.295       13.181       14.457        8.946      173.738      209.002       80.028        0.250        0.023       66.755        8.297        0.015      335.787        6.655      868.467
12/01/2013  19:02:00      -67.137      -16.282       -9.183       13.794       10.947        9.387      190.277      119.846       88.112        0.263        0.020       69.083        6.464        0.009      335.727        6.552      868.484
12/01/2013  19:03:00     -110.549      -29.515      -16.783       15.330       12.723       11.942      234.997      161.875      142.618        0.696        0.027      114.421        7.258        0.004      335.632        6.395      868.487
12/01/2013  19:04:00     -100.743      -24.598      -15.127       23.246       16.592       14.821      540.399      275.307      219.672        0.601        0.052      103.702        8.087        0.006      335.540        6.240      868.482
12/01/2013  19:05:00      -47.991      -13.574       -8.215       13.501       18.342       14.463      182.289      336.431      209.170        0.164        0.036       49.874       13.982        0.079      335.539        6.240      868.475
12/01/2013  19:06:00      -20.860      -16.899       -5.198       27.762        7.018        8.235      770.718       49.259       67.819        0.082        0.044       26.846       14.250        0.282      335.981        6.978      868.450
12/01/2013  19:07:00       11.683      -25.310       -1.645       14.771       17.486       12.658      218.187      305.765      160.220        0.073        0.034       27.877        8.777        0.099      335.923        6.880      868.402
12/01/2013  19:08:00       15.553      -34.812        2.865       21.782       24.313       16.269      474.441      591.125      264.695        0.140        0.067       38.129       12.132        0.101      336.015        7.033      868.371
12/01/2013  19:09:00       18.076      -23.493        7.953       28.420       27.663       23.285      807.722      765.219      542.193        0.153        0.106       29.642       22.728        0.588      336.143        7.246      868.358
12/01/2013  19:10:00      -36.727      -14.012       -3.252       17.821        9.950        7.983      317.578       98.993       63.728        0.102        0.024       39.309        7.926        0.041      335.852        6.762      868.330
12/01/2013  19:11:00      -19.352      -14.828        0.762       14.538       10.848        9.077      211.344      117.683       82.384        0.050        0.021       24.379        9.108        0.140      335.754        6.600      868.331
12/01/2013  19:12:00      -14.940        4.236       -7.075        9.166        7.861        7.114       84.014       61.795       50.613        0.024        0.010       15.529        3.439        0.049      336.113        7.196      868.358
12/01/2013  19:13:00      -57.038       12.338       -1.498       25.076        8.628        7.107      628.802       74.449       50.514        0.208        0.038       58.358       10.144        0.030      335.951        6.926      868.384
12/01/2013  19:14:00      -90.751       17.582      -15.906       11.871       10.144        9.808      140.925      102.901       96.201        0.457        0.017       92.438        4.314        0.002      335.839        6.740      868.417
12/01/2013  19:15:00      -79.638       21.022       -9.041       17.970       12.681       11.015      322.914      160.820      121.334        0.374        0.030       82.366        7.597        0.009      335.724        6.551      868.447
12/01/2013  19:16:00      -78.913       14.504       -4.289       15.562       11.842        9.419      242.166      140.243       88.715        0.346        0.024       80.235        9.266        0.013      335.649        6.424      868.462
12/01/2013  19:17:00      -59.808        1.674       -8.219        9.089       12.768        9.610       82.618      163.029       92.342        0.199        0.017       59.831        6.034        0.010      335.568        6.289      868.448
12/01/2013  19:18:00      -63.451        3.326      -12.211       13.032       14.781        5.624      169.831      218.468       31.633        0.230        0.021       63.538        3.831        0.004      335.649        6.422      868.420
12/01/2013  19:19:00      -93.440        2.503      -11.098       14.449        9.688        6.976      208.783       93.853       48.663        0.461        0.018       93.473        4.426        0.002      335.655        6.433      868.420
12/01/2013  19:20:00      -95.609      -25.421      -11.523       14.638       13.967       10.783      214.268      195.071      116.279        0.522        0.026       98.931        7.867        0.006      335.554        6.264      868.417
12/01/2013  19:21:00      -97.490      -65.176       -6.275       18.422       23.705       13.379      339.385      561.907      178.988        0.744        0.054      117.270        7.742        0.004      335.444        6.081      868.403
12/01/2013  19:22:00      -93.236      -49.626       -6.440       16.070       17.730       13.940      258.252      314.347      194.310        0.598        0.038      105.620       10.589        0.010      335.361        5.944      868.398
12/01/2013  19:23:00     -105.936      -23.810      -11.084       18.033       14.000       13.243      325.199      196.005      175.364        0.630        0.035      108.578        8.607        0.006      335.468        6.122      868.383
12/01/2013  19:24:00      -92.087      -34.787       -0.276       26.737       24.370       15.928      714.881      593.915      253.700        0.563        0.078       98.438       12.932        0.017      335.473        6.131      868.361
12/01/2013  19:25:00     -119.543      -55.723       -0.338       32.196       23.081       15.391     1036.581      532.735      236.880        0.960        0.090      131.892        7.475        0.003      335.535        6.233      868.339
12/01/2013  19:26:00     -128.664      -41.471        4.136       36.470       27.070       18.258     1330.061      732.762      333.338        1.034        0.120      135.182       16.716        0.015      335.672        6.461      868.342
12/01/2013  19:27:00     -119.920      -46.897        0.168       39.215       28.804       21.461     1537.839      829.666      460.555        0.970        0.141      128.764       19.136        0.022      335.716        6.535      868.344
12/01/2013  19:28:00      -84.757      -27.115        0.498       42.878       37.779       19.399     1838.545     1427.226      376.324        0.578        0.182       88.988       20.949        0.055      335.540        6.242      868.343
12/01/2013  19:29:00     -119.325      -13.573        0.222       32.439       24.385       21.156     1052.303      594.606      447.567        0.826        0.105      120.095       19.547        0.026      335.454        6.098      868.332
12/01/2013  19:30:00     -161.762       34.701      -12.408       28.633       19.172       15.747      819.843      367.570      247.982        1.448        0.072      165.443        9.045        0.003      335.447        6.088      868.330
12/01/2013  19:31:00     -119.810       42.506      -13.602       46.432       33.404       29.949     2155.902     1115.810      896.930        1.026        0.208      127.127       24.766        0.038      335.524        6.216      868.330
12/01/2013  19:32:00     -110.410       27.036       -5.820       44.979       32.151       23.788     2023.081     1033.687      565.887        0.829        0.181      113.672       21.627        0.036      335.484        6.148      868.347
12/01/2013  19:33:00     -128.237       43.183       -9.366       45.864       32.391       19.915     2103.545     1049.153      396.589        1.097        0.177      135.313       12.648        0.009      335.638        6.405      868.385
12/01/2013  19:34:00      -96.554        3.494       -6.081       39.588       46.094       24.867     1567.207     2124.683      618.363        0.684        0.216       96.617       14.703        0.023      335.593        6.331      868.400
12/01/2013  19:35:00      -90.540       -9.973       -5.372       32.559       35.578       22.983     1060.108     1265.804      528.206        0.559        0.143       91.088       12.989        0.020      335.703        6.513      868.401
12/01/2013  19:36:00      -22.962      -29.717      -14.031       31.322       40.066       20.781      981.055     1605.266      431.867        0.231        0.151       37.554       19.774        0.277      335.730        6.558      868.374
12/01/2013  19:37:00      -44.941       -3.533       -8.547       20.197       17.459       11.882      407.920      304.821      141.190        0.148        0.043       45.080        3.608        0.006      335.515        6.199      868.319
12/01/2013  19:38:00      -72.121      -27.129      -10.135       23.129       18.359       11.586      534.949      337.056      134.230        0.352        0.050       77.055        6.355        0.007      335.413        6.029      868.276
12/01/2013  19:39:00     -100.115      -44.381      -17.400       17.341       15.610       10.116      300.724      243.661      102.333        0.647        0.032      109.510        2.922        0.001      335.380        5.973      868.269
12/01/2013  19:40:00     -123.520      -32.391      -11.678       18.495       20.407       14.255      342.059      416.439      203.205        0.870        0.048      127.696       12.483        0.010      335.303        5.846      868.297
12/01/2013  19:41:00      -79.676        6.048       -5.868       42.305       35.099       23.172     1789.732     1231.973      536.952        0.499        0.178       79.905       21.918        0.075      335.386        5.984      868.306
12/01/2013  19:42:00      -75.905       -6.495       -7.965       42.168       23.341       19.862     1778.169      544.809      394.512        0.429        0.136       76.182       21.786        0.082      335.537        6.236      868.285
12/01/2013  19:43:00      -70.926      -29.477        0.185       52.206       33.858       25.121     2725.432     1146.381      631.040        0.520        0.225       76.808       27.732        0.130      335.434        6.066      868.278
12/01/2013  19:44:00      -73.956      -39.390       -5.493       31.652       23.744       15.182     1001.842      563.765      230.481        0.442        0.090       83.792       14.889        0.032      335.350        5.924      868.277
12/01/2013  19:45:00      -78.017      -31.884       -5.494       27.650       18.549       16.465      764.507      344.083      271.082        0.426        0.069       84.280       15.106        0.032      335.298        5.837      868.274
12/01/2013  19:46:00     -102.156      -44.568       -3.758       22.297       27.019       18.686      497.164      730.007      349.149        0.701        0.079      111.455        9.182        0.007      335.306        5.851      868.278
12/01/2013  19:47:00     -113.188      -16.054      -12.721       33.661       29.840       17.911     1133.056      890.427      320.804        0.779        0.117      114.321       15.117        0.017      335.322        5.878      868.249
12/01/2013  19:48:00      -68.152      -31.656       -5.994       56.151       33.927       17.892     3152.976     1151.063      320.129        0.515        0.231       75.145       20.783        0.076      335.339        5.907      868.220
12/01/2013  19:49:00     -189.105      -59.175      -12.761       50.507       43.538       23.357     2550.989     1895.546      545.541        2.221        0.250      198.147       22.013        0.012      335.264        5.779      868.213
12/01/2013  19:50:00     -124.474      -15.040      -12.643       30.112       31.165       22.164      906.733      971.233      491.261        0.912        0.118      125.379       18.134        0.021      335.283        5.812      868.200
12/01/2013  19:51:00      -87.672      -16.355       -2.038       25.312       25.241       16.303      640.703      637.087      265.790        0.475        0.077       89.184       15.437        0.030      335.329        5.891      868.165
12/01/2013  19:52:00     -136.440      -17.935      -15.505       33.628       15.088       13.889     1130.810      227.645      192.900        1.036        0.078      137.614       15.498        0.013      335.285        5.817      868.156
12/01/2013  19:53:00     -185.100       20.808       -9.216       92.052       54.258       32.670     8473.506     2943.971     1067.334        2.363        0.624      186.266       37.089        0.040      335.369        5.956      868.161
12/01/2013  19:54:00     -250.115       61.509      -17.904       50.146       41.170       27.561     2514.612     1694.940      759.623        3.581        0.248      257.568       17.251        0.004      335.507        6.182      868.175
12/01/2013  19:55:00     -175.244       -2.931      -18.533       52.051       51.671       23.943     2709.282     2669.862      573.277        1.851        0.298      175.268       21.433        0.015      335.441        6.076      868.190
12/01/2013  19:56:00     -167.403       12.676      -16.489       38.284       37.467       21.253     1465.644     1403.779      451.694        1.589        0.166      167.882       10.154        0.004      335.358        5.938      868.210
12/01/2013  19:57:00     -115.550       51.934       -3.433       60.800       32.045       22.054     3696.675     1026.871      486.394        1.063        0.260      126.684       20.679        0.027      335.522        6.211      868.226
12/01/2013  19:58:00     -181.793       13.676      -15.890       47.281       56.595       28.542     2235.512     3202.946      814.658        1.987        0.313      182.307       24.438        0.018      335.596        6.334      868.242
12/01/2013  19:59:00     -181.443       34.936      -30.936       50.750       55.311       31.410     2575.534     3059.312      986.601        2.086        0.331      184.775       28.415        0.024      335.418        6.036      868.279
12/01/2013  20:00:00     -132.381        4.538       -5.197       38.286       49.459       30.482     1465.850     2446.215      929.174        1.121        0.242      132.459       19.170        0.021      335.392        5.993      868.304
12/01/2013  20:01:00      -95.530       10.074       -7.619       49.900       36.385       25.059     2490.053     1323.880      627.931        0.686        0.222       96.059       22.063        0.053      335.594        6.332      868.263
12/01/2013  20:02:00      -60.721       29.319       -8.100       28.465       24.833       22.182      810.276      616.674      492.037        0.327        0.096       67.429       13.769        0.042      335.724        6.549      868.209
12/01/2013  20:03:00      -90.629      -21.354      -10.660       37.963       37.482       20.152     1441.176     1404.908      406.121        0.602        0.163       93.111       15.106        0.026      335.529        6.223      868.202
12/01/2013  20:04:00     -124.342      -46.972       -8.305       85.028       51.483       31.394     7229.713     2650.453      985.558        1.430        0.543      132.919       31.583        0.056      335.307        5.853      868.249
12/01/2013  20:05:00     -192.230      -60.727      -16.402       27.900       32.872       18.884      778.387     1080.558      356.591        2.156        0.111      201.594       11.034        0.003      335.256        5.769      868.268
12/01/2013  20:06:00      -74.392      -19.768        1.331       48.642       40.689       19.984     2366.062     1655.631      399.343        0.517        0.221       76.973       22.831        0.088      335.294        5.830      868.246
12/01/2013  20:07:00      -55.366      -34.198       -5.737       41.693       15.895       19.194     1738.294      252.641      368.405        0.331        0.118       65.076       16.444        0.064      335.358        5.938      868.222
12/01/2013  20:08:00      -95.755      -35.091      -12.345       17.844       17.444       15.310      318.399      304.280      234.382        0.570        0.043      101.982       11.987        0.014      335.348        5.921      868.213
12/01/2013  20:09:00      -76.121      -37.614      -16.989       20.949       23.713       12.578      438.869      562.296      158.201        0.433        0.058       84.907       11.473        0.018      335.370        5.957      868.215
12/01/2013  20:10:00      -93.817      -16.724      -24.723       23.154       19.272       17.248      536.128      371.409      297.505        0.545        0.060       95.296       13.308        0.020      335.476        6.136      868.218
12/01/2013  20:11:00     -104.556       13.810      -23.227       20.573       16.640       15.187      423.269      276.883      230.655        0.630        0.047      105.464       10.013        0.009      335.453        6.096      868.223
12/01/2013  20:12:00      -76.871       -9.113      -14.332       19.533       22.873        9.045      381.531      523.160       81.810        0.359        0.049       77.410        5.583        0.005      335.635        6.401      868.236
12/01/2013  20:13:00      -91.096      -33.559      -23.666       18.158       15.930        9.638      329.722      253.770       92.895        0.533        0.034       97.081        5.767        0.004      335.460        6.107      868.268
12/01/2013  20:14:00      -84.339      -39.213      -13.603       21.618       24.179       17.437      467.332      584.646      304.036        0.510        0.068       93.009       11.133        0.014      335.464        6.114      868.288
12/01/2013  20:15:00      -54.382      -16.266      -16.074       14.706       13.111       11.192      216.253      171.908      125.262        0.200        0.026       56.762        6.229        0.012      335.408        6.023      868.286
12/01/2013  20:16:00      -53.139      -13.669      -13.414       13.523       11.844        7.914      182.870      140.276       62.624        0.179        0.019       54.869        5.682        0.011      335.315        5.868      868.275
12/01/2013  20:17:00      -63.592      -12.279       -3.327       13.462        9.823        9.059      181.237       96.490       82.074        0.228        0.018       64.766        7.445        0.013      335.311        5.861      868.288
12/01/2013  20:18:00      -59.866       -7.701       -5.143       22.438       11.519       10.045      503.471      132.685      100.905        0.220        0.037       60.359       10.734        0.032      335.195        5.666      868.307
12/01/2013  20:19:00      -47.071       -7.726       -2.570       16.069        9.316        8.632      258.216       86.796       74.517        0.135        0.021       47.701        6.453        0.018      335.277        5.803      868.319
12/01/2013  20:20:00       -8.804       -5.436       -2.050        9.844       10.671        7.005       96.911      113.863       49.076        0.019        0.013       10.347        5.201        0.253      335.597        6.337      868.319
12/01/2013  20:21:00      -26.826      -18.672       -3.356       16.047        6.962        8.512      257.499       48.476       72.455        0.073        0.019       32.685        7.653        0.055      335.479        6.139      868.332
12/01/2013  20:22:00      -35.194      -19.685      -10.567       15.075       10.833        8.929      227.247      117.350       79.734        0.108        0.021       40.325        4.852        0.014      335.426        6.051      868.350
12/01/2013  20:23:00       -8.898      -28.913        0.653       10.699        6.640        5.273      114.468       44.092       27.809        0.055        0.009       30.252        4.854        0.026      335.535        6.233      868.363
12/01/2013  20:24:00      -14.873      -31.215       -2.698       10.208       10.687        6.476      104.194      114.222       41.936        0.073        0.013       34.577        3.898        0.013      335.835        6.732      868.372
12/01/2013  20:25:00      -44.894      -25.514      -10.696       23.798       14.239       11.455      566.323      202.762      131.225        0.184        0.045       51.637       15.349        0.088      335.595        6.334      868.357
12/01/2013  20:26:00     -107.070       -9.913      -16.128       16.796       13.881       12.171      282.098      192.675      148.122        0.622        0.031      107.528        6.537        0.004      335.178        5.639      868.352
12/01/2013  20:27:00      -71.199      -24.796       -6.889       18.535       15.142       11.021      343.543      229.272      121.452        0.321        0.035       75.394       10.295        0.019      335.181        5.644      868.343
12/01/2013  20:28:00      -67.274      -28.391      -12.632       16.379       17.486       11.887      268.287      305.744      141.301        0.310        0.036       73.019        8.221        0.013      335.250        5.757      868.332
12/01/2013  20:29:00      -61.714      -40.527      -21.099       13.863       15.973       10.845      192.185      255.138      117.611        0.323        0.028       73.831        6.401        0.008      335.256        5.767      868.323
12/01/2013  20:30:00      -73.854      -17.216      -11.660       17.685       17.710       12.265      312.748      313.628      150.433        0.333        0.039       75.834       11.183        0.022      335.189        5.657      868.320
12/01/2013  20:31:00      -87.666      -22.106      -13.058       24.200       18.137       10.050      585.652      328.960      101.008        0.468        0.051       90.410        5.978        0.004      335.193        5.665      868.332
12/01/2013  20:32:00      -84.205      -27.033      -13.491       18.768       18.985       10.141      352.228      360.414      102.849        0.441        0.041       88.438       10.311        0.014      335.165        5.617      868.345
12/01/2013  20:33:00      -83.585      -51.570      -14.218       20.480       20.109       12.477      419.425      404.391      155.675        0.541        0.049       98.214        8.580        0.008      335.111        5.529      868.377
12/01/2013  20:34:00      -71.968      -57.566      -16.043       27.355       21.014       18.334      748.283      441.572      336.151        0.514        0.076       92.159       12.195        0.018      335.044        5.417      868.398
12/01/2013  20:35:00      -80.297      -27.818      -11.355       29.970       30.948       14.891      898.184      957.808      221.756        0.471        0.104       84.979       17.729        0.044      335.045        5.419      868.403
12/01/2013  20:36:00      -80.443        4.413      -14.087       15.385       18.387        9.022      236.705      338.068       81.394        0.367        0.033       80.564        5.917        0.005      335.095        5.503      868.393
12/01/2013  20:37:00      -76.267        6.630      -19.268       13.555       22.631       11.481      183.744      512.171      131.815        0.353        0.041       76.555        9.148        0.014      335.377        5.972      868.388
12/01/2013  20:38:00      -91.641      -11.712      -13.155       13.008       16.492       11.768      169.199      271.993      138.483        0.464        0.029       92.387        7.676        0.007      335.159        5.609      868.391
12/01/2013  20:39:00      -84.499      -34.633      -21.702       18.802       17.316       11.044      353.503      299.829      121.970        0.479        0.039       91.321       10.957        0.014      335.200        5.675      868.409
12/01/2013  20:40:00     -101.155      -18.705       -8.164       35.193       30.038       19.528     1238.541      902.293      381.332        0.659        0.126      102.870       15.511        0.023      335.035        5.403      868.415
12/01/2013  20:41:00     -112.029       -4.512      -13.963       35.997       22.687       19.021     1295.753      514.691      361.795        0.747        0.109      112.120       15.570        0.019      335.007        5.355      868.415
12/01/2013  20:42:00     -102.777        1.784      -18.246       21.204       18.974       16.446      449.597      360.002      270.482        0.599        0.054      102.793       12.992        0.016      335.130        5.560      868.391
12/01/2013  20:43:00      -94.852       -4.912      -15.051       11.899       11.764        8.785      141.597      138.403       77.173        0.480        0.018       94.980        6.357        0.004      335.318        5.872      868.371
12/01/2013  20:44:00      -86.779      -16.052      -11.779       18.607       13.325       13.063      346.226      177.550      170.637        0.431        0.035       88.251       11.979        0.018      335.222        5.712      868.348
12/01/2013  20:45:00      -75.865      -24.162      -16.208       13.151       13.564        8.500      172.951      183.994       72.244        0.352        0.021       79.619        7.609        0.009      335.203        5.680      868.343
12/01/2013  20:46:00      -96.118       -7.804      -16.879       13.046       12.265        7.385      170.196      150.435       54.535        0.498        0.019       96.434        4.526        0.002      335.284        5.815      868.367
12/01/2013  20:47:00     -122.928      -15.419      -19.225       15.886       14.340       11.244      252.374      205.624      126.426        0.815        0.029      123.892        7.398        0.004      335.127        5.555      868.407
12/01/2013  20:48:00     -158.094      -26.696      -21.918       12.848       10.731       11.994      165.069      115.155      143.861        1.331        0.021      160.332        5.035        0.001      335.267        5.786      868.448
12/01/2013  20:49:00     -131.217      -37.666      -18.175       10.568        9.827        7.037      111.686       96.579       49.523        0.961        0.013      136.516        5.467        0.002      335.408        6.021      868.452
12/01/2013  20:50:00     -131.991      -24.982      -21.334       10.869       10.426        8.590      118.130      108.707       73.792        0.940        0.015      134.335        6.343        0.002      335.310        5.859      868.453
12/01/2013  20:51:00     -145.025      -33.178      -21.475       10.310       17.175       10.146      106.301      294.987      102.938        1.155        0.025      148.772        7.105        0.002      335.363        5.947      868.447
12/01/2013  20:52:00     -151.708       -2.482      -21.582        7.934        8.536        8.312       62.953       72.869       69.095        1.185        0.010      151.729        2.517        0.000      335.203        5.680      868.440
12/01/2013  20:53:00     -103.389        6.296      -10.454       36.485       32.407       22.419     1331.132     1050.233      502.600        0.686        0.144      103.581       20.424        0.039      335.091        5.495      868.425
12/01/2013  20:54:00      -74.619       43.050      -21.948       23.345       30.242       14.282      544.981      914.588      203.978        0.478        0.083       86.147       11.725        0.019      335.462        6.111      868.393
12/01/2013  20:55:00      -74.682       -7.651      -14.541       11.924       26.747       10.371      142.181      715.383      107.561        0.341        0.048       75.073        7.542        0.010      335.301        5.843      868.379
12/01/2013  20:56:00      -94.889      -38.416      -14.126       18.319       29.808       15.237      335.577      888.544      232.159        0.607        0.073      102.370        7.485        0.005      335.054        5.435      868.386
12/01/2013  20:57:00     -124.444      -32.286       -9.993       50.322       40.531       27.285     2532.284     1642.743      744.467        1.077        0.246      128.564       23.151        0.032      334.849        5.092      868.379
12/01/2013  20:58:00     -133.243      -23.571       -2.124       55.668       54.195       30.838     3098.897     2937.093      951.004        1.265        0.349      135.312       28.259        0.044      334.771        4.963      868.380
12/01/2013  20:59:00      -90.016      -38.101        1.130       44.085       35.822       26.586     1943.455     1283.188      706.798        0.674        0.197       97.748       22.448        0.053      334.871        5.129      868.357
12/01/2013  21:00:00     -114.693      -23.766      -10.071       33.427       29.871       20.621     1117.385      892.293      425.207        0.813        0.122      117.130       22.928        0.038      334.931        5.229      868.321
12/01/2013  21:01:00     -146.152      -27.396       -7.466       48.446       47.580       26.911     2346.988     2263.862      724.183        1.375        0.267      148.698       22.190        0.022      334.876        5.137      868.323
12/01/2013  21:02:00     -149.615       85.411      -14.498       95.304       54.151       44.709     9082.872     2932.374     1998.931        2.195        0.701      172.278       40.916        0.056      335.102        5.511      868.340
12/01/2013  21:03:00      -99.887       47.940      -20.034       36.867       36.416       23.276     1359.191     1326.112      541.761        0.795        0.161      110.795       15.132        0.019      335.307        5.854      868.331
12/01/2013  21:04:00      -43.838       -5.607       -7.431       11.206       19.913       13.313      125.575      396.531      177.235        0.135        0.035       44.195        3.265        0.005      335.475        6.134      868.306
12/01/2013  21:05:00     -111.643      -45.356      -20.147       55.214       19.276       11.215     3048.605      371.549      125.768        0.924        0.177      120.504       11.179        0.009      335.122        5.548      868.315
12/01/2013  21:06:00     -141.958       -7.782      -16.398       53.597       46.458       24.497     2872.601     2158.356      600.107        1.306        0.282      142.171       27.249        0.037      334.869        5.125      868.330
12/01/2013  21:07:00      -79.826        3.081       -5.107       36.301       39.332       19.682     1317.756     1546.981      387.380        0.483        0.163       79.885       13.378        0.028      335.325        5.883      868.346
12/01/2013  21:08:00     -149.044      -33.756       -8.771       63.324       42.879       29.645     4009.884     1838.650      878.824        1.508        0.336      152.819       24.948        0.027      334.981        5.311      868.365
12/01/2013  21:09:00      -80.766      -25.494      -12.424       40.099       27.828       17.971     1607.964      774.374      322.964        0.502        0.135       84.694       16.975        0.040      334.947        5.257      868.362
12/01/2013  21:10:00      -74.760      -24.992      -17.277       24.320       21.502       14.397      591.451      462.316      207.276        0.389        0.063       78.827       10.371        0.017      335.014        5.368      868.364
12/01/2013  21:11:00      -75.752      -41.345      -18.425       23.768       24.415       15.857      564.910      596.072      251.450        0.460        0.071       86.300       12.230        0.020      334.974        5.301      868.377
12/01/2013  21:12:00      -93.664      -27.167      -21.527       16.568       26.398       13.773      274.502      696.876      189.684        0.557        0.058       97.524        7.001        0.005      335.085        5.485      868.390
12/01/2013  21:13:00      -67.683      -47.744      -15.895       16.717       21.860       14.273      279.470      477.850      203.723        0.404        0.048       82.828       10.493        0.016      335.052        5.430      868.413
12/01/2013  21:14:00      -87.876      -37.986      -16.100       23.690       20.059       15.423      561.220      402.364      237.883        0.531        0.060       95.735       13.379        0.020      335.027        5.389      868.409
12/01/2013  21:15:00      -96.849      -41.597      -17.042       16.460       20.806       13.782      270.920      432.906      189.932        0.615        0.045      105.404       10.467        0.010      335.065        5.453      868.405
12/01/2013  21:16:00     -116.955      -42.297      -15.347       25.678       22.617       17.703      659.377      511.540      313.398        0.859        0.074      124.368       10.845        0.008      334.941        5.246      868.425
12/01/2013  21:17:00      -79.894      -33.304      -14.732       30.449       24.849       16.414      927.130      617.497      269.433        0.476        0.091       86.557       14.870        0.030      334.858        5.108      868.439
12/01/2013  21:18:00     -110.959      -32.309      -13.953       26.701       27.034       17.088      712.936      730.821      291.984        0.764        0.087      115.567       15.446        0.018      334.982        5.314      868.432
12/01/2013  21:19:00     -106.424      -24.738      -16.898       34.145       19.648       12.963     1165.859      386.050      168.043        0.697        0.086      109.261       16.244        0.022      335.021        5.378      868.401
12/01/2013  21:20:00     -152.223      -41.486      -22.440       20.283       25.963       13.831      411.390      674.076      191.300        1.334        0.064      157.775       10.660        0.005      334.947        5.256      868.391
12/01/2013  21:21:00     -143.157       -7.372      -23.690       16.448       16.486        9.189      270.551      271.805       84.431        1.087        0.031      143.346        8.252        0.003      335.046        5.421      868.392
12/01/2013  21:22:00      -94.875      -58.599       -4.073       57.590       29.057       28.973     3316.662      844.297      839.423        0.873        0.250      111.513       31.909        0.082      334.895        5.169      868.408
12/01/2013  21:23:00      -92.658      -40.689      -16.002       34.687       17.137       13.326     1203.191      293.677      177.591        0.609        0.084      101.198       13.733        0.018      334.960        5.278      868.407
12/01/2013  21:24:00     -130.456      -31.439      -23.422       18.055       25.935       15.684      325.996      672.643      245.998        0.990        0.062      134.191       16.563        0.015      334.950        5.261      868.399
12/01/2013  21:25:00      -84.879        0.824       -7.269       51.058       45.366       28.452     2606.928     2058.038      809.535        0.637        0.274       84.883       25.356        0.089      334.934        5.234      868.418
12/01/2013  21:26:00      -94.461       28.376      -13.785       49.974       40.666       23.059     2497.398     1653.696      531.710        0.730        0.234       98.631       26.187        0.070      335.133        5.564      868.425
12/01/2013  21:27:00      -71.093        0.666      -13.326       17.112       27.079       17.636      292.805      733.262      311.016        0.328        0.067       71.097       12.224        0.030      335.042        5.413      868.409
12/01/2013  21:28:00      -79.132      -19.702      -17.135        9.882       14.185       11.524       97.656      201.207      132.813        0.369        0.022       81.547        5.494        0.005      335.248        5.755      868.371
12/01/2013  21:29:00      -90.319      -17.904      -25.512       11.016       17.227        9.709      121.360      296.756       94.271        0.482        0.026       92.076        8.527        0.009      335.225        5.717      868.340
12/01/2013  21:30:00     -101.711      -31.048      -20.768       17.410       19.819       10.814      303.119      392.808      116.952        0.628        0.041      106.344       10.454        0.010      335.073        5.466      868.328
12/01/2013  21:31:00     -147.520      -31.127      -20.992       32.569       25.839       16.679     1060.762      667.661      278.198        1.259        0.100      150.768       16.002        0.011      334.901        5.180      868.350
12/01/2013  21:32:00     -111.959      -57.996       -9.350       57.557       40.724       27.536     3312.783     1658.447      758.251        1.086        0.286      126.089       30.513        0.059      334.850        5.095      868.371
12/01/2013  21:33:00     -125.458      -20.928      -10.667       30.081       28.810       18.534      904.869      830.041      343.498        0.918        0.104      127.191        8.482        0.004      334.886        5.155      868.356
12/01/2013  21:34:00      -78.802      -26.136      -11.214       19.241       20.501       15.618      370.202      420.278      243.930        0.403        0.052       83.024       11.620        0.020      334.939        5.243      868.320
12/01/2013  21:35:00      -91.937       -5.610      -15.508       18.856       13.882        9.680      355.539      192.716       93.707        0.468        0.032       92.108       10.016        0.012      335.046        5.420      868.265
12/01/2013  21:36:00     -137.965       -7.856      -18.285       14.256       14.677       10.270      203.243      215.414      105.472        0.998        0.026      138.188        7.359        0.003      335.021        5.380      868.228
12/01/2013  21:37:00     -107.014      -33.084      -16.421       20.614       21.254       13.974      424.941      451.746      195.262        0.694        0.054      112.012       12.354        0.012      335.058        5.439      868.208
12/01/2013  21:38:00     -117.964      -21.693      -15.987       15.547       20.651       13.211      241.724      426.480      174.524        0.774        0.042      119.942       10.349        0.007      335.134        5.566      868.198
12/01/2013  21:39:00     -120.288      -40.744      -16.642       20.244       21.951       14.816      409.804      481.836      219.517        0.876        0.056      127.001       12.540        0.010      335.098        5.507      868.223
12/01/2013  21:40:00     -106.142      -27.878      -21.522       21.598       18.590       14.852      466.460      345.593      220.595        0.677        0.052      109.742       13.456        0.015      335.044        5.417      868.254
12/01/2013  21:41:00      -82.887      -19.865      -20.958       25.736       22.884       16.684      662.338      523.687      278.356        0.458        0.073       85.234       17.813        0.044      335.007        5.356      868.263
12/01/2013  21:42:00      -61.398      -21.637      -13.188       24.480       15.829       12.946      599.284      250.548      167.607        0.271        0.051       65.099       13.477        0.043      335.052        5.431      868.273
12/01/2013  21:43:00      -41.728       -9.668       -0.459       16.587       18.799       11.217      275.138      353.385      125.831        0.129        0.038       42.834        8.031        0.035      335.054        5.434      868.290
12/01/2013  21:44:00      -24.539      -27.683       -4.237       22.477       12.250        8.383      505.220      150.074       70.276        0.106        0.036       36.993        8.933        0.058      335.099        5.508      868.330
12/01/2013  21:45:00      -89.488      -13.947      -13.756       22.952       13.822        9.123      526.808      191.035       83.222        0.460        0.040       90.568       10.099        0.012      335.027        5.389      868.363
12/01/2013  21:46:00      -60.205      -20.552       -1.720       13.816       12.418        9.978      190.884      154.200       99.563        0.225        0.022       63.616        3.342        0.003      334.975        5.303      868.369
12/01/2013  21:47:00      -56.481      -13.467      -15.791        5.070        6.131        5.701       25.708       37.595       32.505        0.186        0.005       58.064        1.918        0.001      334.988        5.322      868.354
12/01/2013  21:48:00      -76.795      -25.923       -6.378       11.468       15.760        9.419      131.516      248.375       88.714        0.354        0.023       81.052        6.251        0.006      335.066        5.454      868.340
12/01/2013  21:49:00      -54.381      -32.869        1.255       21.393       12.578       12.204      457.647      158.215      148.928        0.240        0.038       63.542       13.192        0.043      334.953        5.266      868.344
12/01/2013  21:50:00      -63.104      -30.463       -5.871       12.670       10.039        6.098      160.526      100.788       37.184        0.262        0.015       70.072        5.697        0.007      335.176        5.635      868.335
12/01/2013  21:51:00      -98.386      -22.063      -11.100       16.435       14.169        7.852      270.100      200.775       61.659        0.541        0.027      100.830        5.438        0.003      334.962        5.281      868.320
12/01/2013  21:52:00      -80.638      -45.234       -5.297       27.584       11.877        9.704      760.899      141.069       94.172        0.479        0.050       92.459       13.272        0.021      334.946        5.254      868.314
12/01/2013  21:53:00      -46.225      -28.772       -6.373       10.715        8.317        8.917      114.803       69.167       79.504        0.163        0.013       54.448        4.920        0.008      334.943        5.249      868.300
12/01/2013  21:54:00      -81.796      -21.747       -8.752       14.138       12.800        6.980      199.895      163.829       48.726        0.383        0.021       84.637        9.308        0.012      335.020        5.377      868.292
12/01/2013  21:55:00     -123.105      -12.877      -21.416       13.617       13.860        8.156      185.421      192.109       66.515        0.811        0.022      123.777        5.801        0.002      334.906        5.187      868.290
12/01/2013  21:56:00     -131.787      -29.653      -15.896       20.106       17.777       12.806      404.253      316.026      164.006        0.969        0.044      135.082       13.531        0.010      334.836        5.071      868.296
12/01/2013  21:57:00      -82.501      -67.503      -19.844       23.736       16.794       12.308      563.410      282.051      151.491        0.638        0.050      106.598        6.063        0.003      334.794        5.001      868.280
12/01/2013  21:58:00     -111.499      -28.802      -27.577       17.822       19.468       13.733      317.622      379.006      188.593        0.745        0.044      115.159        5.755        0.002      334.787        4.989      868.266
12/01/2013  21:59:00      -88.724      -33.229       -8.753       37.973       25.195       17.258     1441.922      634.789      297.849        0.571        0.119       94.742       18.661        0.039      334.672        4.799      868.267
12/01/2013  22:00:00     -115.310        8.890      -10.413       49.129       40.026       27.677     2413.648     1602.077      766.039        0.913        0.239      115.652       26.901        0.054      334.674        4.801      868.273
12/01/2013  22:01:00     -125.927      -28.055      -14.075       30.426       35.650       20.552      925.738     1270.920      422.386        0.973        0.131      129.014       13.350        0.011      334.566        4.621      868.286
12/01/2013  22:02:00     -114.029      -40.464      -14.600       44.332       38.647       26.477     1965.361     1493.565      701.055        0.951        0.208      120.996       16.306        0.018      334.512        4.534      868.311
12/01/2013  22:03:00     -126.796      -22.882       -7.889       55.155       55.919       26.330     3042.035     3126.964      693.284        1.176        0.343      128.844       20.242        0.025      334.504        4.521      868.329
12/01/2013  22:04:00     -103.581       -6.951      -23.429       37.616       41.829       21.994     1414.961     1749.641      483.754        0.749        0.182      103.814       19.310        0.035      334.636        4.740      868.309
12/01/2013  22:05:00      -80.245      -36.627       -9.365       31.974       21.498       20.458     1022.322      462.171      418.548        0.489        0.095       88.209       14.361        0.027      334.663        4.784      868.286
12/01/2013  22:06:00      -97.931      -41.598       -5.660       36.491       30.440       19.015     1331.597      926.566      361.588        0.699        0.131      106.399       14.583        0.019      334.593        4.667      868.271
12/01/2013  22:07:00     -106.641       -1.314       -6.329       68.195       44.249       31.331     4650.541     1957.956      981.617        0.950        0.380      106.650       27.107        0.065      334.575        4.637      868.267
12/01/2013  22:08:00      -89.173       19.184      -13.873       58.720       39.874       33.448     3448.055     1589.936     1118.775        0.733        0.308       91.213       26.375        0.084      334.753        4.934      868.257
12/01/2013  22:09:00       -5.692        5.905       -5.441       23.513       20.848       12.557      552.884      434.646      157.670        0.062        0.057        8.202        9.194        1.256      334.817        5.040      868.229
12/01/2013  22:10:00      -68.984      -25.247      -19.218       32.480       21.512       26.782     1054.936      462.776      717.294        0.400        0.112       73.459       22.106        0.091      334.827        5.056      868.226
12/01/2013  22:11:00      -84.916      -43.192      -35.216       32.571       31.051       18.084     1060.846      964.186      327.023        0.633        0.118       95.269       17.054        0.032      334.752        4.933      868.226
12/01/2013  22:12:00     -108.223      -13.964      -14.529       27.280       38.436       16.427      744.183     1477.314      269.857        0.730        0.125      109.120        9.094        0.007      334.600        4.678      868.229
12/01/2013  22:13:00     -122.284       -4.840      -18.246       30.129       24.906       18.118      907.728      620.302      328.270        0.858        0.093      122.380       13.824        0.013      334.601        4.682      868.225
12/01/2013  22:14:00      -80.151       -2.730      -15.722       18.353       25.111       11.104      336.845      630.576      123.296        0.388        0.055       80.197        9.986        0.016      334.848        5.091      868.211
12/01/2013  22:15:00      -85.411      -30.924      -11.887       13.981       18.614       14.330      195.474      346.496      205.342        0.457        0.037       90.837       10.342        0.013      334.867        5.124      868.216
12/01/2013  22:16:00     -137.769      -28.379      -21.787       23.571       19.675       12.695      555.601      387.112      161.163        1.068        0.055      140.661        9.415        0.004      334.622        4.716      868.262
12/01/2013  22:17:00     -104.122      -19.296      -27.294       31.684       22.246       16.120     1003.856      494.863      259.848        0.686        0.088      105.895       14.405        0.019      334.511        4.532      868.276
12/01/2013  22:18:00     -130.725      -33.405      -17.193       26.195       28.648       18.732      686.202      820.726      350.878        1.018        0.093      134.926       13.189        0.010      334.517        4.542      868.305
12/01/2013  22:19:00     -126.517      -40.944      -12.196       61.185       30.317       21.843     3743.557      919.119      477.136        1.148        0.257      132.977       20.803        0.024      334.494        4.503      868.314
12/01/2013  22:20:00     -102.120      -29.105      -18.885       33.845       25.525       23.117     1145.469      651.514      534.400        0.698        0.117      106.186        3.204        0.001      334.535        4.572      868.290
12/01/2013  22:21:00      -80.074      -39.446       -7.329       30.715       22.728       19.273      943.386      516.577      371.440        0.493        0.092       89.263       16.309        0.033      334.540        4.579      868.271
12/01/2013  22:22:00     -103.367      -42.391      -20.458       26.715       22.821       18.232      713.673      520.787      332.390        0.723        0.078      111.722       14.614        0.017      334.550        4.596      868.262
12/01/2013  22:23:00     -106.871      -38.116      -13.981       25.566       30.192       15.420      653.645      911.556      237.778        0.744        0.090      113.464       12.520        0.012      334.593        4.667      868.252
12/01/2013  22:24:00     -134.155      -36.795      -18.463       19.505       21.059       14.291      380.445      443.492      204.227        1.036        0.051      139.110       12.463        0.008      334.663        4.786      868.252
12/01/2013  22:25:00     -137.150      -55.512      -13.700       28.909       26.249       16.109      835.714      688.996      259.495        1.193        0.089      147.958       15.280        0.011      334.606        4.689      868.267
12/01/2013  22:26:00     -153.118      -24.822      -15.473       20.266       17.493       13.011      410.726      305.989      169.284        1.259        0.044      155.117       11.288        0.005      334.792        4.998      868.252
12/01/2013  22:27:00     -148.732      -10.495      -23.460       40.300       23.055       15.671     1624.053      531.517      245.595        1.259        0.120      149.102       16.976        0.013      334.781        4.979      868.228
12/01/2013  22:28:00     -131.637      -39.921      -14.539       29.633       24.283       20.664      878.108      589.664      427.000        1.051        0.095      137.557       11.440        0.007      334.582        4.649      868.232
12/01/2013  22:29:00      -75.329      -49.006       -8.638       39.623       35.634       24.125     1569.990     1269.750      582.000        0.579        0.171       89.867       17.603        0.038      334.550        4.596      868.228
12/01/2013  22:30:00      -58.792      -35.039       -7.006       29.655       29.888       23.720      879.441      893.298      562.616        0.353        0.117       68.442       10.059        0.022      334.568        4.626      868.237
12/01/2013  22:31:00      -98.004      -54.044      -20.634       32.006       25.474       17.036     1024.378      648.932      290.211        0.746        0.098      111.917        8.913        0.006      334.512        4.534      868.261
12/01/2013  22:32:00     -111.923      -27.887      -20.912       29.413       31.340       17.012      865.100      982.181      289.399        0.794        0.107      115.345       13.456        0.014      334.506        4.525      868.293
12/01/2013  22:33:00      -85.815      -19.194      -22.959       22.238       19.967       14.224      494.512      398.670      202.316        0.468        0.055       87.935       13.457        0.023      334.478        4.478      868.321
12/01/2013  22:34:00     -103.683      -23.829      -13.989       31.622       24.410       17.847      999.980      595.854      318.528        0.671        0.096      106.386       17.836        0.028      334.526        4.555      868.359
12/01/2013  22:35:00      -68.889      -36.065       -3.094       27.473       28.315       27.467      754.743      801.742      754.440        0.418        0.116       77.759       16.690        0.046      334.484        4.487      868.403
12/01/2013  22:36:00     -109.561       -4.917      -14.959       22.624       28.293       20.319      511.852      800.514      412.869        0.699        0.086      109.671       14.481        0.017      334.520        4.547      868.400
12/01/2013  22:37:00     -138.787      -16.752      -24.318       30.809       21.700       12.558      949.211      470.872      157.692        1.086        0.079      139.794        9.491        0.005      334.512        4.533      868.409
12/01/2013  22:38:00     -171.224      -37.522      -29.764       22.533       30.738       19.280      507.726      944.802      371.703        1.672        0.091      175.287       14.845        0.007      334.429        4.395      868.438
12/01/2013  22:39:00      -96.068      -56.764      -15.938       32.682       43.961       24.583     1068.106     1932.532      604.332        0.815        0.180      111.585       10.009        0.008      334.430        4.398      868.439
12/01/2013  22:40:00     -122.534      -61.222      -10.309       49.411       40.747       32.692     2441.410     1660.323     1068.761        1.202        0.259      136.977       27.319        0.040      334.429        4.396      868.449
12/01/2013  22:41:00     -144.312      -22.472      -11.703       80.407       50.142       34.162     6465.362     2514.228     1167.045        1.581        0.507      146.052       37.840        0.067      334.395        4.338      868.471
12/01/2013  22:42:00      -67.550      -18.443       -3.485       47.301       41.325       26.052     2237.357     1707.792      678.732        0.477        0.231       70.022       21.646        0.096      334.363        4.286      868.452
12/01/2013  22:43:00      -28.048       -9.994       -2.471       31.500       38.623       19.813      992.275     1491.722      392.568        0.188        0.144       29.775        9.453        0.101      334.489        4.495      868.407
12/01/2013  22:44:00      -46.169      -16.477       -4.713       34.284       23.785       18.419     1175.410      565.728      339.277        0.225        0.104       49.021       14.736        0.090      334.573        4.635      868.393
12/01/2013  22:45:00     -106.835      -22.048      -24.440       45.176       30.191       25.859     2040.875      911.476      668.682        0.806        0.181      109.086       15.229        0.019      334.570        4.629      868.396
12/01/2013  22:46:00     -153.649      -10.050      -24.163       35.279       30.791       21.380     1244.625      948.110      457.112        1.347        0.132      153.977       17.633        0.013      334.436        4.408      868.395
12/01/2013  22:47:00      -90.994       -3.687      -17.024       27.190       26.304       18.908      739.274      691.897      357.497        0.519        0.089       91.068       16.770        0.034      334.424        4.387      868.361
12/01/2013  22:48:00     -124.737      -30.646      -23.135       39.750       26.344       20.320     1580.033      693.986      412.905        0.986        0.134      128.447       16.195        0.016      334.435        4.407      868.352
12/01/2013  22:49:00     -119.872      -62.140      -14.062       48.495       42.659       30.649     2351.803     1819.830      939.356        1.177        0.256      135.021       25.227        0.035      334.409        4.364      868.357
12/01/2013  22:50:00      -85.774      -15.359       -1.278       50.269       33.068       28.695     2527.003     1093.485      823.413        0.602        0.222       87.138       26.132        0.090      334.363        4.286      868.348
12/01/2013  22:51:00      -89.869      -33.860      -17.629       35.352       39.571       18.345     1249.744     1565.881      336.554        0.634        0.158       96.036        9.737        0.010      334.385        4.324      868.350
12/01/2013  22:52:00      -89.805      -21.829      -16.828       30.131       30.448       25.394      907.860      927.089      644.871        0.565        0.124       92.420       16.315        0.031      334.398        4.346      868.338
12/01/2013  22:53:00      -89.380      -28.699      -16.015       41.415       30.318       24.425     1715.222      919.196      596.596        0.615        0.162       93.875       18.523        0.039      334.464        4.453      868.329
12/01/2013  22:54:00     -133.554      -43.953      -26.122       46.444       34.657       22.144     2157.049     1201.098      490.344        1.215        0.192      140.601       12.229        0.008      334.463        4.452      868.350
12/01/2013  22:55:00      -78.118      -38.836       -9.636       65.366       50.146       28.959     4272.711     2514.662      838.651        0.766        0.381       87.240       32.228        0.136      334.381        4.317      868.355
12/01/2013  22:56:00     -115.555      -24.248       -7.283       28.125       36.494       25.279      791.001     1331.778      639.040        0.838        0.138      118.072       18.059        0.023      334.409        4.362      868.349
12/01/2013  22:57:00     -126.792      -43.900      -23.236       39.726       34.483       25.070     1578.134     1189.076      628.498        1.097        0.170      134.177       12.685        0.009      334.443        4.419      868.365
12/01/2013  22:58:00     -166.735      -17.351      -32.667       24.984       35.148       16.522      624.200     1235.399      272.985        1.565        0.107      167.635       12.855        0.006      334.401        4.349      868.366
12/01/2013  22:59:00     -173.436      -38.034      -22.509       42.624       44.017       28.123     1816.822     1937.539      790.930        1.829        0.227      177.558       21.403        0.015      334.362        4.282      868.360
12/01/2013  23:00:00      -98.690        8.239      -18.081       64.581       44.386       25.841     4170.686     1970.103      667.778        0.847        0.340       99.033       23.716        0.057      334.409        4.362      868.346
12/01/2013  23:01:00     -115.934      -25.440      -15.825       36.239       32.512       23.797     1313.279     1057.001      566.293        0.864        0.147      118.692       15.621        0.017      334.411        4.365      868.346
12/01/2013  23:02:00      -78.921      -51.467      -11.073       54.947       33.349       21.683     3019.166     1112.140      470.159        0.680        0.230       94.220       14.400        0.023      334.370        4.298      868.332
12/01/2013  23:03:00      -13.089      -45.369       12.544       39.775       33.749       28.249     1582.026     1139.017      798.020        0.295        0.176       47.220       24.992        0.280      334.352        4.270      868.310
12/01/2013  23:04:00      -74.982      -51.059      -14.992       30.104       29.180       21.127      906.246      851.444      446.348        0.533        0.110       90.716       12.667        0.019      334.376        4.310      868.301
12/01/2013  23:05:00     -155.941      -43.984      -17.309       51.304       40.770       25.881     2632.131     1662.210      669.809        1.576        0.248      162.025       23.653        0.021      334.347        4.260      868.324
12/01/2013  23:06:00     -140.831      -44.007      -15.735       47.511       58.380       23.472     2257.310     3408.202      550.916        1.412        0.311      147.546       12.196        0.007      334.301        4.183      868.336
12/01/2013  23:07:00      -77.740      -26.991      -11.160       55.950       27.723       23.871     3130.347      768.545      569.824        0.568        0.223       82.292       22.939        0.078      334.375        4.306      868.315
12/01/2013  23:08:00       -3.793      -24.820        4.664       43.405       25.625       27.476     1883.966      656.665      754.915        0.197        0.165       25.108       25.205        1.008      334.378        4.312      868.309
12/01/2013  23:09:00      -13.491      -37.716        5.948       40.646       28.292       26.089     1652.095      800.450      680.635        0.239        0.157       40.056       13.580        0.115      334.407        4.361      868.327
12/01/2013  23:10:00      -99.360      -34.088      -15.670       29.493       31.200       24.538      869.843      973.470      602.128        0.686        0.122      105.044       10.514        0.010      334.390        4.332      868.365
12/01/2013  23:11:00      -61.251      -22.643       -8.573       43.393       28.500       22.944     1882.932      812.231      526.430        0.378        0.161       65.302       16.114        0.061      334.415        4.372      868.390
12/01/2013  23:12:00      -94.871      -25.394      -11.849       28.709       29.835       17.827      824.207      890.101      317.794        0.591        0.102       98.210       13.942        0.020      334.443        4.419      868.417
12/01/2013  23:13:00      -85.217      -41.764       -7.490       24.184       23.039       16.146      584.861      530.781      260.680        0.522        0.069       94.901        7.899        0.007      334.489        4.495      868.454
12/01/2013  23:14:00      -69.266      -15.024      -13.824       22.193       27.139       17.282      492.533      736.535      298.660        0.337        0.076       70.877       10.307        0.021      334.547        4.590      868.455
12/01/2013  23:15:00      -87.510      -15.369      -13.187       26.706       24.038       18.745      713.201      577.841      351.361        0.485        0.082       88.850       13.876        0.024      334.529        4.562      868.457
12/01/2013  23:16:00      -89.996      -33.555      -14.679       17.177       17.191       10.699      295.055      295.530      114.478        0.507        0.035       96.047        9.014        0.009      334.743        4.918      868.465
12/01/2013  23:17:00      -55.391      -30.678       -5.512       20.325       24.141       16.145      413.114      582.808      260.649        0.265        0.063       63.319       10.047        0.025      334.613        4.701      868.459
12/01/2013  23:18:00      -21.908      -38.318       -4.397       35.338       16.341       15.176     1248.767      267.015      230.305        0.186        0.087       44.139       16.297        0.136      334.604        4.687      868.449
12/01/2013  23:19:00      -40.053      -29.680      -10.776       35.734       14.019       10.662     1276.904      196.536      113.674        0.209        0.079       49.851        8.181        0.027      334.679        4.811      868.455
12/01/2013  23:20:00      -98.385      -23.483      -14.940       14.625       17.190       10.302      213.898      295.490      106.135        0.553        0.031      101.148        6.984        0.005      334.670        4.795      868.461
12/01/2013  23:21:00      -94.099      -38.769      -12.190       17.168       13.746       11.671      294.739      188.950      136.206        0.556        0.031      101.772        5.976        0.003      334.614        4.702      868.456
12/01/2013  23:22:00      -51.376      -43.350       -6.073       30.955       14.297        9.064      958.224      204.395       82.159        0.290        0.062       67.222       10.456        0.024      334.621        4.715      868.435
12/01/2013  23:23:00      -10.400      -19.559       -5.828       18.683       16.165        8.920      349.058      261.312       79.571        0.061        0.034       22.152        9.996        0.204      334.820        5.044      868.388
12/01/2013  23:24:00        4.923      -28.303      -13.789       19.125       20.729       13.796      365.784      429.681      190.327        0.100        0.049       28.728       12.993        0.205      334.794        5.001      868.355
12/01/2013  23:25:00      -26.039      -17.609       -3.181       22.578        8.301        4.970      509.765       68.906       24.701        0.080        0.030       31.434        6.339        0.041      334.940        5.245      868.345
12/01/2013  23:26:00      -57.847       -8.988       -6.704       12.548        8.879        9.118      157.455       78.840       83.132        0.190        0.016       58.541        8.017        0.019      334.750        4.928      868.342
12/01/2013  23:27:00      -68.364      -28.083      -10.203        5.177        7.674        3.919       26.802       58.888       15.358        0.283        0.005       73.907        1.375        0.000      334.661        4.782      868.338
12/01/2013  23:28:00      -81.254      -29.834      -13.391        8.990        6.991        5.903       80.819       48.877       34.847        0.392        0.008       86.558        2.647        0.001      334.488        4.494      868.306
12/01/2013  23:29:00     -102.433      -22.206      -12.771       18.330       14.801        7.042      336.005      219.077       49.591        0.588        0.030      104.812        3.277        0.001      334.422        4.383      868.265
12/01/2013  23:30:00     -126.002      -19.503      -13.588       26.402       18.546       16.141      697.041      343.937      260.527        0.887        0.065      127.503       13.517        0.011      334.325        4.224      868.224
12/01/2013  23:31:00     -130.344      -44.934      -10.451       26.702       17.985       12.890      713.019      323.475      166.164        1.016        0.060      137.871       12.977        0.009      334.301        4.183      868.197
12/01/2013  23:32:00     -127.207      -50.315       -8.730       25.474       16.106       14.045      648.926      259.391      197.253        0.995        0.055      136.796       14.794        0.012      334.390        4.331      868.181
12/01/2013  23:33:00     -124.299      -32.726      -15.765       14.236       16.640        9.801      202.671      276.889       96.056        0.867        0.029      128.535        6.461        0.003      334.447        4.426      868.160
12/01/2013  23:34:00     -114.178      -22.957      -15.844       13.743       13.553        9.572      188.866      183.685       91.631        0.714        0.023      116.463        5.008        0.002      334.436        4.408      868.152
12/01/2013  23:35:00     -122.800      -32.849      -12.999       11.909       10.898        8.745      141.833      118.771       76.477        0.833        0.017      127.118        5.230        0.002      334.418        4.378      868.152
12/01/2013  23:36:00     -111.958        5.467      -17.753       37.678       12.136       12.071     1419.657      147.283      145.713        0.730        0.086      112.092       11.948        0.011      334.532        4.567      868.147
12/01/2013  23:37:00      -70.596       -9.736      -10.640       13.221       13.757        9.929      174.792      189.257       98.589        0.283        0.023       71.264        5.902        0.007      334.418        4.379      868.136
12/01/2013  23:38:00     -104.002      -65.000      -21.565       26.941       27.470       15.372      725.811      754.596      236.304        0.861        0.086      122.644       12.809        0.011      334.229        4.065      868.143
12/01/2013  23:39:00     -111.449      -21.043       -7.487       60.697       67.290       27.706     3684.154     4527.934      767.633        1.095        0.449      113.419       24.121        0.045      334.070        3.799      868.150
12/01/2013  23:40:00     -126.026       14.799      -13.747       40.991       47.290       26.778     1680.291     2236.353      717.047        1.046        0.232      126.892       17.034        0.018      334.387        4.327      868.137
12/01/2013  23:41:00     -142.070      -48.597      -13.263       32.337       39.985       24.320     1045.714     1598.821      591.452        1.298        0.162      150.152       17.488        0.014      334.138        3.912      868.143
12/01/2013  23:42:00     -104.763      -28.143       -0.986       61.563       50.565       29.009     3789.977     2556.821      841.506        0.948        0.359      108.477       32.253        0.088      334.118        3.880      868.139
12/01/2013  23:43:00      -70.125       10.763       -1.550       74.708       44.414       25.196     5581.295     1972.614      634.832        0.661        0.409       70.947       30.838        0.189      334.238        4.078      868.114
12/01/2013  23:44:00     -121.151      -37.709       -8.365       43.708       49.537       27.389     1910.404     2453.949      750.165        1.064        0.256      126.884       23.323        0.034      334.310        4.197      868.080
12/01/2013  23:45:00      -70.999      -46.115       -2.537       38.940       30.498       25.326     1516.360      930.101      641.415        0.513        0.154       84.661       23.050        0.074      334.313        4.202      868.049
12/01/2013  23:46:00     -108.171      -36.074       -5.202       30.104       26.138       20.902      906.237      683.215      436.895        0.753        0.101      114.027       11.913        0.011      334.291        4.167      868.012
12/01/2013  23:47:00     -118.872      -34.246       -8.711       33.153       35.493       22.464     1099.145     1259.779      504.639        0.912        0.143      123.707       18.925        0.023      334.234        4.071      867.981
12/01/2013  23:48:00     -121.740      -34.491       -7.587       38.676       35.475       24.397     1495.807     1258.488      595.235        0.971        0.167      126.531       17.340        0.019      334.288        4.161      867.956
12/01/2013  23:49:00      -78.285      -49.186      -18.905       26.962       29.849       15.959      726.965      890.982      254.702        0.539        0.094       92.455        7.991        0.007      334.285        4.158      867.948
12/01/2013  23:50:00      -98.759      -43.242      -18.889       26.610       27.713       22.401      708.066      767.994      501.803        0.698        0.099      107.811       13.113        0.015      334.307        4.193      867.927
12/01/2013  23:51:00      -96.742      -17.370      -14.319       26.760       27.863       18.108      716.098      776.347      327.887        0.584        0.091       98.289       12.681        0.017      334.338        4.243      867.891
12/01/2013  23:52:00      -81.812      -19.813       -9.830       19.872       25.334       15.353      394.915      641.793      235.705        0.423        0.064       84.177       13.131        0.024      334.346        4.258      867.874
12/01/2013  23:53:00      -47.925      -29.907       -3.753       13.643       24.736       14.025      186.136      611.852      196.694        0.210        0.050       56.492        5.448        0.009      334.421        4.382      867.848
12/01/2013  23:54:00      -57.893      -12.728       -1.087       23.814       18.348       15.072      567.102      336.649      227.156        0.232        0.057       59.275       11.723        0.039      334.411        4.367      867.822
12/01/2013  23:55:00      -58.615       -5.979       -9.715       17.024       14.339       11.093      289.802      205.616      123.065        0.209        0.031       58.919        5.901        0.010      334.370        4.296      867.815
12/01/2013  23:56:00     -106.772       11.701      -15.613       13.552       19.609       11.700      183.645      384.502      136.895        0.624        0.035      107.412        7.730        0.005      334.422        4.385      867.804
12/01/2013  23:57:00      -97.492        0.747       -6.259       47.956       26.134       20.019     2299.780      683.009      400.772        0.646        0.169       97.494       22.593        0.054      334.313        4.204      867.779
12/01/2013  23:58:00      -96.948      -15.738       -5.555       25.618       34.155       17.846      656.263     1166.580      318.476        0.591        0.107       98.217       15.110        0.024      334.232        4.068      867.767
12/01/2013  23:59:00      -89.681      -40.274       -6.297       17.101       19.368       14.029      292.436      375.126      196.819        0.528        0.043       98.308       10.788        0.012      334.240        4.083      867.752
